Wetterdaten: Mittwoch, 05.12.2018
Datum Zeit Temp. A. Pool Temp. Temp. 5cm Feuchte A. Luftdruck Regen Wind Richtung Richtung Sonnenschein ET UV Solar Taupunkt Windchill Windben Empfang
05.12.2018 00:00 2,7 C 3,9 C 0,6 C 95 % 1026,4 hPa 0,0 l/m 1,1 km/h (1 Bft) W 272 0 min 0,000 mm 0,0 UV-I 0 W/m 2,0 C 2,7 C 1,6 km/h (1 Bft) 95,83 %
05.12.2018 00:02 2,6 C 3,9 C 0,6 C 95 % 1026,4 hPa 0,0 l/m 1,4 km/h (1 Bft) W 272 0 min 0,000 mm 0,0 UV-I 0 W/m 1,9 C 2,6 C 3,2 km/h (1 Bft) 97,83 %
05.12.2018 00:04 2,7 C 3,9 C 0,6 C 95 % 1026,4 hPa 0,0 l/m 2,7 km/h (1 Bft) W 270 0 min 0,000 mm 0,0 UV-I 0 W/m 2,0 C 2,7 C 3,2 km/h (1 Bft) 97,37 %
05.12.2018 00:06 2,7 C 3,9 C 0,6 C 95 % 1026,5 hPa 0,0 l/m 3,8 km/h (1 Bft) W-SW 239 0 min 0,000 mm 0,0 UV-I 0 W/m 2,0 C 2,7 C 4,8 km/h (1 Bft) 98,00 %
05.12.2018 00:08 2,6 C 3,9 C 0,6 C 95 % 1026,5 hPa 0,0 l/m 3,2 km/h (1 Bft) W-SW 239 0 min 0,000 mm 0,0 UV-I 0 W/m 1,9 C 2,6 C 4,8 km/h (1 Bft) 97,87 %
05.12.2018 00:10 2,6 C 3,9 C 0,6 C 95 % 1026,5 hPa 0,0 l/m 3,1 km/h (1 Bft) W-SW 238 0 min 0,000 mm 0,0 UV-I 0 W/m 1,9 C 2,6 C 4,8 km/h (1 Bft) 93,62 %
05.12.2018 00:12 2,4 C 3,9 C 0,6 C 95 % 1026,5 hPa 0,0 l/m 3,4 km/h (1 Bft) SW 227 0 min 0,000 mm 0,0 UV-I 0 W/m 1,7 C 2,4 C 4,8 km/h (1 Bft) 98,00 %
05.12.2018 00:14 2,5 C 3,9 C 0,6 C 96 % 1026,5 hPa 0,0 l/m 3,8 km/h (1 Bft) SW 227 0 min 0,000 mm 0,0 UV-I 0 W/m 1,9 C 2,5 C 4,8 km/h (1 Bft) 95,74 %
05.12.2018 00:16 2,6 C 3,9 C 0,6 C 96 % 1026,5 hPa 0,0 l/m 3,3 km/h (1 Bft) SW 227 0 min 0,000 mm 0,0 UV-I 0 W/m 2,0 C 2,6 C 4,8 km/h (1 Bft) 97,87 %
05.12.2018 00:18 2,7 C 3,9 C 0,6 C 96 % 1026,5 hPa 0,0 l/m 3,5 km/h (1 Bft) SW 227 0 min 0,000 mm 0,0 UV-I 0 W/m 2,1 C 2,7 C 4,8 km/h (1 Bft) 94,74 %
05.12.2018 00:20 2,7 C 3,9 C 0,6 C 96 % 1026,6 hPa 0,0 l/m 3,8 km/h (1 Bft) SW 227 0 min 0,000 mm 0,0 UV-I 0 W/m 2,1 C 2,7 C 4,8 km/h (1 Bft) 95,74 %
05.12.2018 00:22 2,8 C 3,9 C 0,6 C 96 % 1026,6 hPa 0,0 l/m 3,9 km/h (1 Bft) SW 227 0 min 0,000 mm 0,0 UV-I 0 W/m 2,2 C 2,8 C 4,8 km/h (1 Bft) 95,74 %
05.12.2018 00:24 2,8 C 3,9 C 0,6 C 96 % 1026,5 hPa 0,0 l/m 3,6 km/h (1 Bft) SW 227 0 min 0,000 mm 0,0 UV-I 0 W/m 2,2 C 2,8 C 4,8 km/h (1 Bft) 97,87 %
05.12.2018 00:26 2,8 C 3,9 C 0,6 C 96 % 1026,5 hPa 0,0 l/m 3,7 km/h (1 Bft) SW 227 0 min 0,000 mm 0,0 UV-I 0 W/m 2,2 C 2,8 C 4,8 km/h (1 Bft) 93,75 %
05.12.2018 00:28 2,9 C 3,9 C 0,0 C 96 % 1026,5 hPa 0,0 l/m 3,8 km/h (1 Bft) SW 227 0 min 0,000 mm 0,0 UV-I 0 W/m 2,3 C 2,9 C 4,8 km/h (1 Bft) 97,87 %
05.12.2018 00:30 2,9 C 3,9 C 0,0 C 96 % 1026,5 hPa 0,0 l/m 3,2 km/h (1 Bft) SW 227 0 min 0,000 mm 0,0 UV-I 0 W/m 2,3 C 2,9 C 4,8 km/h (1 Bft) 97,87 %
05.12.2018 00:32 3,0 C 3,9 C 0,0 C 96 % 1026,6 hPa 0,0 l/m 2,0 km/h (1 Bft) SW 227 0 min 0,000 mm 0,0 UV-I 0 W/m 2,4 C 3,0 C 3,2 km/h (1 Bft) 97,87 %
05.12.2018 00:34 3,1 C 3,9 C -0,6 C 96 % 1026,6 hPa 0,0 l/m 2,1 km/h (1 Bft) SW 227 0 min 0,000 mm 0,0 UV-I 0 W/m 2,5 C 3,1 C 3,2 km/h (1 Bft) 93,62 %
05.12.2018 00:36 3,1 C 3,9 C -1,1 C 96 % 1026,5 hPa 0,0 l/m 1,6 km/h (1 Bft) SW 227 0 min 0,000 mm 0,0 UV-I 0 W/m 2,5 C 3,1 C 3,2 km/h (1 Bft) 93,62 %
05.12.2018 00:38 3,2 C 3,9 C -1,1 C 96 % 1026,6 hPa 0,0 l/m 2,2 km/h (1 Bft) SW 227 0 min 0,000 mm 0,0 UV-I 0 W/m 2,6 C 3,2 C 3,2 km/h (1 Bft) 98,00 %
05.12.2018 00:40 3,1 C 3,9 C -1,1 C 96 % 1026,6 hPa 0,0 l/m 1,9 km/h (1 Bft) SW 227 0 min 0,000 mm 0,0 UV-I 0 W/m 2,5 C 3,1 C 3,2 km/h (1 Bft) 100,00 %
05.12.2018 00:42 3,0 C 3,9 C -1,7 C 95 % 1026,6 hPa 0,0 l/m 2,1 km/h (1 Bft) SW 227 0 min 0,000 mm 0,0 UV-I 0 W/m 2,3 C 3,0 C 3,2 km/h (1 Bft) 97,87 %
05.12.2018 00:44 2,8 C 3,9 C -1,7 C 95 % 1026,7 hPa 0,0 l/m 2,2 km/h (1 Bft) SW 227 0 min 0,000 mm 0,0 UV-I 0 W/m 2,1 C 2,8 C 3,2 km/h (1 Bft) 100,00 %
05.12.2018 00:46 2,7 C 3,9 C -1,7 C 95 % 1026,7 hPa 0,0 l/m 2,4 km/h (1 Bft) SW 227 0 min 0,000 mm 0,0 UV-I 0 W/m 2,0 C 2,7 C 3,2 km/h (1 Bft) 100,00 %
05.12.2018 00:48 2,6 C 3,9 C -1,7 C 95 % 1026,7 hPa 0,0 l/m 2,8 km/h (1 Bft) SW 227 0 min 0,000 mm 0,0 UV-I 0 W/m 1,9 C 2,6 C 3,2 km/h (1 Bft) 95,74 %
05.12.2018 00:50 2,5 C 3,9 C -1,7 C 95 % 1026,7 hPa 0,0 l/m 2,0 km/h (1 Bft) SW 227 0 min 0,000 mm 0,0 UV-I 0 W/m 1,8 C 2,5 C 3,2 km/h (1 Bft) 95,74 %
05.12.2018 00:52 2,4 C 3,9 C -2,2 C 95 % 1026,7 hPa 0,0 l/m 0,8 km/h (0 Bft) SW 227 0 min 0,000 mm 0,0 UV-I 0 W/m 1,7 C 2,4 C 3,2 km/h (1 Bft) 100,00 %
05.12.2018 00:54 2,4 C 3,9 C -2,2 C 95 % 1026,7 hPa 0,0 l/m 0,0 km/h (0 Bft) SW 227 0 min 0,000 mm 0,0 UV-I 0 W/m 1,7 C 2,4 C 0,0 km/h (0 Bft) 98,00 %
05.12.2018 00:56 2,6 C 3,9 C -2,2 C 96 % 1026,7 hPa 0,0 l/m 0,0 km/h (0 Bft) SW 227 0 min 0,000 mm 0,0 UV-I 0 W/m 2,0 C 2,6 C 0,0 km/h (0 Bft) 95,74 %
05.12.2018 00:58 2,7 C 3,9 C -2,2 C 96 % 1026,7 hPa 0,0 l/m 0,1 km/h (0 Bft) SW 227 0 min 0,000 mm 0,0 UV-I 0 W/m 2,1 C 2,7 C 1,6 km/h (1 Bft) 91,49 %
05.12.2018 01:00 2,7 C 3,9 C -2,2 C 96 % 1026,6 hPa 0,0 l/m 1,6 km/h (1 Bft) SW 227 0 min 0,000 mm 0,0 UV-I 0 W/m 2,1 C 2,7 C 3,2 km/h (1 Bft) 97,87 %
05.12.2018 01:02 2,6 C 3,9 C -1,7 C 96 % 1026,5 hPa 0,0 l/m 1,7 km/h (1 Bft) SW 227 0 min 0,000 mm 0,0 UV-I 0 W/m 2,0 C 2,6 C 3,2 km/h (1 Bft) 97,87 %
05.12.2018 01:04 2,3 C 3,9 C -1,7 C 95 % 1026,5 hPa 0,0 l/m 1,8 km/h (1 Bft) SW 227 0 min 0,000 mm 0,0 UV-I 0 W/m 1,6 C 2,3 C 3,2 km/h (1 Bft) 97,87 %
05.12.2018 01:06 1,9 C 3,9 C -1,7 C 95 % 1026,5 hPa 0,0 l/m 1,8 km/h (1 Bft) SW 227 0 min 0,000 mm 0,0 UV-I 0 W/m 1,2 C 1,9 C 3,2 km/h (1 Bft) 97,50 %
05.12.2018 01:08 1,7 C 3,9 C -1,7 C 95 % 1026,5 hPa 0,0 l/m 2,3 km/h (1 Bft) SW 227 0 min 0,000 mm 0,0 UV-I 0 W/m 1,0 C 1,7 C 3,2 km/h (1 Bft) 98,00 %
05.12.2018 01:10 1,5 C 3,9 C -1,7 C 95 % 1026,6 hPa 0,0 l/m 2,6 km/h (1 Bft) SW 227 0 min 0,000 mm 0,0 UV-I 0 W/m 0,8 C 1,5 C 3,2 km/h (1 Bft) 95,65 %
05.12.2018 01:12 1,3 C 3,9 C -1,7 C 95 % 1026,6 hPa 0,0 l/m 2,3 km/h (1 Bft) SW 227 0 min 0,000 mm 0,0 UV-I 0 W/m 0,6 C 1,3 C 3,2 km/h (1 Bft) 95,74 %
05.12.2018 01:14 1,2 C 3,9 C -2,2 C 95 % 1026,6 hPa 0,0 l/m 1,4 km/h (1 Bft) SW 227 0 min 0,000 mm 0,0 UV-I 0 W/m 0,5 C 1,2 C 3,2 km/h (1 Bft) 93,62 %
05.12.2018 01:16 1,3 C 3,9 C -2,2 C 95 % 1026,6 hPa 0,0 l/m 0,7 km/h (0 Bft) SW 227 0 min 0,000 mm 0,0 UV-I 0 W/m 0,6 C 1,3 C 1,6 km/h (1 Bft) 97,87 %
05.12.2018 01:18 1,4 C 3,9 C -2,2 C 96 % 1026,6 hPa 0,0 l/m 0,9 km/h (0 Bft) SW 227 0 min 0,000 mm 0,0 UV-I 0 W/m 0,8 C 1,4 C 1,6 km/h (1 Bft) 100,00 %
05.12.2018 01:20 1,6 C 3,9 C -2,2 C 96 % 1026,6 hPa 0,0 l/m 0,3 km/h (0 Bft) SW 227 0 min 0,000 mm 0,0 UV-I 0 W/m 1,0 C 1,6 C 1,6 km/h (1 Bft) 97,87 %
05.12.2018 01:22 1,7 C 3,9 C -2,2 C 96 % 1026,5 hPa 0,0 l/m 0,0 km/h (0 Bft) SW 227 0 min 0,000 mm 0,0 UV-I 0 W/m 1,1 C 1,7 C 0,0 km/h (0 Bft) 100,00 %
05.12.2018 01:24 1,8 C 3,9 C -2,8 C 96 % 1026,5 hPa 0,0 l/m 0,1 km/h (0 Bft) SW 227 0 min 0,000 mm 0,0 UV-I 0 W/m 1,2 C 1,8 C 1,6 km/h (1 Bft) 100,00 %
05.12.2018 01:26 1,8 C 3,9 C -1,1 C 96 % 1026,5 hPa 0,0 l/m 1,3 km/h (1 Bft) SW 227 0 min 0,000 mm 0,0 UV-I 0 W/m 1,2 C 1,8 C 1,6 km/h (1 Bft) 97,87 %
05.12.2018 01:28 2,0 C 3,9 C -1,1 C 96 % 1026,4 hPa 0,0 l/m 1,4 km/h (1 Bft) SW 227 0 min 0,000 mm 0,0 UV-I 0 W/m 1,4 C 2,0 C 1,6 km/h (1 Bft) 100,00 %
05.12.2018 01:30 2,1 C 3,9 C -1,1 C 96 % 1026,5 hPa 0,0 l/m 0,1 km/h (0 Bft) SW 227 0 min 0,000 mm 0,0 UV-I 0 W/m 1,5 C 2,1 C 1,6 km/h (1 Bft) 97,87 %
05.12.2018 01:32 1,9 C 3,9 C -1,1 C 96 % 1026,6 hPa 0,0 l/m 1,1 km/h (1 Bft) SW 227 0 min 0,000 mm 0,0 UV-I 0 W/m 1,3 C 1,9 C 4,8 km/h (1 Bft) 100,00 %
05.12.2018 01:34 1,8 C 3,9 C -1,1 C 96 % 1026,7 hPa 0,0 l/m 4,6 km/h (1 Bft) SW 227 0 min 0,000 mm 0,0 UV-I 0 W/m 1,2 C 1,8 C 6,4 km/h (2 Bft) 100,00 %
05.12.2018 01:36 1,6 C 3,9 C -1,1 C 96 % 1026,7 hPa 0,0 l/m 4,5 km/h (1 Bft) SW 227 0 min 0,000 mm 0,0 UV-I 0 W/m 1,0 C 1,6 C 4,8 km/h (1 Bft) 97,87 %
05.12.2018 01:38 1,5 C 3,9 C -1,1 C 96 % 1026,6 hPa 0,0 l/m 4,7 km/h (1 Bft) SW 227 0 min 0,000 mm 0,0 UV-I 0 W/m 0,9 C 1,5 C 4,8 km/h (1 Bft) 97,87 %
05.12.2018 01:40 1,4 C 3,9 C -1,1 C 96 % 1026,7 hPa 0,0 l/m 4,7 km/h (1 Bft) SW 227 0 min 0,000 mm 0,0 UV-I 0 W/m 0,8 C 1,4 C 4,8 km/h (1 Bft) 100,00 %
05.12.2018 01:42 1,2 C 3,9 C -1,1 C 96 % 1026,7 hPa 0,0 l/m 4,4 km/h (1 Bft) SW 227 0 min 0,000 mm 0,0 UV-I 0 W/m 0,6 C 1,2 C 4,8 km/h (1 Bft) 100,00 %
05.12.2018 01:44 1,0 C 3,9 C -1,7 C 96 % 1026,7 hPa 0,0 l/m 4,0 km/h (1 Bft) SW 227 0 min 0,000 mm 0,0 UV-I 0 W/m 0,4 C 1,0 C 4,8 km/h (1 Bft) 97,87 %
05.12.2018 01:46 0,8 C 3,9 C -1,7 C 96 % 1026,7 hPa 0,0 l/m 3,6 km/h (1 Bft) SW 227 0 min 0,000 mm 0,0 UV-I 0 W/m 0,2 C 0,8 C 4,8 km/h (1 Bft) 100,00 %
05.12.2018 01:48 0,7 C 3,9 C -2,2 C 96 % 1026,8 hPa 0,0 l/m 3,4 km/h (1 Bft) SW 227 0 min 0,000 mm 0,0 UV-I 0 W/m 0,1 C 0,7 C 4,8 km/h (1 Bft) 100,00 %
05.12.2018 01:50 0,8 C 3,9 C -2,2 C 96 % 1026,8 hPa 0,0 l/m 3,7 km/h (1 Bft) SW 227 0 min 0,000 mm 0,0 UV-I 0 W/m 0,2 C 0,8 C 4,8 km/h (1 Bft) 100,00 %
05.12.2018 01:52 1,0 C 3,9 C -2,2 C 96 % 1026,8 hPa 0,0 l/m 3,8 km/h (1 Bft) SW 227 0 min 0,000 mm 0,0 UV-I 0 W/m 0,4 C 1,0 C 4,8 km/h (1 Bft) 100,00 %
05.12.2018 01:54 1,0 C 3,9 C -2,2 C 97 % 1026,9 hPa 0,0 l/m 4,3 km/h (1 Bft) SW 227 0 min 0,000 mm 0,0 UV-I 0 W/m 0,6 C 1,0 C 4,8 km/h (1 Bft) 100,00 %
05.12.2018 01:56 1,1 C 3,9 C -2,2 C 96 % 1026,9 hPa 0,0 l/m 4,2 km/h (1 Bft) SW 227 0 min 0,000 mm 0,0 UV-I 0 W/m 0,5 C 1,1 C 4,8 km/h (1 Bft) 97,87 %
05.12.2018 01:58 1,1 C 3,9 C -2,2 C 96 % 1026,9 hPa 0,0 l/m 4,5 km/h (1 Bft) SW 227 0 min 0,000 mm 0,0 UV-I 0 W/m 0,5 C 1,1 C 4,8 km/h (1 Bft) 95,74 %
05.12.2018 02:00 0,9 C 3,9 C -2,2 C 97 % 1026,9 hPa 0,0 l/m 4,1 km/h (1 Bft) SW 227 0 min 0,000 mm 0,0 UV-I 0 W/m 0,5 C 0,9 C 4,8 km/h (1 Bft) 97,87 %
05.12.2018 02:02 0,7 C 3,9 C -2,2 C 96 % 1026,9 hPa 0,0 l/m 4,3 km/h (1 Bft) SW 227 0 min 0,000 mm 0,0 UV-I 0 W/m 0,1 C 0,7 C 4,8 km/h (1 Bft) 100,00 %
05.12.2018 02:04 0,5 C 3,9 C -2,2 C 96 % 1026,8 hPa 0,0 l/m 3,4 km/h (1 Bft) SW 227 0 min 0,000 mm 0,0 UV-I 0 W/m -0,1 C 0,5 C 4,8 km/h (1 Bft) 100,00 %
05.12.2018 02:06 0,6 C 3,9 C -2,8 C 96 % 1026,9 hPa 0,0 l/m 3,0 km/h (1 Bft) SW 227 0 min 0,000 mm 0,0 UV-I 0 W/m 0,0 C 0,6 C 3,2 km/h (1 Bft) 95,74 %
05.12.2018 02:08 0,9 C 3,9 C -2,8 C 96 % 1026,8 hPa 0,0 l/m 1,5 km/h (1 Bft) SW 227 0 min 0,000 mm 0,0 UV-I 0 W/m 0,3 C 0,9 C 3,2 km/h (1 Bft) 95,74 %
05.12.2018 02:10 1,3 C 3,9 C -3,3 C 97 % 1026,8 hPa 0,0 l/m 0,5 km/h (0 Bft) SW 227 0 min 0,000 mm 0,0 UV-I 0 W/m 0,9 C 1,3 C 3,2 km/h (1 Bft) 96,00 %
05.12.2018 02:12 1,3 C 3,9 C -2,8 C 97 % 1026,9 hPa 0,0 l/m 2,4 km/h (1 Bft) SW 227 0 min 0,000 mm 0,0 UV-I 0 W/m 0,9 C 1,3 C 4,8 km/h (1 Bft) 97,87 %
05.12.2018 02:14 1,2 C 3,9 C -2,8 C 97 % 1026,9 hPa 0,0 l/m 1,1 km/h (1 Bft) SW 227 0 min 0,000 mm 0,0 UV-I 0 W/m 0,8 C 1,2 C 3,2 km/h (1 Bft) 100,00 %
05.12.2018 02:16 1,2 C 3,9 C -2,8 C 97 % 1026,9 hPa 0,0 l/m 0,1 km/h (0 Bft) SW 227 0 min 0,000 mm 0,0 UV-I 0 W/m 0,8 C 1,2 C 1,6 km/h (1 Bft) 95,74 %
05.12.2018 02:18 1,2 C 3,9 C -2,2 C 97 % 1026,9 hPa 0,0 l/m 0,0 km/h (0 Bft) SW 227 0 min 0,000 mm 0,0 UV-I 0 W/m 0,8 C 1,2 C 0,0 km/h (0 Bft) 96,00 %
05.12.2018 02:20 1,1 C 3,9 C -2,2 C 97 % 1026,9 hPa 0,0 l/m 0,7 km/h (0 Bft) SW 227 0 min 0,000 mm 0,0 UV-I 0 W/m 0,7 C 1,1 C 1,6 km/h (1 Bft) 100,00 %
05.12.2018 02:22 0,8 C 3,9 C -2,2 C 97 % 1026,9 hPa 0,0 l/m 1,7 km/h (1 Bft) SW 227 0 min 0,000 mm 0,0 UV-I 0 W/m 0,4 C 0,8 C 3,2 km/h (1 Bft) 95,74 %
05.12.2018 02:24 0,7 C 3,9 C -2,8 C 97 % 1026,9 hPa 0,0 l/m 2,2 km/h (1 Bft) SW 227 0 min 0,000 mm 0,0 UV-I 0 W/m 0,3 C 0,7 C 3,2 km/h (1 Bft) 95,74 %
05.12.2018 02:26 0,5 C 3,9 C -3,3 C 97 % 1026,9 hPa 0,0 l/m 1,7 km/h (1 Bft) SW 227 0 min 0,000 mm 0,0 UV-I 0 W/m 0,1 C 0,5 C 3,2 km/h (1 Bft) 95,74 %
05.12.2018 02:28 0,4 C 3,9 C -3,3 C 96 % 1026,9 hPa 0,0 l/m 0,6 km/h (0 Bft) SW 227 0 min 0,000 mm 0,0 UV-I 0 W/m -0,2 C 0,4 C 1,6 km/h (1 Bft) 95,74 %
05.12.2018 02:30 0,4 C 3,9 C -3,3 C 96 % 1026,8 hPa 0,0 l/m 0,0 km/h (0 Bft) SW 227 0 min 0,000 mm 0,0 UV-I 0 W/m -0,2 C 0,4 C 0,0 km/h (0 Bft) 94,00 %
05.12.2018 02:32 0,6 C 3,9 C -3,3 C 97 % 1026,8 hPa 0,0 l/m 0,0 km/h (0 Bft) SW 227 0 min 0,000 mm 0,0 UV-I 0 W/m 0,2 C 0,6 C 0,0 km/h (0 Bft) 94,00 %
05.12.2018 02:34 0,6 C 3,9 C -2,8 C 97 % 1026,9 hPa 0,0 l/m 1,2 km/h (1 Bft) SW 227 0 min 0,000 mm 0,0 UV-I 0 W/m 0,2 C 0,6 C 3,2 km/h (1 Bft) 89,36 %
05.12.2018 02:36 0,6 C 3,9 C -2,2 C 97 % 1026,9 hPa 0,0 l/m 2,9 km/h (1 Bft) SW 227 0 min 0,000 mm 0,0 UV-I 0 W/m 0,2 C 0,6 C 3,2 km/h (1 Bft) 95,74 %
05.12.2018 02:38 0,6 C 3,9 C -1,7 C 97 % 1026,9 hPa 0,0 l/m 3,4 km/h (1 Bft) SW 227 0 min 0,000 mm 0,0 UV-I 0 W/m 0,2 C 0,6 C 4,8 km/h (1 Bft) 93,62 %
05.12.2018 02:40 0,6 C 3,9 C -1,7 C 97 % 1027,0 hPa 0,0 l/m 3,7 km/h (1 Bft) SW 227 0 min 0,000 mm 0,0 UV-I 0 W/m 0,2 C 0,6 C 4,8 km/h (1 Bft) 95,74 %
05.12.2018 02:42 0,4 C 3,9 C -1,7 C 97 % 1027,0 hPa 0,0 l/m 3,6 km/h (1 Bft) SW 227 0 min 0,000 mm 0,0 UV-I 0 W/m -0,0 C 0,4 C 4,8 km/h (1 Bft) 95,74 %
05.12.2018 02:44 0,4 C 3,9 C -2,2 C 97 % 1027,0 hPa 0,0 l/m 3,2 km/h (1 Bft) SW 227 0 min 0,000 mm 0,0 UV-I 0 W/m -0,0 C 0,4 C 3,2 km/h (1 Bft) 95,74 %
05.12.2018 02:46 0,3 C 3,9 C -2,2 C 97 % 1027,0 hPa 0,0 l/m 3,5 km/h (1 Bft) SW 227 0 min 0,000 mm 0,0 UV-I 0 W/m -0,1 C 0,3 C 4,8 km/h (1 Bft) 93,62 %
05.12.2018 02:48 0,2 C 3,9 C -2,2 C 97 % 1027,0 hPa 0,0 l/m 3,6 km/h (1 Bft) SW 227 0 min 0,000 mm 0,0 UV-I 0 W/m -0,2 C 0,2 C 4,8 km/h (1 Bft) 95,74 %
05.12.2018 02:50 0,2 C 3,9 C -2,2 C 97 % 1027,0 hPa 0,0 l/m 3,7 km/h (1 Bft) SW 227 0 min 0,000 mm 0,0 UV-I 0 W/m -0,2 C 0,2 C 4,8 km/h (1 Bft) 93,62 %
05.12.2018 02:52 0,2 C 3,9 C -2,2 C 97 % 1027,0 hPa 0,0 l/m 3,1 km/h (1 Bft) SW 227 0 min 0,000 mm 0,0 UV-I 0 W/m -0,2 C 0,2 C 3,2 km/h (1 Bft) 93,62 %
05.12.2018 02:54 0,3 C 3,9 C -2,8 C 97 % 1027,0 hPa 0,0 l/m 2,4 km/h (1 Bft) SW 227 0 min 0,000 mm 0,0 UV-I 0 W/m -0,1 C 0,3 C 3,2 km/h (1 Bft) 94,87 %
05.12.2018 02:56 0,4 C 3,9 C -2,8 C 97 % 1027,1 hPa 0,0 l/m 3,1 km/h (1 Bft) SW 227 0 min 0,000 mm 0,0 UV-I 0 W/m -0,0 C 0,4 C 3,2 km/h (1 Bft) 93,62 %
05.12.2018 02:58 0,4 C 3,9 C -2,8 C 97 % 1027,1 hPa 0,0 l/m 1,9 km/h (1 Bft) SW 227 0 min 0,000 mm 0,0 UV-I 0 W/m -0,0 C 0,4 C 3,2 km/h (1 Bft) 94,00 %
05.12.2018 03:00 0,5 C 3,9 C -2,8 C 97 % 1027,1 hPa 0,0 l/m 1,7 km/h (1 Bft) SW 227 0 min 0,000 mm 0,0 UV-I 0 W/m 0,1 C 0,5 C 3,2 km/h (1 Bft) 96,00 %
05.12.2018 03:02 0,6 C 3,9 C -2,2 C 97 % 1027,1 hPa 0,0 l/m 1,6 km/h (1 Bft) SW 227 0 min 0,000 mm 0,0 UV-I 0 W/m 0,2 C 0,6 C 1,6 km/h (1 Bft) 95,12 %
05.12.2018 03:04 0,4 C 3,9 C -2,8 C 97 % 1027,0 hPa 0,0 l/m 1,6 km/h (1 Bft) SW 227 0 min 0,000 mm 0,0 UV-I 0 W/m -0,0 C 0,4 C 3,2 km/h (1 Bft) 95,74 %
05.12.2018 03:06 0,3 C 3,9 C -2,8 C 97 % 1027,0 hPa 0,0 l/m 1,8 km/h (1 Bft) SW 227 0 min 0,000 mm 0,0 UV-I 0 W/m -0,1 C 0,3 C 3,2 km/h (1 Bft) 94,00 %
05.12.2018 03:08 0,1 C 3,9 C -3,3 C 97 % 1027,1 hPa 0,0 l/m 1,6 km/h (1 Bft) SW 227 0 min 0,000 mm 0,0 UV-I 0 W/m -0,3 C 0,1 C 3,2 km/h (1 Bft) 94,00 %
05.12.2018 03:10 0,0 C 3,9 C -3,3 C 97 % 1027,1 hPa 0,0 l/m 1,8 km/h (1 Bft) SW 227 0 min 0,000 mm 0,0 UV-I 0 W/m -0,4 C 0,0 C 3,2 km/h (1 Bft) 94,00 %
05.12.2018 03:12 0,0 C 3,9 C -3,3 C 97 % 1027,1 hPa 0,0 l/m 2,9 km/h (1 Bft) SW 227 0 min 0,000 mm 0,0 UV-I 0 W/m -0,4 C 0,0 C 3,2 km/h (1 Bft) 94,29 %
05.12.2018 03:14 0,2 C 3,9 C -2,8 C 97 % 1027,1 hPa 0,0 l/m 3,4 km/h (1 Bft) SW 227 0 min 0,000 mm 0,0 UV-I 0 W/m -0,2 C 0,2 C 4,8 km/h (1 Bft) 98,00 %
05.12.2018 03:16 0,3 C 3,9 C -2,8 C 97 % 1027,2 hPa 0,0 l/m 2,8 km/h (1 Bft) SW 227 0 min 0,000 mm 0,0 UV-I 0 W/m -0,1 C 0,3 C 3,2 km/h (1 Bft) 91,49 %
05.12.2018 03:18 0,4 C 3,9 C -2,8 C 97 % 1027,2 hPa 0,0 l/m 3,2 km/h (1 Bft) SW 227 0 min 0,000 mm 0,0 UV-I 0 W/m -0,0 C 0,4 C 4,8 km/h (1 Bft) 93,62 %
05.12.2018 03:21 0,5 C 3,9 C -2,2 C 97 % 1027,2 hPa 0,0 l/m 4,2 km/h (1 Bft) SW 227 0 min 0,000 mm 0,0 UV-I 0 W/m 0,1 C 0,5 C 4,8 km/h (1 Bft) 92,96 %
05.12.2018 03:22 0,6 C 3,9 C -2,2 C 97 % 1027,2 hPa 0,0 l/m 4,8 km/h (1 Bft) SW 227 0 min 0,000 mm 0,0 UV-I 0 W/m 0,2 C 0,6 C 4,8 km/h (1 Bft) 91,30 %
05.12.2018 03:26 0,2 C 3,9 C -2,8 C 97 % 1027,2 hPa 0,0 l/m 4,5 km/h (1 Bft) SW 227 0 min 0,000 mm 0,0 UV-I 0 W/m -0,2 C 0,2 C 6,4 km/h (2 Bft) 93,62 %
05.12.2018 03:28 0,1 C 3,9 C -2,8 C 97 % 1027,3 hPa 0,0 l/m 4,0 km/h (1 Bft) SW 227 0 min 0,000 mm 0,0 UV-I 0 W/m -0,3 C 0,1 C 4,8 km/h (1 Bft) 94,00 %
05.12.2018 03:30 0,0 C 3,9 C -2,8 C 97 % 1027,3 hPa 0,0 l/m 3,3 km/h (1 Bft) SW 227 0 min 0,000 mm 0,0 UV-I 0 W/m -0,4 C 0,0 C 4,8 km/h (1 Bft) 95,74 %
05.12.2018 03:32 0,1 C 3,9 C -2,8 C 97 % 1027,4 hPa 0,0 l/m 3,2 km/h (1 Bft) SW 227 0 min 0,000 mm 0,0 UV-I 0 W/m -0,3 C 0,1 C 4,8 km/h (1 Bft) 95,74 %
05.12.2018 03:35 0,1 C 3,9 C -3,3 C 97 % 1027,3 hPa 0,0 l/m 3,5 km/h (1 Bft) SW 227 0 min 0,000 mm 0,0 UV-I 0 W/m -0,3 C 0,1 C 4,8 km/h (1 Bft) 98,59 %
05.12.2018 03:36 0,2 C 3,9 C -3,3 C 97 % 1027,3 hPa 0,0 l/m 2,7 km/h (1 Bft) SW 227 0 min 0,000 mm 0,0 UV-I 0 W/m -0,2 C 0,2 C 3,2 km/h (1 Bft) 100,00 %
05.12.2018 03:38 0,2 C 3,9 C -3,3 C 97 % 1027,3 hPa 0,0 l/m 2,5 km/h (1 Bft) SW 227 0 min 0,000 mm 0,0 UV-I 0 W/m -0,2 C 0,2 C 3,2 km/h (1 Bft) 98,00 %
05.12.2018 03:40 0,2 C 3,9 C -2,8 C 97 % 1027,3 hPa 0,0 l/m 3,6 km/h (1 Bft) SW 227 0 min 0,000 mm 0,0 UV-I 0 W/m -0,2 C 0,2 C 4,8 km/h (1 Bft) 100,00 %
05.12.2018 03:42 0,0 C 3,9 C -2,8 C 97 % 1027,3 hPa 0,0 l/m 3,6 km/h (1 Bft) SW 227 0 min 0,000 mm 0,0 UV-I 0 W/m -0,4 C 0,0 C 4,8 km/h (1 Bft) 100,00 %
05.12.2018 03:44 -0,1 C 3,9 C -2,8 C 97 % 1027,2 hPa 0,0 l/m 3,6 km/h (1 Bft) SW 227 0 min 0,000 mm 0,0 UV-I 0 W/m -0,5 C -0,1 C 4,8 km/h (1 Bft) 97,87 %
05.12.2018 03:46 -0,2 C 3,9 C -3,3 C 97 % 1027,2 hPa 0,0 l/m 3,0 km/h (1 Bft) SW 227 0 min 0,000 mm 0,0 UV-I 0 W/m -0,6 C -0,2 C 3,2 km/h (1 Bft) 96,00 %
05.12.2018 03:48 0,0 C 3,9 C -3,9 C 97 % 1027,2 hPa 0,0 l/m 2,2 km/h (1 Bft) SW 227 0 min 0,000 mm 0,0 UV-I 0 W/m -0,4 C 0,0 C 3,2 km/h (1 Bft) 100,00 %
05.12.2018 03:50 0,2 C 3,9 C -4,4 C 97 % 1027,2 hPa 0,0 l/m 1,0 km/h (0 Bft) SW 227 0 min 0,000 mm 0,0 UV-I 0 W/m -0,2 C 0,2 C 1,6 km/h (1 Bft) 100,00 %
05.12.2018 03:52 0,3 C 3,9 C -4,4 C 97 % 1027,2 hPa 0,0 l/m 0,0 km/h (0 Bft) SW 227 0 min 0,000 mm 0,0 UV-I 0 W/m -0,1 C 0,3 C 1,6 km/h (1 Bft) 100,00 %
05.12.2018 03:54 0,6 C 3,9 C -4,4 C 97 % 1027,2 hPa 0,0 l/m 0,1 km/h (0 Bft) SW 227 0 min 0,000 mm 0,0 UV-I 0 W/m 0,2 C 0,6 C 1,6 km/h (1 Bft) 98,00 %
05.12.2018 03:56 0,4 C 3,9 C -3,9 C 97 % 1027,2 hPa 0,0 l/m 0,1 km/h (0 Bft) SW 227 0 min 0,000 mm 0,0 UV-I 0 W/m -0,0 C 0,4 C 1,6 km/h (1 Bft) 97,87 %
05.12.2018 03:58 0,2 C 3,9 C -3,9 C 97 % 1027,2 hPa 0,0 l/m 1,0 km/h (0 Bft) SW 227 0 min 0,000 mm 0,0 UV-I 0 W/m -0,2 C 0,2 C 3,2 km/h (1 Bft) 100,00 %
05.12.2018 04:00 0,1 C 3,9 C -3,9 C 97 % 1027,2 hPa 0,0 l/m 2,7 km/h (1 Bft) SW 227 0 min 0,000 mm 0,0 UV-I 0 W/m -0,3 C 0,1 C 3,2 km/h (1 Bft) 100,00 %
05.12.2018 04:02 0,1 C 3,9 C -3,9 C 97 % 1027,2 hPa 0,0 l/m 2,7 km/h (1 Bft) SW 227 0 min 0,000 mm 0,0 UV-I 0 W/m -0,3 C 0,1 C 3,2 km/h (1 Bft) 100,00 %
05.12.2018 04:04 0,1 C 3,9 C -3,3 C 97 % 1027,2 hPa 0,0 l/m 3,0 km/h (1 Bft) SW 226 0 min 0,000 mm 0,0 UV-I 0 W/m -0,3 C 0,1 C 4,8 km/h (1 Bft) 100,00 %
05.12.2018 04:06 0,2 C 3,9 C -3,3 C 97 % 1027,2 hPa 0,0 l/m 3,1 km/h (1 Bft) SW 225 0 min 0,000 mm 0,0 UV-I 0 W/m -0,2 C 0,2 C 3,2 km/h (1 Bft) 97,37 %
05.12.2018 04:08 0,8 C 3,9 C -3,9 C 97 % 1027,2 hPa 0,0 l/m 2,4 km/h (1 Bft) SW 226 0 min 0,000 mm 0,0 UV-I 0 W/m 0,4 C 0,8 C 3,2 km/h (1 Bft) 100,00 %
05.12.2018 04:10 0,7 C 3,9 C -3,3 C 97 % 1027,3 hPa 0,0 l/m 2,5 km/h (1 Bft) SW 226 0 min 0,000 mm 0,0 UV-I 0 W/m 0,3 C 0,7 C 3,2 km/h (1 Bft) 100,00 %
05.12.2018 04:12 0,7 C 3,9 C -3,9 C 97 % 1027,3 hPa 0,0 l/m 2,1 km/h (1 Bft) SW 226 0 min 0,000 mm 0,0 UV-I 0 W/m 0,3 C 0,7 C 3,2 km/h (1 Bft) 100,00 %
05.12.2018 04:15 0,4 C 3,9 C -3,3 C 97 % 1027,2 hPa 0,0 l/m 1,5 km/h (1 Bft) SW 227 0 min 0,000 mm 0,0 UV-I 0 W/m -0,0 C 0,4 C 3,2 km/h (1 Bft) 100,00 %
05.12.2018 04:16 0,3 C 3,9 C -3,3 C 97 % 1027,2 hPa 0,0 l/m 3,2 km/h (1 Bft) SW 227 0 min 0,000 mm 0,0 UV-I 0 W/m -0,1 C 0,3 C 4,8 km/h (1 Bft) 100,00 %
05.12.2018 04:18 0,1 C 3,9 C -3,3 C 97 % 1027,2 hPa 0,0 l/m 3,9 km/h (1 Bft) SW 227 0 min 0,000 mm 0,0 UV-I 0 W/m -0,3 C 0,1 C 4,8 km/h (1 Bft) 98,00 %
05.12.2018 04:20 0,0 C 3,9 C -2,8 C 97 % 1027,2 hPa 0,0 l/m 4,3 km/h (1 Bft) NO 53 0 min 0,000 mm 0,0 UV-I 0 W/m -0,4 C 0,0 C 4,8 km/h (1 Bft) 100,00 %
05.12.2018 04:22 0,2 C 3,9 C -2,8 C 97 % 1027,2 hPa 0,0 l/m 3,8 km/h (1 Bft) NO 53 0 min 0,000 mm 0,0 UV-I 0 W/m -0,2 C 0,2 C 4,8 km/h (1 Bft) 100,00 %
05.12.2018 04:25 0,8 C 3,9 C -2,2 C 97 % 1027,2 hPa 0,0 l/m 4,5 km/h (1 Bft) O 82 0 min 0,000 mm 0,0 UV-I 0 W/m 0,4 C 0,8 C 6,4 km/h (2 Bft) 97,37 %
05.12.2018 04:26 0,9 C 3,9 C -2,2 C 97 % 1027,2 hPa 0,0 l/m 4,5 km/h (1 Bft) O 82 0 min 0,000 mm 0,0 UV-I 0 W/m 0,5 C 0,9 C 4,8 km/h (1 Bft) 100,00 %
05.12.2018 04:28 0,9 C 3,9 C -2,8 C 97 % 1027,2 hPa 0,0 l/m 4,0 km/h (1 Bft) O 82 0 min 0,000 mm 0,0 UV-I 0 W/m 0,5 C 0,9 C 6,4 km/h (2 Bft) 95,74 %
05.12.2018 04:30 0,9 C 3,9 C -2,8 C 98 % 1027,3 hPa 0,0 l/m 3,0 km/h (1 Bft) O 82 0 min 0,000 mm 0,0 UV-I 0 W/m 0,6 C 0,9 C 4,8 km/h (1 Bft) 97,87 %
05.12.2018 04:32 0,9 C 3,9 C -2,8 C 98 % 1027,3 hPa 0,0 l/m 3,7 km/h (1 Bft) O 82 0 min 0,000 mm 0,0 UV-I 0 W/m 0,6 C 0,9 C 6,4 km/h (2 Bft) 96,00 %
05.12.2018 04:34 0,8 C 3,9 C -2,2 C 98 % 1027,3 hPa 0,0 l/m 3,0 km/h (1 Bft) O 92 0 min 0,000 mm 0,0 UV-I 0 W/m 0,5 C 0,8 C 6,4 km/h (2 Bft) 89,36 %
05.12.2018 04:36 0,5 C 3,9 C -1,7 C 97 % 1027,3 hPa 0,0 l/m 1,9 km/h (1 Bft) S-SW 200 0 min 0,000 mm 0,0 UV-I 0 W/m 0,1 C 0,5 C 4,8 km/h (1 Bft) 97,87 %
05.12.2018 04:38 0,1 C 3,9 C -1,1 C 97 % 1027,3 hPa 0,0 l/m 3,8 km/h (1 Bft) S-SW 200 0 min 0,000 mm 0,0 UV-I 0 W/m -0,3 C 0,1 C 4,8 km/h (1 Bft) 96,00 %
05.12.2018 04:40 -0,2 C 3,9 C -1,1 C 97 % 1027,3 hPa 0,0 l/m 1,4 km/h (1 Bft) S-SW 200 0 min 0,000 mm 0,0 UV-I 0 W/m -0,6 C -0,2 C 3,2 km/h (1 Bft) 97,87 %
05.12.2018 04:42 -0,2 C 3,9 C -1,1 C 97 % 1027,3 hPa 0,0 l/m 1,1 km/h (1 Bft) S-SW 200 0 min 0,000 mm 0,0 UV-I 0 W/m -0,6 C -0,2 C 3,2 km/h (1 Bft) 95,74 %
05.12.2018 04:44 -0,2 C 3,9 C -1,1 C 97 % 1027,2 hPa 0,0 l/m 2,2 km/h (1 Bft) S-SW 200 0 min 0,000 mm 0,0 UV-I 0 W/m -0,6 C -0,2 C 3,2 km/h (1 Bft) 100,00 %
05.12.2018 04:46 -0,2 C 3,9 C -1,1 C 97 % 1027,2 hPa 0,0 l/m 4,2 km/h (1 Bft) NO 35 0 min 0,000 mm 0,0 UV-I 0 W/m -0,6 C -0,2 C 6,4 km/h (2 Bft) 97,87 %
05.12.2018 04:48 -0,1 C 3,9 C -1,1 C 97 % 1027,3 hPa 0,0 l/m 5,7 km/h (1 Bft) O-NO 67 0 min 0,000 mm 0,0 UV-I 0 W/m -0,5 C -0,1 C 8,0 km/h (2 Bft) 97,44 %
05.12.2018 04:50 0,2 C 3,9 C -0,6 C 97 % 1027,3 hPa 0,0 l/m 4,8 km/h (1 Bft) O-NO 73 0 min 0,000 mm 0,0 UV-I 0 W/m -0,2 C 0,2 C 8,0 km/h (2 Bft) 100,00 %
05.12.2018 04:52 0,3 C 3,9 C -0,6 C 97 % 1027,4 hPa 0,0 l/m 4,1 km/h (1 Bft) O-NO 73 0 min 0,000 mm 0,0 UV-I 0 W/m -0,1 C 0,3 C 6,4 km/h (2 Bft) 98,00 %
05.12.2018 04:54 0,2 C 3,9 C -0,6 C 97 % 1027,4 hPa 0,0 l/m 4,1 km/h (1 Bft) O-NO 73 0 min 0,000 mm 0,0 UV-I 0 W/m -0,2 C 0,2 C 6,4 km/h (2 Bft) 100,00 %
05.12.2018 04:56 0,1 C 3,9 C -0,6 C 97 % 1027,4 hPa 0,0 l/m 4,8 km/h (1 Bft) O-NO 57 0 min 0,000 mm 0,0 UV-I 0 W/m -0,3 C 0,1 C 6,4 km/h (2 Bft) 100,00 %
05.12.2018 04:58 0,1 C 3,9 C 0,0 C 97 % 1027,4 hPa 0,0 l/m 4,1 km/h (1 Bft) O-NO 57 0 min 0,000 mm 0,0 UV-I 0 W/m -0,3 C 0,1 C 4,8 km/h (1 Bft) 100,00 %
05.12.2018 05:00 0,1 C 3,9 C 0,0 C 97 % 1027,5 hPa 0,0 l/m 4,4 km/h (1 Bft) O-NO 57 0 min 0,000 mm 0,0 UV-I 0 W/m -0,3 C 0,1 C 6,4 km/h (2 Bft) 97,87 %
05.12.2018 05:02 0,2 C 3,9 C 0,0 C 97 % 1027,5 hPa 0,0 l/m 4,0 km/h (1 Bft) O-NO 57 0 min 0,000 mm 0,0 UV-I 0 W/m -0,2 C 0,2 C 4,8 km/h (1 Bft) 95,74 %
05.12.2018 05:04 0,2 C 3,9 C 0,0 C 97 % 1027,5 hPa 0,0 l/m 3,7 km/h (1 Bft) O-NO 57 0 min 0,000 mm 0,0 UV-I 0 W/m -0,2 C 0,2 C 6,4 km/h (2 Bft) 97,87 %
05.12.2018 05:06 0,2 C 3,9 C 0,0 C 97 % 1027,5 hPa 0,0 l/m 3,5 km/h (1 Bft) O-NO 57 0 min 0,000 mm 0,0 UV-I 0 W/m -0,2 C 0,2 C 4,8 km/h (1 Bft) 97,87 %
05.12.2018 05:08 0,2 C 3,9 C 0,0 C 97 % 1027,5 hPa 0,0 l/m 3,7 km/h (1 Bft) O-NO 57 0 min 0,000 mm 0,0 UV-I 0 W/m -0,2 C 0,2 C 4,8 km/h (1 Bft) 95,74 %
05.12.2018 05:10 0,2 C 3,9 C 0,0 C 97 % 1027,6 hPa 0,0 l/m 2,7 km/h (1 Bft) O-NO 57 0 min 0,000 mm 0,0 UV-I 0 W/m -0,2 C 0,2 C 4,8 km/h (1 Bft) 96,00 %
05.12.2018 05:12 0,2 C 3,9 C 0,0 C 97 % 1027,6 hPa 0,0 l/m 2,7 km/h (1 Bft) O-NO 57 0 min 0,000 mm 0,0 UV-I 0 W/m -0,2 C 0,2 C 3,2 km/h (1 Bft) 97,87 %
05.12.2018 05:15 0,3 C 3,9 C 0,0 C 97 % 1027,6 hPa 0,0 l/m 1,1 km/h (1 Bft) O-NO 57 0 min 0,000 mm 0,0 UV-I 0 W/m -0,1 C 0,3 C 3,2 km/h (1 Bft) 98,65 %
05.12.2018 05:16 0,3 C 3,9 C 0,0 C 97 % 1027,6 hPa 0,0 l/m 1,1 km/h (1 Bft) O-NO 57 0 min 0,000 mm 0,0 UV-I 0 W/m -0,1 C 0,3 C 3,2 km/h (1 Bft) 95,65 %
05.12.2018 05:18 0,3 C 3,9 C 0,0 C 98 % 1027,7 hPa 0,0 l/m 2,2 km/h (1 Bft) O-NO 57 0 min 0,000 mm 0,0 UV-I 0 W/m 0,0 C 0,3 C 3,2 km/h (1 Bft) 97,87 %
05.12.2018 05:20 0,3 C 3,9 C 0,0 C 98 % 1027,7 hPa 0,0 l/m 1,4 km/h (1 Bft) O-NO 57 0 min 0,000 mm 0,0 UV-I 0 W/m 0,0 C 0,3 C 3,2 km/h (1 Bft) 96,00 %
05.12.2018 05:22 0,3 C 3,9 C 0,0 C 98 % 1027,6 hPa 0,0 l/m 1,6 km/h (1 Bft) O-NO 57 0 min 0,000 mm 0,0 UV-I 0 W/m 0,0 C 0,3 C 3,2 km/h (1 Bft) 94,29 %
05.12.2018 05:24 0,3 C 3,9 C 0,0 C 98 % 1027,6 hPa 0,0 l/m 1,5 km/h (1 Bft) O-NO 57 0 min 0,000 mm 0,0 UV-I 0 W/m 0,0 C 0,3 C 3,2 km/h (1 Bft) 95,83 %
05.12.2018 05:26 0,3 C 3,9 C 0,0 C 98 % 1027,6 hPa 0,0 l/m 1,9 km/h (1 Bft) O-NO 57 0 min 0,000 mm 0,0 UV-I 0 W/m 0,0 C 0,3 C 3,2 km/h (1 Bft) 98,04 %
05.12.2018 05:28 0,3 C 3,9 C 0,0 C 98 % 1027,6 hPa 0,0 l/m 2,5 km/h (1 Bft) O-NO 57 0 min 0,000 mm 0,0 UV-I 0 W/m 0,0 C 0,3 C 3,2 km/h (1 Bft) 97,22 %
05.12.2018 05:30 0,3 C 3,9 C 0,0 C 98 % 1027,6 hPa 0,0 l/m 3,3 km/h (1 Bft) O-NO 57 0 min 0,000 mm 0,0 UV-I 0 W/m 0,0 C 0,3 C 4,8 km/h (1 Bft) 96,77 %
05.12.2018 05:32 0,3 C 3,9 C 0,0 C 98 % 1027,6 hPa 0,0 l/m 3,7 km/h (1 Bft) O-NO 57 0 min 0,000 mm 0,0 UV-I 0 W/m 0,0 C 0,3 C 4,8 km/h (1 Bft) 97,37 %
05.12.2018 05:34 0,4 C 3,9 C 0,0 C 98 % 1027,7 hPa 0,0 l/m 3,0 km/h (1 Bft) O-NO 57 0 min 0,000 mm 0,0 UV-I 0 W/m 0,1 C 0,4 C 4,8 km/h (1 Bft) 97,87 %
05.12.2018 05:36 0,4 C 3,9 C 0,0 C 98 % 1027,7 hPa 0,0 l/m 2,2 km/h (1 Bft) O-NO 57 0 min 0,000 mm 0,0 UV-I 0 W/m 0,1 C 0,4 C 3,2 km/h (1 Bft) 95,92 %
05.12.2018 05:38 0,4 C 3,9 C 0,0 C 97 % 1027,7 hPa 0,0 l/m 2,2 km/h (1 Bft) O-NO 57 0 min 0,000 mm 0,0 UV-I 0 W/m -0,0 C 0,4 C 3,2 km/h (1 Bft) 96,00 %
05.12.2018 05:40 0,5 C 3,9 C 0,0 C 97 % 1027,7 hPa 0,0 l/m 2,3 km/h (1 Bft) O-NO 57 0 min 0,000 mm 0,0 UV-I 0 W/m 0,1 C 0,5 C 3,2 km/h (1 Bft) 96,00 %
05.12.2018 05:42 0,5 C 3,9 C 0,0 C 97 % 1027,7 hPa 0,0 l/m 2,1 km/h (1 Bft) O-NO 57 0 min 0,000 mm 0,0 UV-I 0 W/m 0,1 C 0,5 C 3,2 km/h (1 Bft) 93,62 %
05.12.2018 05:44 0,5 C 3,9 C 0,0 C 97 % 1027,8 hPa 0,0 l/m 2,6 km/h (1 Bft) O-NO 57 0 min 0,000 mm 0,0 UV-I 0 W/m 0,1 C 0,5 C 3,2 km/h (1 Bft) 93,62 %
05.12.2018 05:46 0,4 C 3,9 C 0,0 C 97 % 1027,8 hPa 0,0 l/m 2,6 km/h (1 Bft) O-NO 57 0 min 0,000 mm 0,0 UV-I 0 W/m -0,0 C 0,4 C 3,2 km/h (1 Bft) 90,24 %
05.12.2018 05:48 0,4 C 3,9 C 0,0 C 98 % 1027,8 hPa 0,0 l/m 2,6 km/h (1 Bft) O-NO 57 0 min 0,000 mm 0,0 UV-I 0 W/m 0,1 C 0,4 C 3,2 km/h (1 Bft) 97,87 %
05.12.2018 05:50 0,3 C 3,9 C 0,0 C 98 % 1027,7 hPa 0,0 l/m 3,8 km/h (1 Bft) O-NO 57 0 min 0,000 mm 0,0 UV-I 0 W/m 0,0 C 0,3 C 4,8 km/h (1 Bft) 97,87 %
05.12.2018 05:52 0,3 C 3,9 C 0,0 C 98 % 1027,8 hPa 0,0 l/m 4,6 km/h (1 Bft) O-NO 57 0 min 0,000 mm 0,0 UV-I 0 W/m 0,0 C 0,3 C 6,4 km/h (2 Bft) 95,74 %
05.12.2018 05:54 0,4 C 3,9 C 0,0 C 98 % 1027,7 hPa 0,0 l/m 4,3 km/h (1 Bft) O-NO 57 0 min 0,000 mm 0,0 UV-I 0 W/m 0,1 C 0,4 C 6,4 km/h (2 Bft) 94,34 %
05.12.2018 05:56 0,4 C 3,9 C 0,0 C 98 % 1027,7 hPa 0,0 l/m 3,8 km/h (1 Bft) O-NO 57 0 min 0,000 mm 0,0 UV-I 0 W/m 0,1 C 0,4 C 4,8 km/h (1 Bft) 97,87 %
05.12.2018 05:58 0,4 C 3,9 C 0,0 C 98 % 1027,7 hPa 0,0 l/m 3,4 km/h (1 Bft) O-NO 57 0 min 0,000 mm 0,0 UV-I 0 W/m 0,1 C 0,4 C 4,8 km/h (1 Bft) 100,00 %
05.12.2018 06:00 0,4 C 3,9 C 0,0 C 98 % 1027,8 hPa 0,0 l/m 4,0 km/h (1 Bft) O-NO 57 0 min 0,000 mm 0,0 UV-I 0 W/m 0,1 C 0,4 C 6,4 km/h (2 Bft) 100,00 %
05.12.2018 06:02 0,4 C 3,9 C 0,0 C 98 % 1027,8 hPa 0,0 l/m 3,8 km/h (1 Bft) O-NO 57 0 min 0,000 mm 0,0 UV-I 0 W/m 0,1 C 0,4 C 6,4 km/h (2 Bft) 98,11 %
05.12.2018 06:04 0,4 C 3,9 C 0,0 C 98 % 1027,7 hPa 0,0 l/m 4,0 km/h (1 Bft) O-NO 57 0 min 0,000 mm 0,0 UV-I 0 W/m 0,1 C 0,4 C 6,4 km/h (2 Bft) 96,00 %
05.12.2018 06:06 0,4 C 3,9 C 0,0 C 98 % 1027,7 hPa 0,0 l/m 3,5 km/h (1 Bft) O-NO 57 0 min 0,000 mm 0,0 UV-I 0 W/m 0,1 C 0,4 C 4,8 km/h (1 Bft) 100,00 %
05.12.2018 06:08 0,4 C 3,9 C 0,0 C 98 % 1027,7 hPa 0,0 l/m 3,2 km/h (1 Bft) O-NO 57 0 min 0,000 mm 0,0 UV-I 0 W/m 0,1 C 0,4 C 4,8 km/h (1 Bft) 97,87 %
05.12.2018 06:10 0,4 C 3,9 C 0,0 C 98 % 1027,7 hPa 0,0 l/m 3,0 km/h (1 Bft) O-NO 57 0 min 0,000 mm 0,0 UV-I 0 W/m 0,1 C 0,4 C 4,8 km/h (1 Bft) 100,00 %
05.12.2018 06:12 0,4 C 3,9 C 0,0 C 98 % 1027,7 hPa 0,0 l/m 3,2 km/h (1 Bft) O-NO 57 0 min 0,000 mm 0,0 UV-I 0 W/m 0,1 C 0,4 C 4,8 km/h (1 Bft) 100,00 %
05.12.2018 06:14 0,4 C 3,9 C 0,0 C 98 % 1027,7 hPa 0,0 l/m 3,5 km/h (1 Bft) O-NO 57 0 min 0,000 mm 0,0 UV-I 0 W/m 0,1 C 0,4 C 4,8 km/h (1 Bft) 97,87 %
05.12.2018 06:16 0,4 C 3,9 C 0,0 C 98 % 1027,7 hPa 0,0 l/m 2,9 km/h (1 Bft) O-NO 57 0 min 0,000 mm 0,0 UV-I 0 W/m 0,1 C 0,4 C 4,8 km/h (1 Bft) 100,00 %
05.12.2018 06:18 0,4 C 3,9 C 0,0 C 98 % 1027,7 hPa 0,0 l/m 2,3 km/h (1 Bft) O-NO 57 0 min 0,000 mm 0,0 UV-I 0 W/m 0,1 C 0,4 C 3,2 km/h (1 Bft) 100,00 %
05.12.2018 06:20 0,4 C 3,9 C 0,0 C 98 % 1027,7 hPa 0,0 l/m 1,8 km/h (1 Bft) O-NO 57 0 min 0,000 mm 0,0 UV-I 0 W/m 0,1 C 0,4 C 3,2 km/h (1 Bft) 97,87 %
05.12.2018 06:22 0,4 C 3,9 C 0,0 C 98 % 1027,7 hPa 0,0 l/m 2,7 km/h (1 Bft) O-NO 57 0 min 0,000 mm 0,0 UV-I 0 W/m 0,1 C 0,4 C 4,8 km/h (1 Bft) 100,00 %
05.12.2018 06:24 0,4 C 3,9 C 0,0 C 98 % 1027,7 hPa 0,0 l/m 2,8 km/h (1 Bft) O-NO 58 0 min 0,000 mm 0,0 UV-I 0 W/m 0,1 C 0,4 C 4,8 km/h (1 Bft) 95,74 %
05.12.2018 06:26 0,6 C 3,9 C 0,0 C 98 % 1027,7 hPa 0,0 l/m 3,2 km/h (1 Bft) O-NO 59 0 min 0,000 mm 0,0 UV-I 0 W/m 0,3 C 0,6 C 4,8 km/h (1 Bft) 98,11 %
05.12.2018 06:28 0,6 C 3,9 C 0,0 C 98 % 1027,7 hPa 0,0 l/m 3,1 km/h (1 Bft) O-NO 59 0 min 0,000 mm 0,0 UV-I 0 W/m 0,3 C 0,6 C 4,8 km/h (1 Bft) 100,00 %
05.12.2018 06:30 0,5 C 3,9 C 0,0 C 98 % 1027,7 hPa 0,0 l/m 3,2 km/h (1 Bft) O-NO 59 0 min 0,000 mm 0,0 UV-I 0 W/m 0,2 C 0,5 C 4,8 km/h (1 Bft) 97,37 %
05.12.2018 06:32 0,5 C 3,9 C 0,0 C 98 % 1027,8 hPa 0,0 l/m 3,4 km/h (1 Bft) O-NO 59 0 min 0,000 mm 0,0 UV-I 0 W/m 0,2 C 0,5 C 4,8 km/h (1 Bft) 95,74 %
05.12.2018 06:34 0,5 C 3,9 C 0,0 C 98 % 1027,8 hPa 0,0 l/m 4,9 km/h (1 Bft) O-NO 59 0 min 0,000 mm 0,0 UV-I 0 W/m 0,2 C 0,5 C 6,4 km/h (2 Bft) 97,87 %
05.12.2018 06:36 0,5 C 3,9 C 0,0 C 98 % 1027,8 hPa 0,0 l/m 3,7 km/h (1 Bft) O-NO 59 0 min 0,000 mm 0,0 UV-I 0 W/m 0,2 C 0,5 C 4,8 km/h (1 Bft) 100,00 %
05.12.2018 06:38 0,6 C 3,9 C 0,0 C 98 % 1027,9 hPa 0,0 l/m 2,9 km/h (1 Bft) O-NO 59 0 min 0,000 mm 0,0 UV-I 0 W/m 0,3 C 0,6 C 4,8 km/h (1 Bft) 95,74 %
05.12.2018 06:40 0,5 C 3,9 C 0,0 C 98 % 1027,9 hPa 0,0 l/m 2,0 km/h (1 Bft) O-NO 59 0 min 0,000 mm 0,0 UV-I 0 W/m 0,2 C 0,5 C 3,2 km/h (1 Bft) 95,74 %
05.12.2018 06:42 0,4 C 3,9 C 0,0 C 98 % 1027,9 hPa 0,0 l/m 2,4 km/h (1 Bft) O-NO 59 0 min 0,000 mm 0,0 UV-I 0 W/m 0,1 C 0,4 C 3,2 km/h (1 Bft) 93,62 %
05.12.2018 06:44 0,4 C 3,9 C 0,0 C 98 % 1027,9 hPa 0,0 l/m 2,2 km/h (1 Bft) O-NO 59 0 min 0,000 mm 0,0 UV-I 0 W/m 0,1 C 0,4 C 3,2 km/h (1 Bft) 98,00 %
05.12.2018 06:46 0,4 C 3,9 C 0,0 C 98 % 1027,8 hPa 0,0 l/m 2,1 km/h (1 Bft) O-NO 59 0 min 0,000 mm 0,0 UV-I 0 W/m 0,1 C 0,4 C 3,2 km/h (1 Bft) 95,74 %
05.12.2018 06:48 0,4 C 3,9 C 0,0 C 98 % 1027,9 hPa 0,0 l/m 0,8 km/h (0 Bft) O-NO 59 0 min 0,000 mm 0,0 UV-I 0 W/m 0,1 C 0,4 C 3,2 km/h (1 Bft) 97,92 %
05.12.2018 06:50 0,4 C 3,9 C 0,0 C 98 % 1027,9 hPa 0,0 l/m 1,6 km/h (1 Bft) O-NO 59 0 min 0,000 mm 0,0 UV-I 0 W/m 0,1 C 0,4 C 3,2 km/h (1 Bft) 97,14 %
05.12.2018 06:52 0,4 C 3,9 C 0,0 C 98 % 1028,0 hPa 0,0 l/m 2,3 km/h (1 Bft) O-NO 59 0 min 0,000 mm 0,0 UV-I 0 W/m 0,1 C 0,4 C 3,2 km/h (1 Bft) 92,16 %
05.12.2018 06:54 0,4 C 3,9 C 0,0 C 98 % 1028,0 hPa 0,0 l/m 2,5 km/h (1 Bft) O-NO 59 0 min 0,000 mm 0,0 UV-I 0 W/m 0,1 C 0,4 C 4,8 km/h (1 Bft) 95,74 %
05.12.2018 06:56 0,4 C 3,9 C -0,6 C 98 % 1028,1 hPa 0,0 l/m 2,9 km/h (1 Bft) O-NO 59 0 min 0,000 mm 0,0 UV-I 0 W/m 0,1 C 0,4 C 4,8 km/h (1 Bft) 95,74 %
05.12.2018 06:58 0,4 C 3,9 C -0,6 C 98 % 1028,1 hPa 0,0 l/m 3,9 km/h (1 Bft) O-NO 59 0 min 0,000 mm 0,0 UV-I 0 W/m 0,1 C 0,4 C 6,4 km/h (2 Bft) 96,00 %
05.12.2018 07:00 0,4 C 3,9 C 0,0 C 98 % 1028,1 hPa 0,0 l/m 4,0 km/h (1 Bft) O-NO 59 0 min 0,000 mm 0,0 UV-I 0 W/m 0,1 C 0,4 C 4,8 km/h (1 Bft) 91,49 %
05.12.2018 07:02 0,5 C 3,9 C 0,0 C 98 % 1028,1 hPa 0,0 l/m 5,4 km/h (1 Bft) O-NO 61 0 min 0,000 mm 0,0 UV-I 0 W/m 0,2 C 0,5 C 6,4 km/h (2 Bft) 96,00 %
05.12.2018 07:04 0,5 C 3,9 C -0,6 C 98 % 1028,2 hPa 0,0 l/m 5,2 km/h (1 Bft) O-NO 66 0 min 0,000 mm 0,0 UV-I 0 W/m 0,2 C 0,5 C 8,0 km/h (2 Bft) 93,62 %
05.12.2018 07:06 0,4 C 3,9 C -0,6 C 98 % 1028,3 hPa 0,0 l/m 4,3 km/h (1 Bft) O-NO 65 0 min 0,000 mm 0,0 UV-I 0 W/m 0,1 C 0,4 C 6,4 km/h (2 Bft) 95,74 %
05.12.2018 07:08 0,4 C 3,9 C -0,6 C 98 % 1028,3 hPa 0,0 l/m 3,5 km/h (1 Bft) O-NO 65 0 min 0,000 mm 0,0 UV-I 0 W/m 0,1 C 0,4 C 6,4 km/h (2 Bft) 93,62 %
05.12.2018 07:10 0,3 C 3,9 C -0,6 C 98 % 1028,2 hPa 0,0 l/m 3,1 km/h (1 Bft) O-NO 65 0 min 0,000 mm 0,0 UV-I 0 W/m 0,0 C 0,3 C 4,8 km/h (1 Bft) 95,74 %
05.12.2018 07:12 0,2 C 3,9 C -1,1 C 98 % 1028,2 hPa 0,0 l/m 2,4 km/h (1 Bft) O-NO 65 0 min 0,000 mm 0,0 UV-I 0 W/m -0,1 C 0,2 C 4,8 km/h (1 Bft) 95,74 %
05.12.2018 07:14 0,2 C 3,9 C -1,1 C 98 % 1028,3 hPa 0,0 l/m 2,9 km/h (1 Bft) O-NO 65 0 min 0,000 mm 0,0 UV-I 0 W/m -0,1 C 0,2 C 4,8 km/h (1 Bft) 97,87 %
05.12.2018 07:16 0,1 C 3,9 C -1,1 C 98 % 1028,3 hPa 0,0 l/m 3,0 km/h (1 Bft) O-NO 65 0 min 0,000 mm 0,0 UV-I 0 W/m -0,2 C 0,1 C 4,8 km/h (1 Bft) 93,62 %
05.12.2018 07:18 -0,1 C 3,9 C -1,1 C 98 % 1028,3 hPa 0,0 l/m 3,4 km/h (1 Bft) O-NO 65 0 min 0,000 mm 0,0 UV-I 0 W/m -0,4 C -0,1 C 4,8 km/h (1 Bft) 94,74 %
05.12.2018 07:20 -0,1 C 3,9 C -1,1 C 98 % 1028,3 hPa 0,0 l/m 4,0 km/h (1 Bft) O-NO 65 0 min 0,000 mm 0,0 UV-I 0 W/m -0,4 C -0,1 C 4,8 km/h (1 Bft) 93,62 %
05.12.2018 07:22 -0,2 C 3,9 C -1,1 C 98 % 1028,3 hPa 0,0 l/m 3,3 km/h (1 Bft) O-NO 65 0 min 0,000 mm 0,0 UV-I 0 W/m -0,5 C -0,2 C 4,8 km/h (1 Bft) 96,00 %
05.12.2018 07:24 -0,2 C 3,9 C -1,1 C 98 % 1028,3 hPa 0,0 l/m 2,2 km/h (1 Bft) O-NO 65 0 min 0,000 mm 0,0 UV-I 4 W/m -0,5 C -0,2 C 3,2 km/h (1 Bft) 93,75 %
05.12.2018 07:26 -0,3 C 3,9 C -1,1 C 98 % 1028,3 hPa 0,0 l/m 3,1 km/h (1 Bft) O-NO 65 0 min 0,000 mm 0,0 UV-I 5 W/m -0,6 C -0,3 C 4,8 km/h (1 Bft) 95,74 %
05.12.2018 07:28 -0,3 C 3,9 C -1,1 C 98 % 1028,3 hPa 0,0 l/m 2,9 km/h (1 Bft) O-NO 65 0 min 0,000 mm 0,0 UV-I 5 W/m -0,6 C -0,3 C 4,8 km/h (1 Bft) 91,49 %
05.12.2018 07:30 -0,3 C 3,9 C -1,7 C 98 % 1028,4 hPa 0,0 l/m 2,5 km/h (1 Bft) O-NO 65 0 min 0,000 mm 0,0 UV-I 5 W/m -0,6 C -0,3 C 3,2 km/h (1 Bft) 95,74 %
05.12.2018 07:32 -0,4 C 3,9 C -1,7 C 98 % 1028,4 hPa 0,0 l/m 1,9 km/h (1 Bft) O-NO 65 0 min 0,000 mm 0,0 UV-I 5 W/m -0,7 C -0,4 C 3,2 km/h (1 Bft) 93,62 %
05.12.2018 07:34 -0,5 C 3,9 C -1,7 C 98 % 1028,4 hPa 0,0 l/m 1,6 km/h (1 Bft) O-NO 65 0 min 0,000 mm 0,0 UV-I 7 W/m -0,8 C -0,5 C 3,2 km/h (1 Bft) 91,49 %
05.12.2018 07:36 -0,5 C 3,9 C -1,7 C 98 % 1028,4 hPa 0,0 l/m 1,5 km/h (1 Bft) O-NO 65 0 min 0,000 mm 0,0 UV-I 8 W/m -0,8 C -0,5 C 3,2 km/h (1 Bft) 93,62 %
05.12.2018 07:38 -0,5 C 3,9 C -1,7 C 98 % 1028,5 hPa 0,0 l/m 1,8 km/h (1 Bft) O-NO 65 0 min 0,000 mm 0,0 UV-I 9 W/m -0,8 C -0,5 C 3,2 km/h (1 Bft) 93,62 %
05.12.2018 07:40 -0,5 C 3,9 C -1,7 C 98 % 1028,5 hPa 0,0 l/m 2,5 km/h (1 Bft) O-NO 65 0 min 0,000 mm 0,0 UV-I 10 W/m -0,8 C -0,5 C 3,2 km/h (1 Bft) 95,74 %
05.12.2018 07:42 -0,5 C 3,9 C -1,7 C 98 % 1028,6 hPa 0,0 l/m 2,5 km/h (1 Bft) O-NO 65 0 min 0,000 mm 0,0 UV-I 11 W/m -0,8 C -0,5 C 3,2 km/h (1 Bft) 97,87 %
05.12.2018 07:44 -0,5 C 3,9 C -1,7 C 98 % 1028,6 hPa 0,0 l/m 2,3 km/h (1 Bft) O-NO 65 0 min 0,000 mm 0,0 UV-I 12 W/m -0,8 C -0,5 C 3,2 km/h (1 Bft) 97,87 %
05.12.2018 07:46 -0,4 C 3,9 C -1,7 C 98 % 1028,6 hPa 0,0 l/m 2,5 km/h (1 Bft) O-NO 65 0 min 0,000 mm 0,0 UV-I 13 W/m -0,7 C -0,4 C 3,2 km/h (1 Bft) 93,62 %
05.12.2018 07:48 -0,4 C 3,9 C -1,7 C 98 % 1028,6 hPa 0,0 l/m 2,8 km/h (1 Bft) O-NO 65 0 min 0,000 mm 0,0 UV-I 14 W/m -0,7 C -0,4 C 3,2 km/h (1 Bft) 100,00 %
05.12.2018 07:50 -0,4 C 3,9 C -1,1 C 98 % 1028,7 hPa 0,0 l/m 3,2 km/h (1 Bft) O-NO 65 2 min 0,000 mm 0,0 UV-I 16 W/m -0,7 C -0,4 C 4,8 km/h (1 Bft) 100,00 %
05.12.2018 07:52 -0,4 C 3,9 C -1,1 C 98 % 1028,6 hPa 0,0 l/m 3,4 km/h (1 Bft) O-NO 65 2 min 0,000 mm 0,0 UV-I 16 W/m -0,7 C -0,4 C 4,8 km/h (1 Bft) 97,87 %
05.12.2018 07:54 -0,4 C 3,9 C -1,1 C 98 % 1028,7 hPa 0,0 l/m 3,0 km/h (1 Bft) O-NO 65 2 min 0,000 mm 0,0 UV-I 18 W/m -0,7 C -0,4 C 4,8 km/h (1 Bft) 100,00 %
05.12.2018 07:56 -0,4 C 3,9 C -1,1 C 98 % 1028,8 hPa 0,0 l/m 2,3 km/h (1 Bft) O-NO 65 2 min 0,000 mm 0,0 UV-I 20 W/m -0,7 C -0,4 C 3,2 km/h (1 Bft) 97,87 %
05.12.2018 07:58 -0,5 C 3,9 C -1,1 C 98 % 1028,7 hPa 0,0 l/m 2,1 km/h (1 Bft) O-NO 65 2 min 0,000 mm 0,0 UV-I 23 W/m -0,8 C -0,5 C 3,2 km/h (1 Bft) 97,87 %
05.12.2018 08:00 -0,6 C 3,9 C -1,1 C 98 % 1028,8 hPa 0,0 l/m 2,7 km/h (1 Bft) O-NO 65 2 min 0,000 mm 0,0 UV-I 22 W/m -0,9 C -0,6 C 3,2 km/h (1 Bft) 100,00 %
05.12.2018 08:02 -0,5 C 3,9 C -1,1 C 98 % 1028,8 hPa 0,0 l/m 2,7 km/h (1 Bft) O-NO 65 0 min 0,000 mm 0,0 UV-I 24 W/m -0,8 C -0,5 C 4,8 km/h (1 Bft) 97,22 %
05.12.2018 08:04 -0,6 C 3,9 C -1,1 C 98 % 1028,9 hPa 0,0 l/m 3,6 km/h (1 Bft) O-NO 65 2 min 0,000 mm 0,0 UV-I 30 W/m -0,9 C -0,6 C 6,4 km/h (2 Bft) 98,39 %
05.12.2018 08:06 -0,6 C 3,9 C -1,1 C 98 % 1028,9 hPa 0,0 l/m 4,6 km/h (1 Bft) O-NO 65 2 min 0,000 mm 0,0 UV-I 36 W/m -0,9 C -0,6 C 6,4 km/h (2 Bft) 97,87 %
05.12.2018 08:08 -0,6 C 3,9 C -1,1 C 98 % 1029,0 hPa 0,0 l/m 4,1 km/h (1 Bft) O-NO 65 2 min 0,000 mm 0,0 UV-I 38 W/m -0,9 C -0,6 C 4,8 km/h (1 Bft) 95,74 %
05.12.2018 08:10 -0,6 C 3,9 C -1,1 C 98 % 1029,0 hPa 0,0 l/m 3,5 km/h (1 Bft) O-NO 65 2 min 0,000 mm 0,0 UV-I 40 W/m -0,9 C -0,6 C 4,8 km/h (1 Bft) 97,87 %
05.12.2018 08:12 -0,6 C 3,9 C -1,1 C 98 % 1029,0 hPa 0,0 l/m 3,7 km/h (1 Bft) O-NO 65 0 min 0,000 mm 0,0 UV-I 33 W/m -0,9 C -0,6 C 4,8 km/h (1 Bft) 95,74 %
05.12.2018 08:14 -0,7 C 3,9 C -1,1 C 98 % 1029,0 hPa 0,0 l/m 4,1 km/h (1 Bft) O-NO 65 0 min 0,000 mm 0,0 UV-I 38 W/m -1,0 C -0,7 C 4,8 km/h (1 Bft) 97,87 %
05.12.2018 08:16 -0,7 C 3,9 C -1,1 C 98 % 1029,0 hPa 0,0 l/m 4,0 km/h (1 Bft) O-NO 65 0 min 0,000 mm 0,0 UV-I 37 W/m -1,0 C -0,7 C 4,8 km/h (1 Bft) 97,87 %
05.12.2018 08:18 -0,7 C 3,9 C -1,1 C 98 % 1029,0 hPa 0,0 l/m 3,6 km/h (1 Bft) O-NO 65 0 min 0,000 mm 0,0 UV-I 35 W/m -1,0 C -0,7 C 4,8 km/h (1 Bft) 97,87 %
05.12.2018 08:20 -0,7 C 3,9 C -1,1 C 98 % 1029,1 hPa 0,0 l/m 2,3 km/h (1 Bft) O-NO 65 0 min 0,000 mm 0,0 UV-I 37 W/m -1,0 C -0,7 C 3,2 km/h (1 Bft) 97,14 %
05.12.2018 08:22 -0,7 C 3,9 C -1,1 C 98 % 1029,0 hPa 0,0 l/m 1,8 km/h (1 Bft) O-NO 65 0 min 0,000 mm 0,0 UV-I 43 W/m -1,0 C -0,7 C 3,2 km/h (1 Bft) 96,00 %
05.12.2018 08:24 -0,7 C 3,9 C -1,1 C 98 % 1029,1 hPa 0,0 l/m 1,1 km/h (1 Bft) O-NO 65 0 min 0,000 mm 0,0 UV-I 50 W/m -1,0 C -0,7 C 1,6 km/h (1 Bft) 95,74 %
05.12.2018 08:26 -0,7 C 3,9 C -0,6 C 98 % 1029,0 hPa 0,0 l/m 1,6 km/h (1 Bft) O-NO 65 2 min 0,000 mm 0,0 UV-I 55 W/m -1,0 C -0,7 C 1,6 km/h (1 Bft) 100,00 %
05.12.2018 08:28 -0,7 C 3,9 C -0,6 C 98 % 1029,0 hPa 0,0 l/m 1,6 km/h (1 Bft) O-NO 65 0 min 0,000 mm 0,0 UV-I 56 W/m -1,0 C -0,7 C 3,2 km/h (1 Bft) 100,00 %
05.12.2018 08:30 -0,6 C 3,9 C -0,6 C 98 % 1029,1 hPa 0,0 l/m 1,7 km/h (1 Bft) O-NO 65 0 min 0,000 mm 0,0 UV-I 56 W/m -0,9 C -0,6 C 3,2 km/h (1 Bft) 100,00 %
05.12.2018 08:32 -0,5 C 3,9 C -0,6 C 98 % 1029,1 hPa 0,0 l/m 2,0 km/h (1 Bft) O-NO 65 0 min 0,000 mm 0,0 UV-I 56 W/m -0,8 C -0,5 C 3,2 km/h (1 Bft) 100,00 %
05.12.2018 08:34 -0,4 C 3,9 C -0,6 C 98 % 1029,1 hPa 0,0 l/m 2,5 km/h (1 Bft) O-NO 65 0 min 0,000 mm 0,0 UV-I 60 W/m -0,7 C -0,4 C 3,2 km/h (1 Bft) 100,00 %
05.12.2018 08:36 -0,3 C 3,9 C -0,6 C 98 % 1029,2 hPa 0,0 l/m 1,9 km/h (1 Bft) O-NO 65 0 min 0,000 mm 0,0 UV-I 63 W/m -0,6 C -0,3 C 3,2 km/h (1 Bft) 100,00 %
05.12.2018 08:38 -0,2 C 3,9 C 0,0 C 98 % 1029,1 hPa 0,0 l/m 1,9 km/h (1 Bft) O-NO 65 0 min 0,000 mm 0,0 UV-I 66 W/m -0,5 C -0,2 C 3,2 km/h (1 Bft) 97,87 %
05.12.2018 08:40 -0,1 C 3,9 C 0,0 C 98 % 1029,1 hPa 0,0 l/m 2,6 km/h (1 Bft) O-NO 65 0 min 0,000 mm 0,0 UV-I 67 W/m -0,4 C -0,1 C 3,2 km/h (1 Bft) 97,87 %
05.12.2018 08:42 -0,1 C 3,9 C 0,0 C 98 % 1029,2 hPa 0,0 l/m 2,3 km/h (1 Bft) O-NO 65 0 min 0,000 mm 0,0 UV-I 67 W/m -0,4 C -0,1 C 3,2 km/h (1 Bft) 100,00 %
05.12.2018 08:44 0,0 C 3,9 C 0,0 C 98 % 1029,2 hPa 0,0 l/m 2,7 km/h (1 Bft) O-NO 65 0 min 0,000 mm 0,0 UV-I 64 W/m -0,3 C 0,0 C 4,8 km/h (1 Bft) 100,00 %
05.12.2018 08:46 0,1 C 3,9 C 0,0 C 98 % 1029,1 hPa 0,0 l/m 3,3 km/h (1 Bft) O-NO 69 0 min 0,000 mm 0,0 UV-I 64 W/m -0,2 C 0,1 C 6,4 km/h (2 Bft) 100,00 %
05.12.2018 08:48 0,1 C 3,9 C 0,0 C 98 % 1029,1 hPa 0,0 l/m 4,8 km/h (1 Bft) O 92 0 min 0,000 mm 0,0 UV-I 70 W/m -0,2 C 0,1 C 6,4 km/h (2 Bft) 95,74 %
05.12.2018 08:50 0,1 C 3,9 C 0,0 C 98 % 1029,1 hPa 0,0 l/m 3,8 km/h (1 Bft) O 92 0 min 0,000 mm 0,0 UV-I 78 W/m -0,2 C 0,1 C 4,8 km/h (1 Bft) 100,00 %
05.12.2018 08:52 0,2 C 3,9 C 0,0 C 98 % 1029,1 hPa 0,0 l/m 4,1 km/h (1 Bft) O 92 0 min 0,000 mm 0,0 UV-I 79 W/m -0,1 C 0,2 C 6,4 km/h (2 Bft) 97,87 %
05.12.2018 08:54 0,2 C 3,9 C 0,0 C 98 % 1029,1 hPa 0,0 l/m 4,2 km/h (1 Bft) O 82 0 min 0,000 mm 0,0 UV-I 75 W/m -0,1 C 0,2 C 6,4 km/h (2 Bft) 100,00 %
05.12.2018 08:56 0,2 C 3,9 C 0,0 C 98 % 1029,1 hPa 0,0 l/m 5,2 km/h (1 Bft) O-NO 78 0 min 0,000 mm 0,0 UV-I 70 W/m -0,1 C 0,2 C 6,4 km/h (2 Bft) 100,00 %
05.12.2018 08:58 0,2 C 3,9 C 0,0 C 98 % 1029,1 hPa 0,0 l/m 5,0 km/h (1 Bft) O-NO 78 0 min 0,000 mm 0,0 UV-I 68 W/m -0,1 C 0,2 C 6,4 km/h (2 Bft) 100,00 %
05.12.2018 09:00 0,2 C 3,9 C 0,0 C 98 % 1029,1 hPa 0,0 l/m 5,2 km/h (1 Bft) O-NO 70 0 min 0,025 mm 0,0 UV-I 69 W/m -0,1 C 0,2 C 6,4 km/h (2 Bft) 100,00 %
05.12.2018 09:02 0,2 C 3,9 C 0,0 C 98 % 1029,1 hPa 0,0 l/m 5,9 km/h (2 Bft) O-NO 78 0 min 0,000 mm 0,0 UV-I 72 W/m -0,1 C 0,2 C 8,0 km/h (2 Bft) 100,00 %
05.12.2018 09:04 0,2 C 3,9 C 0,0 C 98 % 1029,1 hPa 0,0 l/m 6,4 km/h (2 Bft) O-NO 71 0 min 0,000 mm 0,0 UV-I 73 W/m -0,1 C 0,2 C 8,0 km/h (2 Bft) 95,74 %
05.12.2018 09:06 0,2 C 3,9 C 0,0 C 98 % 1029,2 hPa 0,0 l/m 5,1 km/h (1 Bft) O-NO 72 0 min 0,000 mm 0,0 UV-I 77 W/m -0,1 C 0,2 C 6,4 km/h (2 Bft) 97,87 %
05.12.2018 09:08 0,2 C 3,9 C 0,0 C 98 % 1029,2 hPa 0,0 l/m 3,4 km/h (1 Bft) O-NO 72 0 min 0,000 mm 0,0 UV-I 85 W/m -0,1 C 0,2 C 4,8 km/h (1 Bft) 98,00 %
05.12.2018 09:10 0,3 C 3,9 C 0,0 C 98 % 1029,1 hPa 0,0 l/m 5,2 km/h (1 Bft) O-NO 57 0 min 0,000 mm 0,0 UV-I 91 W/m 0,0 C 0,3 C 6,4 km/h (2 Bft) 100,00 %
05.12.2018 09:12 0,2 C 3,9 C 0,0 C 98 % 1029,1 hPa 0,0 l/m 5,3 km/h (1 Bft) O-NO 60 0 min 0,000 mm 0,0 UV-I 96 W/m -0,1 C 0,2 C 8,0 km/h (2 Bft) 95,74 %
05.12.2018 09:14 0,2 C 3,9 C 0,0 C 98 % 1029,1 hPa 0,0 l/m 5,6 km/h (1 Bft) O-NO 59 0 min 0,000 mm 0,0 UV-I 102 W/m -0,1 C 0,2 C 8,0 km/h (2 Bft) 97,87 %
05.12.2018 09:16 0,2 C 3,9 C 0,0 C 98 % 1029,1 hPa 0,0 l/m 4,3 km/h (1 Bft) O-NO 63 0 min 0,000 mm 0,0 UV-I 101 W/m -0,1 C 0,2 C 6,4 km/h (2 Bft) 97,87 %
05.12.2018 09:18 0,2 C 3,9 C 0,6 C 98 % 1029,1 hPa 0,0 l/m 4,5 km/h (1 Bft) O-NO 63 0 min 0,000 mm 0,0 UV-I 97 W/m -0,1 C 0,2 C 6,4 km/h (2 Bft) 96,00 %
05.12.2018 09:20 0,3 C 3,9 C 0,6 C 98 % 1029,1 hPa 0,0 l/m 4,6 km/h (1 Bft) O 86 0 min 0,000 mm 0,0 UV-I 93 W/m 0,0 C 0,3 C 6,4 km/h (2 Bft) 95,74 %
05.12.2018 09:22 0,3 C 3,9 C 0,6 C 98 % 1029,1 hPa 0,0 l/m 3,9 km/h (1 Bft) O-NO 76 0 min 0,000 mm 0,0 UV-I 92 W/m 0,0 C 0,3 C 6,4 km/h (2 Bft) 93,75 %
05.12.2018 09:24 0,3 C 3,9 C 0,6 C 98 % 1029,0 hPa 0,0 l/m 5,2 km/h (1 Bft) O-NO 65 0 min 0,000 mm 0,0 UV-I 88 W/m 0,0 C 0,3 C 11,3 km/h (2 Bft) 93,62 %
05.12.2018 09:26 0,3 C 3,9 C 0,6 C 98 % 1029,0 hPa 0,0 l/m 4,3 km/h (1 Bft) NO 53 0 min 0,000 mm 0,0 UV-I 84 W/m 0,0 C 0,3 C 6,4 km/h (2 Bft) 93,62 %
05.12.2018 09:28 0,3 C 3,9 C 0,6 C 98 % 1029,0 hPa 0,0 l/m 3,3 km/h (1 Bft) NO 53 0 min 0,000 mm 0,0 UV-I 82 W/m 0,0 C 0,3 C 4,8 km/h (1 Bft) 92,11 %
05.12.2018 09:30 0,3 C 3,9 C 0,6 C 98 % 1029,1 hPa 0,0 l/m 2,8 km/h (1 Bft) NO 53 0 min 0,000 mm 0,0 UV-I 78 W/m 0,0 C 0,3 C 4,8 km/h (1 Bft) 95,74 %
05.12.2018 09:32 0,3 C 3,9 C 0,6 C 98 % 1029,0 hPa 0,0 l/m 3,2 km/h (1 Bft) O-NO 57 0 min 0,000 mm 0,0 UV-I 77 W/m 0,0 C 0,3 C 4,8 km/h (1 Bft) 93,62 %
05.12.2018 09:34 0,3 C 3,9 C 0,6 C 98 % 1029,1 hPa 0,0 l/m 3,8 km/h (1 Bft) O 90 0 min 0,000 mm 0,0 UV-I 83 W/m 0,0 C 0,3 C 6,4 km/h (2 Bft) 95,74 %
05.12.2018 09:36 0,3 C 3,9 C 0,6 C 98 % 1029,1 hPa 0,0 l/m 3,6 km/h (1 Bft) O 90 0 min 0,000 mm 0,0 UV-I 99 W/m 0,0 C 0,3 C 4,8 km/h (1 Bft) 93,62 %
05.12.2018 09:38 0,3 C 3,9 C 1,1 C 98 % 1029,1 hPa 0,0 l/m 4,4 km/h (1 Bft) O 89 0 min 0,000 mm 0,0 UV-I 117 W/m 0,0 C 0,3 C 6,4 km/h (2 Bft) 97,87 %
05.12.2018 09:40 0,3 C 3,9 C 1,1 C 98 % 1029,0 hPa 0,0 l/m 4,8 km/h (1 Bft) O 88 0 min 0,000 mm 0,0 UV-I 118 W/m 0,0 C 0,3 C 6,4 km/h (2 Bft) 97,87 %
05.12.2018 09:42 0,4 C 3,9 C 1,1 C 98 % 1029,0 hPa 0,0 l/m 6,5 km/h (2 Bft) O-NO 74 0 min 0,000 mm 0,0 UV-I 107 W/m 0,1 C 0,3 C 11,3 km/h (2 Bft) 95,74 %
05.12.2018 09:44 0,4 C 3,9 C 1,1 C 98 % 1029,0 hPa 0,0 l/m 7,5 km/h (2 Bft) O-NO 77 0 min 0,000 mm 0,0 UV-I 111 W/m 0,1 C -0,7 C 9,7 km/h (2 Bft) 97,87 %
05.12.2018 09:46 0,4 C 3,9 C 1,1 C 98 % 1029,0 hPa 0,0 l/m 5,9 km/h (2 Bft) O-NO 74 0 min 0,000 mm 0,0 UV-I 120 W/m 0,1 C 0,4 C 8,0 km/h (2 Bft) 96,23 %
05.12.2018 09:48 0,4 C 3,9 C 1,1 C 98 % 1029,0 hPa 0,0 l/m 4,5 km/h (1 Bft) O 83 0 min 0,000 mm 0,0 UV-I 125 W/m 0,1 C 0,4 C 6,4 km/h (2 Bft) 100,00 %
05.12.2018 09:50 0,4 C 3,9 C 1,1 C 98 % 1028,9 hPa 0,0 l/m 7,0 km/h (2 Bft) O-NO 75 0 min 0,000 mm 0,0 UV-I 125 W/m 0,1 C -0,2 C 8,0 km/h (2 Bft) 97,87 %
05.12.2018 09:52 0,4 C 3,9 C 1,1 C 98 % 1028,9 hPa 0,0 l/m 6,0 km/h (2 Bft) O-NO 73 0 min 0,000 mm 0,0 UV-I 122 W/m 0,1 C 0,4 C 8,0 km/h (2 Bft) 100,00 %
05.12.2018 09:54 0,5 C 3,9 C 1,7 C 98 % 1029,0 hPa 0,0 l/m 6,6 km/h (2 Bft) O 96 0 min 0,000 mm 0,0 UV-I 123 W/m 0,2 C 0,3 C 8,0 km/h (2 Bft) 97,87 %
05.12.2018 09:56 0,5 C 3,9 C 1,7 C 98 % 1029,1 hPa 0,0 l/m 6,5 km/h (2 Bft) O-NO 73 0 min 0,000 mm 0,0 UV-I 124 W/m 0,2 C 0,4 C 8,0 km/h (2 Bft) 97,92 %
05.12.2018 09:58 0,5 C 3,9 C 1,7 C 98 % 1029,1 hPa 0,0 l/m 6,2 km/h (2 Bft) O-NO 73 0 min 0,000 mm 0,0 UV-I 114 W/m 0,2 C 0,5 C 8,0 km/h (2 Bft) 100,00 %
05.12.2018 10:00 0,5 C 3,9 C 1,7 C 98 % 1029,1 hPa 0,0 l/m 4,7 km/h (1 Bft) O-NO 74 0 min 0,026 mm 0,0 UV-I 108 W/m 0,2 C 0,5 C 6,4 km/h (2 Bft) 100,00 %
05.12.2018 10:02 0,5 C 3,9 C 1,7 C 98 % 1029,1 hPa 0,0 l/m 4,8 km/h (1 Bft) O-NO 71 0 min 0,000 mm 0,0 UV-I 109 W/m 0,2 C 0,5 C 6,4 km/h (2 Bft) 100,00 %
05.12.2018 10:04 0,6 C 3,9 C 1,7 C 98 % 1029,1 hPa 0,0 l/m 3,7 km/h (1 Bft) O-NO 76 0 min 0,000 mm 0,0 UV-I 105 W/m 0,3 C 0,6 C 6,4 km/h (2 Bft) 98,00 %
05.12.2018 10:06 0,6 C 3,9 C 1,7 C 98 % 1029,2 hPa 0,0 l/m 4,6 km/h (1 Bft) O-NO 74 0 min 0,000 mm 0,0 UV-I 101 W/m 0,3 C 0,6 C 6,4 km/h (2 Bft) 95,74 %
05.12.2018 10:08 0,6 C 3,9 C 1,7 C 98 % 1029,2 hPa 0,0 l/m 3,3 km/h (1 Bft) O-NO 74 0 min 0,000 mm 0,0 UV-I 96 W/m 0,3 C 0,6 C 4,8 km/h (1 Bft) 100,00 %
05.12.2018 10:10 0,6 C 3,9 C 1,7 C 98 % 1029,2 hPa 0,0 l/m 4,8 km/h (1 Bft) O-NO 77 0 min 0,000 mm 0,0 UV-I 99 W/m 0,3 C 0,6 C 6,4 km/h (2 Bft) 98,00 %
05.12.2018 10:12 0,7 C 3,9 C 2,2 C 98 % 1029,2 hPa 0,0 l/m 5,1 km/h (1 Bft) O-NO 76 0 min 0,000 mm 0,0 UV-I 106 W/m 0,4 C 0,7 C 6,4 km/h (2 Bft) 97,87 %
05.12.2018 10:14 0,8 C 3,9 C 2,2 C 98 % 1029,3 hPa 0,0 l/m 4,5 km/h (1 Bft) O-NO 76 0 min 0,000 mm 0,0 UV-I 116 W/m 0,5 C 0,8 C 4,8 km/h (1 Bft) 100,00 %
05.12.2018 10:16 0,8 C 3,9 C 2,2 C 98 % 1029,3 hPa 0,0 l/m 4,5 km/h (1 Bft) O-NO 76 0 min 0,000 mm 0,0 UV-I 119 W/m 0,5 C 0,8 C 6,4 km/h (2 Bft) 97,87 %
05.12.2018 10:18 0,8 C 3,9 C 2,8 C 98 % 1029,4 hPa 0,0 l/m 3,2 km/h (1 Bft) O-NO 76 0 min 0,000 mm 0,0 UV-I 115 W/m 0,5 C 0,8 C 4,8 km/h (1 Bft) 100,00 %
05.12.2018 10:20 0,9 C 3,9 C 2,8 C 98 % 1029,4 hPa 0,0 l/m 6,1 km/h (2 Bft) O-NO 69 0 min 0,000 mm 0,0 UV-I 106 W/m 0,6 C 0,9 C 8,0 km/h (2 Bft) 97,37 %
05.12.2018 10:22 0,9 C 3,9 C 2,8 C 98 % 1029,5 hPa 0,0 l/m 6,1 km/h (2 Bft) O-NO 67 0 min 0,000 mm 0,0 UV-I 114 W/m 0,6 C 0,9 C 9,7 km/h (2 Bft) 100,00 %
05.12.2018 10:24 1,0 C 3,9 C 2,8 C 98 % 1029,5 hPa 0,0 l/m 7,2 km/h (2 Bft) O-NO 67 0 min 0,000 mm 0,0 UV-I 126 W/m 0,7 C 0,2 C 11,3 km/h (2 Bft) 100,00 %
05.12.2018 10:26 1,1 C 3,9 C 2,8 C 98 % 1029,5 hPa 0,0 l/m 6,4 km/h (2 Bft) O-NO 67 0 min 0,000 mm 0,0 UV-I 124 W/m 0,8 C 1,1 C 8,0 km/h (2 Bft) 100,00 %
05.12.2018 10:28 1,1 C 3,9 C 2,8 C 98 % 1029,5 hPa 0,0 l/m 6,3 km/h (2 Bft) N-NO 31 0 min 0,000 mm 0,0 UV-I 114 W/m 0,8 C 1,1 C 8,0 km/h (2 Bft) 100,00 %
05.12.2018 10:30 1,2 C 3,9 C 2,8 C 98 % 1029,4 hPa 0,0 l/m 6,7 km/h (2 Bft) NO 47 0 min 0,000 mm 0,0 UV-I 113 W/m 0,9 C 0,9 C 8,0 km/h (2 Bft) 100,00 %
05.12.2018 10:32 1,2 C 3,9 C 2,8 C 98 % 1029,5 hPa 0,0 l/m 8,2 km/h (2 Bft) NO 44 0 min 0,000 mm 0,0 UV-I 110 W/m 0,9 C -0,6 C 9,7 km/h (2 Bft) 98,11 %
05.12.2018 10:34 1,2 C 3,9 C 2,8 C 98 % 1029,5 hPa 0,0 l/m 8,4 km/h (2 Bft) NO 39 0 min 0,000 mm 0,0 UV-I 105 W/m 0,9 C -0,8 C 9,7 km/h (2 Bft) 97,87 %
05.12.2018 10:36 1,2 C 3,9 C 2,8 C 98 % 1029,5 hPa 0,0 l/m 7,2 km/h (2 Bft) NO 43 0 min 0,000 mm 0,0 UV-I 104 W/m 0,9 C 0,4 C 9,7 km/h (2 Bft) 97,87 %
05.12.2018 10:38 1,2 C 3,9 C 2,8 C 98 % 1029,5 hPa 0,0 l/m 6,4 km/h (2 Bft) N-NO 31 0 min 0,000 mm 0,0 UV-I 99 W/m 0,9 C 1,2 C 8,0 km/h (2 Bft) 96,00 %
05.12.2018 10:40 1,2 C 3,9 C 2,8 C 98 % 1029,4 hPa 0,0 l/m 7,7 km/h (2 Bft) NO 46 0 min 0,000 mm 0,0 UV-I 109 W/m 0,9 C -0,1 C 9,7 km/h (2 Bft) 97,87 %
05.12.2018 10:42 1,3 C 3,9 C 2,8 C 98 % 1029,4 hPa 0,0 l/m 7,8 km/h (2 Bft) NO 38 0 min 0,000 mm 0,0 UV-I 129 W/m 1,0 C -0,1 C 11,3 km/h (2 Bft) 93,62 %
05.12.2018 10:44 1,3 C 3,9 C 2,8 C 98 % 1029,5 hPa 0,0 l/m 6,8 km/h (2 Bft) NO 38 0 min 0,000 mm 0,0 UV-I 129 W/m 1,0 C 0,9 C 9,7 km/h (2 Bft) 91,49 %
05.12.2018 10:46 1,3 C 3,9 C 2,8 C 98 % 1029,4 hPa 0,0 l/m 7,6 km/h (2 Bft) N-NO 33 0 min 0,000 mm 0,0 UV-I 118 W/m 1,0 C 0,1 C 9,7 km/h (2 Bft) 95,65 %
05.12.2018 10:48 1,3 C 3,9 C 2,8 C 98 % 1029,5 hPa 0,0 l/m 6,7 km/h (2 Bft) NO 39 0 min 0,000 mm 0,0 UV-I 117 W/m 1,0 C 1,0 C 8,0 km/h (2 Bft) 96,00 %
05.12.2018 10:50 1,4 C 3,9 C 2,8 C 98 % 1029,5 hPa 0,0 l/m 8,7 km/h (2 Bft) NO 44 0 min 0,000 mm 0,0 UV-I 118 W/m 1,1 C -0,8 C 11,3 km/h (2 Bft) 93,62 %
05.12.2018 10:52 1,4 C 3,9 C 2,8 C 98 % 1029,4 hPa 0,0 l/m 9,1 km/h (2 Bft) O-NO 57 0 min 0,000 mm 0,0 UV-I 130 W/m 1,1 C -1,2 C 14,5 km/h (3 Bft) 97,87 %
05.12.2018 10:54 1,4 C 3,9 C 3,3 C 98 % 1029,4 hPa 0,0 l/m 8,6 km/h (2 Bft) N-NO 30 0 min 0,000 mm 0,0 UV-I 151 W/m 1,1 C -0,7 C 12,9 km/h (3 Bft) 97,87 %
05.12.2018 10:56 1,4 C 3,9 C 3,3 C 98 % 1029,4 hPa 0,0 l/m 6,8 km/h (2 Bft) O-NO 67 0 min 0,000 mm 0,0 UV-I 142 W/m 1,1 C 1,0 C 12,9 km/h (3 Bft) 94,29 %
05.12.2018 10:58 1,5 C 3,9 C 3,9 C 98 % 1029,3 hPa 0,0 l/m 9,1 km/h (2 Bft) O-NO 65 0 min 0,000 mm 0,0 UV-I 124 W/m 1,2 C -1,1 C 12,9 km/h (3 Bft) 96,00 %
05.12.2018 11:00 1,5 C 3,9 C 3,3 C 98 % 1029,3 hPa 0,0 l/m 9,1 km/h (2 Bft) O-NO 65 0 min 0,051 mm 0,0 UV-I 115 W/m 1,2 C -1,1 C 12,9 km/h (3 Bft) 95,74 %
05.12.2018 11:02 1,5 C 3,9 C 3,3 C 98 % 1029,2 hPa 0,0 l/m 7,7 km/h (2 Bft) NO 54 0 min 0,000 mm 0,0 UV-I 108 W/m 1,2 C 0,2 C 9,7 km/h (2 Bft) 97,87 %
05.12.2018 11:04 1,5 C 3,9 C 3,3 C 98 % 1029,2 hPa 0,0 l/m 8,5 km/h (2 Bft) NO 46 0 min 0,000 mm 0,0 UV-I 105 W/m 1,2 C -0,5 C 12,9 km/h (3 Bft) 98,00 %
05.12.2018 11:06 1,4 C 3,9 C 3,3 C 98 % 1029,1 hPa 0,0 l/m 6,5 km/h (2 Bft) NO 44 0 min 0,000 mm 0,0 UV-I 112 W/m 1,1 C 1,3 C 9,7 km/h (2 Bft) 92,00 %
05.12.2018 11:08 1,4 C 3,9 C 3,3 C 98 % 1029,2 hPa 0,0 l/m 6,8 km/h (2 Bft) O 82 0 min 0,000 mm 0,0 UV-I 119 W/m 1,1 C 1,0 C 12,9 km/h (3 Bft) 97,37 %
05.12.2018 11:10 1,4 C 3,9 C 3,3 C 98 % 1029,2 hPa 0,0 l/m 7,0 km/h (2 Bft) O 88 0 min 0,000 mm 0,0 UV-I 127 W/m 1,1 C 0,8 C 12,9 km/h (3 Bft) 95,74 %
05.12.2018 11:12 1,4 C 3,9 C 3,3 C 98 % 1029,1 hPa 0,0 l/m 10,3 km/h (2 Bft) O-NO 75 0 min 0,000 mm 0,0 UV-I 136 W/m 1,1 C -2,1 C 16,1 km/h (3 Bft) 93,75 %
05.12.2018 11:14 1,4 C 3,9 C 3,3 C 98 % 1029,1 hPa 0,0 l/m 6,9 km/h (2 Bft) O-NO 69 0 min 0,000 mm 0,0 UV-I 139 W/m 1,1 C 0,9 C 14,5 km/h (3 Bft) 93,62 %
05.12.2018 11:16 1,4 C 3,9 C 3,3 C 98 % 1029,1 hPa 0,0 l/m 8,9 km/h (2 Bft) O-SO 102 0 min 0,000 mm 0,0 UV-I 145 W/m 1,1 C -1,0 C 12,9 km/h (3 Bft) 94,29 %
05.12.2018 11:18 1,4 C 3,9 C 3,3 C 98 % 1029,1 hPa 0,0 l/m 8,2 km/h (2 Bft) O-NO 66 0 min 0,000 mm 0,0 UV-I 151 W/m 1,1 C -0,4 C 12,9 km/h (3 Bft) 95,38 %
05.12.2018 11:20 1,4 C 3,9 C 3,3 C 98 % 1029,1 hPa 0,0 l/m 10,4 km/h (2 Bft) O 80 0 min 0,000 mm 0,0 UV-I 155 W/m 1,1 C -2,2 C 14,5 km/h (3 Bft) 95,74 %
05.12.2018 11:22 1,5 C 3,9 C 3,3 C 98 % 1029,1 hPa 0,0 l/m 8,9 km/h (2 Bft) O-NO 59 0 min 0,000 mm 0,0 UV-I 161 W/m 1,2 C -0,9 C 14,5 km/h (3 Bft) 95,74 %
05.12.2018 11:24 1,5 C 3,9 C 3,9 C 98 % 1029,1 hPa 0,0 l/m 10,0 km/h (2 Bft) O-NO 72 0 min 0,000 mm 0,0 UV-I 168 W/m 1,2 C -1,8 C 12,9 km/h (3 Bft) 92,11 %
05.12.2018 11:26 1,6 C 3,9 C 3,9 C 98 % 1029,1 hPa 0,0 l/m 8,9 km/h (2 Bft) O 98 0 min 0,000 mm 0,0 UV-I 180 W/m 1,3 C -0,8 C 14,5 km/h (3 Bft) 96,00 %
05.12.2018 11:28 1,7 C 3,9 C 4,4 C 98 % 1029,1 hPa 0,0 l/m 7,7 km/h (2 Bft) O 99 2 min 0,000 mm 0,0 UV-I 190 W/m 1,4 C 0,4 C 11,3 km/h (2 Bft) 92,00 %
05.12.2018 11:30 1,8 C 3,9 C 4,4 C 98 % 1029,1 hPa 0,0 l/m 9,1 km/h (2 Bft) O 86 0 min 0,000 mm 0,0 UV-I 177 W/m 1,5 C -0,7 C 12,9 km/h (3 Bft) 95,74 %
05.12.2018 11:32 1,8 C 3,9 C 4,4 C 98 % 1029,1 hPa 0,0 l/m 10,0 km/h (2 Bft) SO 134 0 min 0,000 mm 0,0 UV-I 181 W/m 1,5 C -1,5 C 14,5 km/h (3 Bft) 91,49 %
05.12.2018 11:34 1,8 C 3,9 C 4,4 C 98 % 1029,2 hPa 0,0 l/m 5,5 km/h (1 Bft) O-NO 76 0 min 0,000 mm 0,0 UV-I 177 W/m 1,5 C 1,8 C 9,7 km/h (2 Bft) 96,00 %
05.12.2018 11:36 1,8 C 3,9 C 4,4 C 98 % 1029,2 hPa 0,0 l/m 8,5 km/h (2 Bft) O-NO 69 0 min 0,000 mm 0,0 UV-I 179 W/m 1,5 C -0,2 C 12,9 km/h (3 Bft) 95,74 %
05.12.2018 11:38 1,9 C 3,9 C 4,4 C 98 % 1029,2 hPa 0,0 l/m 8,0 km/h (2 Bft) O-NO 61 0 min 0,000 mm 0,3 UV-I 180 W/m 1,6 C 0,3 C 12,9 km/h (3 Bft) 95,74 %
05.12.2018 11:40 1,9 C 3,9 C 4,4 C 98 % 1029,1 hPa 0,0 l/m 7,9 km/h (2 Bft) O-NO 75 2 min 0,000 mm 0,5 UV-I 189 W/m 1,6 C 0,4 C 14,5 km/h (3 Bft) 97,87 %
05.12.2018 11:42 1,9 C 3,9 C 4,4 C 98 % 1029,0 hPa 0,0 l/m 10,1 km/h (2 Bft) O-NO 65 2 min 0,000 mm 0,5 UV-I 214 W/m 1,6 C -1,4 C 16,1 km/h (3 Bft) 91,49 %
05.12.2018 11:44 1,9 C 3,9 C 4,4 C 98 % 1029,0 hPa 0,0 l/m 9,8 km/h (2 Bft) O 91 2 min 0,000 mm 0,5 UV-I 214 W/m 1,6 C -1,2 C 14,5 km/h (3 Bft) 95,74 %
05.12.2018 11:46 2,1 C 3,9 C 4,4 C 98 % 1028,9 hPa 0,0 l/m 12,6 km/h (3 Bft) O 83 2 min 0,000 mm 0,5 UV-I 218 W/m 1,8 C -3,0 C 17,7 km/h (3 Bft) 95,74 %
05.12.2018 11:48 2,1 C 3,9 C 4,4 C 97 % 1028,9 hPa 0,0 l/m 11,7 km/h (2 Bft) O-NO 77 2 min 0,000 mm 0,5 UV-I 220 W/m 1,7 C -2,4 C 16,1 km/h (3 Bft) 97,22 %
05.12.2018 11:50 2,2 C 3,9 C 4,4 C 98 % 1029,0 hPa 0,0 l/m 10,3 km/h (2 Bft) O-SO 109 2 min 0,000 mm 0,5 UV-I 203 W/m 1,9 C -1,3 C 14,5 km/h (3 Bft) 93,62 %
05.12.2018 11:52 2,2 C 3,9 C 4,4 C 97 % 1028,9 hPa 0,0 l/m 10,4 km/h (2 Bft) O-NO 69 0 min 0,000 mm 0,5 UV-I 183 W/m 1,8 C -1,3 C 14,5 km/h (3 Bft) 92,45 %
05.12.2018 11:54 2,3 C 3,9 C 4,4 C 97 % 1028,9 hPa 0,0 l/m 11,3 km/h (2 Bft) O-NO 73 0 min 0,000 mm 0,5 UV-I 178 W/m 1,9 C -1,9 C 16,1 km/h (3 Bft) 91,49 %
05.12.2018 11:56 2,3 C 3,9 C 4,4 C 97 % 1028,9 hPa 0,0 l/m 11,0 km/h (2 Bft) O 82 2 min 0,000 mm 0,5 UV-I 188 W/m 1,9 C -1,7 C 14,5 km/h (3 Bft) 91,49 %
05.12.2018 11:58 2,3 C 3,9 C 4,4 C 97 % 1028,8 hPa 0,0 l/m 9,1 km/h (2 Bft) O-NO 65 2 min 0,000 mm 0,5 UV-I 199 W/m 1,9 C -0,2 C 16,1 km/h (3 Bft) 97,56 %
05.12.2018 12:00 2,4 C 3,9 C 5,0 C 97 % 1028,8 hPa 0,0 l/m 12,0 km/h (2 Bft) O-NO 72 2 min 0,050 mm 0,5 UV-I 196 W/m 2,0 C -2,2 C 16,1 km/h (3 Bft) 97,87 %
05.12.2018 12:02 2,4 C 3,9 C 5,0 C 97 % 1028,7 hPa 0,0 l/m 9,9 km/h (2 Bft) O 88 0 min 0,000 mm 0,5 UV-I 184 W/m 2,0 C -0,7 C 14,5 km/h (3 Bft) 97,87 %
05.12.2018 12:04 2,5 C 3,9 C 4,4 C 97 % 1028,6 hPa 0,0 l/m 9,9 km/h (2 Bft) O 94 0 min 0,000 mm 0,1 UV-I 169 W/m 2,1 C -0,6 C 14,5 km/h (3 Bft) 95,74 %
05.12.2018 12:06 2,6 C 3,9 C 4,4 C 97 % 1028,6 hPa 0,0 l/m 9,5 km/h (2 Bft) O-NO 71 0 min 0,000 mm 0,0 UV-I 153 W/m 2,2 C -0,2 C 14,5 km/h (3 Bft) 100,00 %
05.12.2018 12:08 2,6 C 3,9 C 4,4 C 96 % 1028,5 hPa 0,0 l/m 12,7 km/h (3 Bft) O-NO 74 0 min 0,000 mm 0,0 UV-I 140 W/m 2,0 C -2,5 C 16,1 km/h (3 Bft) 97,87 %
05.12.2018 12:10 2,7 C 3,9 C 3,9 C 96 % 1028,5 hPa 0,0 l/m 9,2 km/h (2 Bft) O 84 0 min 0,000 mm 0,0 UV-I 144 W/m 2,1 C 0,2 C 14,5 km/h (3 Bft) 100,00 %
05.12.2018 12:12 2,7 C 3,9 C 3,9 C 96 % 1028,5 hPa 0,2 l/m 9,6 km/h (2 Bft) O 82 0 min 0,000 mm 0,0 UV-I 153 W/m 2,1 C -0,2 C 14,5 km/h (3 Bft) 100,00 %
05.12.2018 12:14 2,7 C 3,9 C 3,9 C 96 % 1028,5 hPa 0,0 l/m 8,1 km/h (2 Bft) O 86 0 min 0,000 mm 0,0 UV-I 149 W/m 2,1 C 1,1 C 11,3 km/h (2 Bft) 100,00 %
05.12.2018 12:16 2,7 C 3,9 C 3,9 C 95 % 1028,5 hPa 0,0 l/m 7,5 km/h (2 Bft) O 80 0 min 0,000 mm 0,0 UV-I 158 W/m 2,0 C 1,6 C 12,9 km/h (3 Bft) 97,37 %
05.12.2018 12:18 2,7 C 3,9 C 4,4 C 95 % 1028,5 hPa 0,0 l/m 9,4 km/h (2 Bft) O 95 0 min 0,000 mm 0,0 UV-I 163 W/m 2,0 C 0,0 C 12,9 km/h (3 Bft) 97,87 %
05.12.2018 12:20 2,8 C 3,9 C 4,4 C 95 % 1028,4 hPa 0,0 l/m 10,0 km/h (2 Bft) O 82 0 min 0,000 mm 0,0 UV-I 157 W/m 2,1 C -0,4 C 14,5 km/h (3 Bft) 100,00 %
05.12.2018 12:22 2,8 C 3,9 C 3,9 C 94 % 1028,4 hPa 0,0 l/m 12,0 km/h (2 Bft) O-NO 62 0 min 0,000 mm 0,0 UV-I 145 W/m 1,9 C -1,8 C 16,1 km/h (3 Bft) 97,87 %
05.12.2018 12:24 2,8 C 3,9 C 3,9 C 94 % 1028,4 hPa 0,0 l/m 8,5 km/h (2 Bft) O-NO 58 0 min 0,000 mm 0,0 UV-I 126 W/m 1,9 C 0,9 C 12,9 km/h (3 Bft) 100,00 %
05.12.2018 12:26 2,8 C 3,9 C 3,9 C 94 % 1028,4 hPa 0,0 l/m 7,5 km/h (2 Bft) O-NO 69 0 min 0,000 mm 0,0 UV-I 120 W/m 1,9 C 1,8 C 11,3 km/h (2 Bft) 95,74 %
05.12.2018 12:28 2,8 C 3,9 C 3,9 C 94 % 1028,4 hPa 0,0 l/m 8,1 km/h (2 Bft) O-SO 105 0 min 0,000 mm 0,0 UV-I 111 W/m 1,9 C 1,2 C 12,9 km/h (3 Bft) 100,00 %
05.12.2018 12:30 2,8 C 3,9 C 3,9 C 94 % 1028,4 hPa 0,0 l/m 5,5 km/h (1 Bft) NO 56 0 min 0,000 mm 0,0 UV-I 105 W/m 1,9 C 2,8 C 8,0 km/h (2 Bft) 97,87 %
05.12.2018 12:32 2,8 C 3,9 C 3,9 C 94 % 1028,4 hPa 0,0 l/m 4,9 km/h (1 Bft) O 86 0 min 0,000 mm 0,0 UV-I 113 W/m 1,9 C 2,8 C 6,4 km/h (2 Bft) 100,00 %
05.12.2018 12:34 2,8 C 3,9 C 3,9 C 93 % 1028,4 hPa 0,0 l/m 6,3 km/h (2 Bft) NO 44 0 min 0,000 mm 0,0 UV-I 121 W/m 1,8 C 2,8 C 9,7 km/h (2 Bft) 98,00 %
05.12.2018 12:36 2,8 C 3,9 C 3,3 C 93 % 1028,3 hPa 0,0 l/m 8,5 km/h (2 Bft) O-NO 62 0 min 0,000 mm 0,0 UV-I 120 W/m 1,8 C 0,9 C 14,5 km/h (3 Bft) 97,87 %
05.12.2018 12:38 2,8 C 3,9 C 3,9 C 93 % 1028,3 hPa 0,0 l/m 7,4 km/h (2 Bft) O 79 0 min 0,000 mm 0,0 UV-I 124 W/m 1,8 C 1,8 C 12,9 km/h (3 Bft) 100,00 %
05.12.2018 12:40 2,8 C 3,9 C 3,9 C 93 % 1028,3 hPa 0,0 l/m 6,3 km/h (2 Bft) O-NO 68 0 min 0,000 mm 0,0 UV-I 137 W/m 1,8 C 2,8 C 11,3 km/h (2 Bft) 97,87 %
05.12.2018 12:42 2,9 C 3,9 C 3,9 C 93 % 1028,3 hPa 0,0 l/m 6,1 km/h (2 Bft) O-NO 66 0 min 0,000 mm 0,0 UV-I 151 W/m 1,9 C 2,9 C 11,3 km/h (2 Bft) 100,00 %
05.12.2018 12:44 2,9 C 3,9 C 3,9 C 93 % 1028,3 hPa 0,0 l/m 5,9 km/h (2 Bft) O-NO 76 2 min 0,000 mm 0,0 UV-I 183 W/m 1,9 C 2,9 C 8,0 km/h (2 Bft) 100,00 %
05.12.2018 12:46 2,9 C 3,9 C 3,9 C 93 % 1028,2 hPa 0,0 l/m 6,4 km/h (2 Bft) O-NO 71 2 min 0,000 mm 0,0 UV-I 180 W/m 1,9 C 2,9 C 11,3 km/h (2 Bft) 100,00 %
05.12.2018 12:48 3,0 C 3,9 C 3,9 C 93 % 1028,3 hPa 0,0 l/m 7,3 km/h (2 Bft) O-NO 57 2 min 0,000 mm 0,1 UV-I 233 W/m 2,0 C 2,1 C 11,3 km/h (2 Bft) 100,00 %
05.12.2018 12:50 3,1 C 3,9 C 3,9 C 93 % 1028,3 hPa 0,0 l/m 8,8 km/h (2 Bft) O-NO 57 2 min 0,000 mm 0,2 UV-I 211 W/m 2,1 C 0,9 C 14,5 km/h (3 Bft) 100,00 %
05.12.2018 12:52 3,2 C 3,9 C 3,9 C 92 % 1028,2 hPa 0,0 l/m 8,4 km/h (2 Bft) O-NO 70 0 min 0,000 mm 0,0 UV-I 139 W/m 2,0 C 1,4 C 14,5 km/h (3 Bft) 97,87 %
05.12.2018 12:54 3,2 C 3,9 C 3,9 C 92 % 1028,2 hPa 0,0 l/m 7,5 km/h (2 Bft) NO 53 2 min 0,000 mm 0,3 UV-I 205 W/m 2,0 C 2,2 C 11,3 km/h (2 Bft) 100,00 %
05.12.2018 12:56 3,3 C 3,9 C 3,9 C 92 % 1028,2 hPa 0,0 l/m 7,4 km/h (2 Bft) O-NO 71 2 min 0,000 mm 0,2 UV-I 255 W/m 2,1 C 2,4 C 11,3 km/h (2 Bft) 95,74 %
05.12.2018 12:58 3,3 C 3,9 C 4,4 C 92 % 1028,2 hPa 0,0 l/m 7,4 km/h (2 Bft) NO 42 2 min 0,000 mm 0,0 UV-I 262 W/m 2,1 C 2,4 C 12,9 km/h (3 Bft) 97,87 %
05.12.2018 13:00 3,6 C 3,9 C 3,9 C 92 % 1028,2 hPa 0,0 l/m 11,7 km/h (2 Bft) N-NO 22 2 min 0,051 mm 0,0 UV-I 186 W/m 2,4 C -0,7 C 16,1 km/h (3 Bft) 95,74 %
05.12.2018 13:02 3,5 C 3,9 C 3,9 C 91 % 1028,2 hPa 0,0 l/m 11,7 km/h (2 Bft) NO 34 0 min 0,000 mm 0,0 UV-I 108 W/m 2,2 C -0,8 C 16,1 km/h (3 Bft) 92,00 %
05.12.2018 13:04 3,4 C 3,9 C 3,3 C 91 % 1028,2 hPa 0,0 l/m 11,0 km/h (2 Bft) O-NO 69 0 min 0,000 mm 0,0 UV-I 111 W/m 2,1 C -0,4 C 16,1 km/h (3 Bft) 95,74 %
05.12.2018 13:06 3,4 C 3,9 C 3,9 C 91 % 1028,2 hPa 0,0 l/m 10,0 km/h (2 Bft) O-NO 61 0 min 0,000 mm 0,0 UV-I 148 W/m 2,1 C 0,3 C 16,1 km/h (3 Bft) 95,74 %
05.12.2018 13:08 3,4 C 3,9 C 3,3 C 91 % 1028,1 hPa 0,0 l/m 12,1 km/h (2 Bft) O-NO 64 2 min 0,000 mm 0,0 UV-I 172 W/m 2,1 C -1,2 C 17,7 km/h (3 Bft) 93,62 %
05.12.2018 13:10 3,4 C 3,9 C 3,3 C 90 % 1028,1 hPa 0,0 l/m 9,3 km/h (2 Bft) O 79 0 min 0,000 mm 0,0 UV-I 115 W/m 1,9 C 0,8 C 14,5 km/h (3 Bft) 91,67 %
05.12.2018 13:12 3,3 C 3,9 C 3,3 C 91 % 1028,0 hPa 0,0 l/m 9,0 km/h (2 Bft) O-NO 66 0 min 0,000 mm 0,0 UV-I 159 W/m 2,0 C 1,0 C 12,9 km/h (3 Bft) 95,74 %
05.12.2018 13:14 3,4 C 3,9 C 3,9 C 90 % 1027,9 hPa 0,0 l/m 8,6 km/h (2 Bft) O-NO 62 2 min 0,000 mm 0,0 UV-I 235 W/m 1,9 C 1,4 C 16,1 km/h (3 Bft) 92,11 %
05.12.2018 13:16 3,4 C 3,9 C 3,9 C 90 % 1027,9 hPa 0,0 l/m 10,4 km/h (2 Bft) NO 55 2 min 0,000 mm 0,0 UV-I 216 W/m 1,9 C 0,0 C 16,1 km/h (3 Bft) 94,00 %
05.12.2018 13:18 3,5 C 3,9 C 3,9 C 90 % 1027,9 hPa 0,0 l/m 11,4 km/h (2 Bft) NO 50 0 min 0,000 mm 0,0 UV-I 140 W/m 2,0 C -0,6 C 14,5 km/h (3 Bft) 98,00 %
05.12.2018 13:20 3,6 C 3,9 C 3,9 C 89 % 1027,9 hPa 0,0 l/m 9,7 km/h (2 Bft) O-NO 60 2 min 0,000 mm 0,0 UV-I 200 W/m 2,0 C 0,8 C 12,9 km/h (3 Bft) 95,74 %
05.12.2018 13:22 3,7 C 3,9 C 3,9 C 89 % 1028,0 hPa 0,0 l/m 9,7 km/h (2 Bft) O-NO 61 2 min 0,000 mm 0,0 UV-I 173 W/m 2,1 C 0,9 C 14,5 km/h (3 Bft) 95,12 %
05.12.2018 13:24 3,7 C 3,9 C 3,9 C 88 % 1027,9 hPa 0,0 l/m 11,7 km/h (2 Bft) O-NO 71 2 min 0,000 mm 0,0 UV-I 171 W/m 1,9 C -0,5 C 19,3 km/h (3 Bft) 97,87 %
05.12.2018 13:26 3,7 C 3,9 C 3,9 C 88 % 1028,0 hPa 0,0 l/m 10,8 km/h (2 Bft) O 90 2 min 0,000 mm 0,0 UV-I 221 W/m 1,9 C 0,1 C 14,5 km/h (3 Bft) 97,87 %
05.12.2018 13:28 3,7 C 3,9 C 3,9 C 88 % 1028,0 hPa 0,0 l/m 12,5 km/h (3 Bft) O 80 2 min 0,000 mm 0,0 UV-I 217 W/m 1,9 C -1,1 C 16,1 km/h (3 Bft) 95,74 %
05.12.2018 13:30 3,8 C 3,9 C 3,9 C 87 % 1027,9 hPa 0,0 l/m 12,9 km/h (3 Bft) O-NO 67 2 min 0,000 mm 0,0 UV-I 198 W/m 1,8 C -1,2 C 16,1 km/h (3 Bft) 100,00 %
05.12.2018 13:32 3,8 C 3,9 C 3,9 C 87 % 1028,0 hPa 0,0 l/m 11,1 km/h (2 Bft) O-NO 68 2 min 0,000 mm 0,0 UV-I 201 W/m 1,8 C -0,0 C 17,7 km/h (3 Bft) 100,00 %
05.12.2018 13:34 3,9 C 3,9 C 3,9 C 87 % 1027,9 hPa 0,0 l/m 10,0 km/h (2 Bft) O-NO 67 2 min 0,000 mm 0,0 UV-I 177 W/m 1,9 C 0,9 C 14,5 km/h (3 Bft) 98,11 %
05.12.2018 13:36 3,9 C 3,9 C 3,9 C 87 % 1027,9 hPa 0,0 l/m 12,4 km/h (3 Bft) O-NO 57 2 min 0,000 mm 0,0 UV-I 154 W/m 1,9 C -0,8 C 16,1 km/h (3 Bft) 100,00 %
05.12.2018 13:38 4,0 C 3,9 C 3,9 C 86 % 1027,9 hPa 0,0 l/m 13,1 km/h (3 Bft) O-NO 71 2 min 0,000 mm 0,0 UV-I 186 W/m 1,9 C -1,1 C 19,3 km/h (3 Bft) 97,87 %
05.12.2018 13:40 4,1 C 3,9 C 3,9 C 86 % 1027,9 hPa 0,0 l/m 13,1 km/h (3 Bft) O-NO 77 2 min 0,000 mm 0,0 UV-I 187 W/m 2,0 C -1,0 C 17,7 km/h (3 Bft) 100,00 %
05.12.2018 13:42 4,1 C 3,9 C 3,9 C 86 % 1027,8 hPa 0,0 l/m 10,7 km/h (2 Bft) O-NO 78 2 min 0,000 mm 0,0 UV-I 185 W/m 2,0 C 0,6 C 16,1 km/h (3 Bft) 100,00 %
05.12.2018 13:44 4,2 C 3,9 C 3,9 C 85 % 1027,8 hPa 0,0 l/m 12,7 km/h (3 Bft) NO 52 2 min 0,000 mm 0,0 UV-I 188 W/m 1,9 C -0,6 C 17,7 km/h (3 Bft) 100,00 %
05.12.2018 13:46 4,2 C 3,9 C 3,9 C 84 % 1027,8 hPa 0,0 l/m 12,6 km/h (3 Bft) O-NO 72 0 min 0,000 mm 0,0 UV-I 139 W/m 1,7 C -0,5 C 17,7 km/h (3 Bft) 100,00 %
05.12.2018 13:48 4,2 C 3,9 C 3,9 C 84 % 1027,7 hPa 0,0 l/m 15,6 km/h (3 Bft) O-NO 71 2 min 0,000 mm 0,0 UV-I 166 W/m 1,7 C -2,2 C 20,9 km/h (4 Bft) 97,87 %
05.12.2018 13:50 4,2 C 3,9 C 3,9 C 84 % 1027,6 hPa 0,0 l/m 15,0 km/h (3 Bft) NO 48 2 min 0,000 mm 0,0 UV-I 154 W/m 1,7 C -1,9 C 20,9 km/h (4 Bft) 100,00 %
05.12.2018 13:52 4,2 C 3,9 C 3,9 C 84 % 1027,7 hPa 0,0 l/m 13,2 km/h (3 Bft) NO 53 2 min 0,000 mm 0,0 UV-I 203 W/m 1,7 C -0,9 C 20,9 km/h (4 Bft) 100,00 %
05.12.2018 13:54 4,2 C 3,9 C 3,9 C 84 % 1027,6 hPa 0,0 l/m 12,2 km/h (2 Bft) O-NO 66 2 min 0,000 mm 0,0 UV-I 183 W/m 1,7 C -0,3 C 17,7 km/h (3 Bft) 97,87 %
05.12.2018 13:56 4,3 C 3,9 C 3,9 C 84 % 1027,6 hPa 0,0 l/m 10,9 km/h (2 Bft) O-NO 74 2 min 0,000 mm 0,0 UV-I 172 W/m 1,8 C 0,7 C 16,1 km/h (3 Bft) 100,00 %
05.12.2018 13:58 4,3 C 3,9 C 3,9 C 83 % 1027,6 hPa 0,0 l/m 11,1 km/h (2 Bft) O-NO 75 2 min 0,000 mm 0,0 UV-I 159 W/m 1,7 C 0,5 C 16,1 km/h (3 Bft) 100,00 %
05.12.2018 14:00 4,3 C 3,9 C 3,9 C 83 % 1027,6 hPa 0,0 l/m 13,9 km/h (3 Bft) NO 55 2 min 0,076 mm 0,0 UV-I 189 W/m 1,7 C -1,2 C 22,5 km/h (4 Bft) 95,74 %
05.12.2018 14:02 4,3 C 3,9 C 3,9 C 83 % 1027,5 hPa 0,0 l/m 13,2 km/h (3 Bft) O-NO 62 2 min 0,000 mm 0,0 UV-I 187 W/m 1,7 C -0,8 C 17,7 km/h (3 Bft) 97,87 %
05.12.2018 14:04 4,3 C 3,9 C 3,9 C 83 % 1027,6 hPa 0,0 l/m 11,0 km/h (2 Bft) O-NO 58 2 min 0,000 mm 0,0 UV-I 198 W/m 1,7 C 0,6 C 16,1 km/h (3 Bft) 100,00 %
05.12.2018 14:06 4,3 C 3,9 C 3,9 C 83 % 1027,6 hPa 0,0 l/m 10,2 km/h (2 Bft) O 90 2 min 0,000 mm 0,0 UV-I 165 W/m 1,7 C 1,2 C 14,5 km/h (3 Bft) 97,87 %
05.12.2018 14:08 4,3 C 3,9 C 3,9 C 83 % 1027,6 hPa 0,0 l/m 13,1 km/h (3 Bft) O 81 2 min 0,000 mm 0,0 UV-I 133 W/m 1,7 C -0,7 C 19,3 km/h (3 Bft) 97,87 %
05.12.2018 14:10 4,3 C 3,9 C 3,9 C 83 % 1027,5 hPa 0,0 l/m 12,8 km/h (3 Bft) O-NO 68 0 min 0,000 mm 0,0 UV-I 98 W/m 1,7 C -0,5 C 19,3 km/h (3 Bft) 97,73 %
05.12.2018 14:12 4,2 C 3,9 C 3,3 C 82 % 1027,5 hPa 0,0 l/m 13,8 km/h (3 Bft) O 79 0 min 0,000 mm 0,0 UV-I 98 W/m 1,4 C -1,2 C 16,1 km/h (3 Bft) 97,87 %
05.12.2018 14:14 4,2 C 3,9 C 3,3 C 82 % 1027,5 hPa 0,0 l/m 11,7 km/h (2 Bft) O-NO 73 0 min 0,000 mm 0,0 UV-I 83 W/m 1,4 C 0,0 C 16,1 km/h (3 Bft) 97,87 %
05.12.2018 14:16 4,1 C 3,9 C 3,3 C 82 % 1027,4 hPa 0,0 l/m 10,4 km/h (2 Bft) O-SO 107 0 min 0,000 mm 0,0 UV-I 78 W/m 1,3 C 0,8 C 14,5 km/h (3 Bft) 96,00 %
05.12.2018 14:18 4,1 C 3,9 C 3,3 C 81 % 1027,4 hPa 0,0 l/m 13,2 km/h (3 Bft) O-SO 104 0 min 0,000 mm 0,0 UV-I 67 W/m 1,1 C -1,0 C 17,7 km/h (3 Bft) 95,74 %
05.12.2018 14:20 4,1 C 3,9 C 3,3 C 82 % 1027,5 hPa 0,0 l/m 10,9 km/h (2 Bft) O-NO 61 0 min 0,000 mm 0,0 UV-I 63 W/m 1,3 C 0,4 C 17,7 km/h (3 Bft) 95,74 %
05.12.2018 14:22 3,9 C 3,9 C 2,8 C 82 % 1027,4 hPa 0,0 l/m 10,9 km/h (2 Bft) NO 46 0 min 0,000 mm 0,0 UV-I 62 W/m 1,1 C 0,2 C 14,5 km/h (3 Bft) 97,87 %
05.12.2018 14:24 3,9 C 3,9 C 2,8 C 82 % 1027,4 hPa 0,0 l/m 12,9 km/h (3 Bft) NO 40 0 min 0,000 mm 0,0 UV-I 60 W/m 1,1 C -1,1 C 19,3 km/h (3 Bft) 95,74 %
05.12.2018 14:26 3,8 C 3,9 C 2,8 C 82 % 1027,3 hPa 0,0 l/m 12,9 km/h (3 Bft) O-NO 74 0 min 0,000 mm 0,0 UV-I 55 W/m 1,0 C -1,2 C 19,3 km/h (3 Bft) 97,22 %
05.12.2018 14:28 3,8 C 3,9 C 2,8 C 82 % 1027,3 hPa 0,0 l/m 11,2 km/h (2 Bft) O-NO 74 0 min 0,000 mm 0,0 UV-I 53 W/m 1,0 C -0,1 C 16,1 km/h (3 Bft) 98,00 %
05.12.2018 14:30 3,7 C 3,9 C 2,8 C 82 % 1027,3 hPa 0,0 l/m 11,4 km/h (2 Bft) O-NO 65 0 min 0,000 mm 0,0 UV-I 53 W/m 0,9 C -0,3 C 16,1 km/h (3 Bft) 97,87 %
05.12.2018 14:32 3,7 C 3,9 C 2,2 C 82 % 1027,3 hPa 0,0 l/m 13,3 km/h (3 Bft) O-NO 63 0 min 0,000 mm 0,0 UV-I 50 W/m 0,9 C -1,5 C 19,3 km/h (3 Bft) 98,00 %
05.12.2018 14:34 3,7 C 3,9 C 2,2 C 81 % 1027,3 hPa 0,0 l/m 11,7 km/h (2 Bft) O-NO 59 0 min 0,000 mm 0,0 UV-I 46 W/m 0,7 C -0,5 C 16,1 km/h (3 Bft) 98,00 %
05.12.2018 14:36 3,6 C 3,9 C 2,2 C 81 % 1027,2 hPa 0,0 l/m 13,6 km/h (3 Bft) O-NO 58 0 min 0,000 mm 0,0 UV-I 42 W/m 0,7 C -1,8 C 19,3 km/h (3 Bft) 97,87 %
05.12.2018 14:38 3,6 C 3,9 C 2,2 C 82 % 1027,1 hPa 0,0 l/m 9,5 km/h (2 Bft) O 79 0 min 0,000 mm 0,0 UV-I 37 W/m 0,8 C 0,9 C 14,5 km/h (3 Bft) 100,00 %
05.12.2018 14:40 3,5 C 3,9 C 2,2 C 82 % 1027,2 hPa 0,0 l/m 11,6 km/h (2 Bft) O-NO 75 0 min 0,000 mm 0,0 UV-I 35 W/m 0,7 C -0,7 C 16,1 km/h (3 Bft) 97,87 %
05.12.2018 14:42 3,4 C 3,9 C 2,2 C 82 % 1027,1 hPa 0,0 l/m 9,8 km/h (2 Bft) O-NO 65 0 min 0,000 mm 0,0 UV-I 33 W/m 0,6 C 0,5 C 14,5 km/h (3 Bft) 100,00 %
05.12.2018 14:44 3,4 C 3,9 C 2,2 C 82 % 1027,2 hPa 0,0 l/m 12,1 km/h (2 Bft) O-NO 67 0 min 0,000 mm 0,0 UV-I 33 W/m 0,6 C -1,2 C 16,1 km/h (3 Bft) 97,37 %
05.12.2018 14:46 3,4 C 3,9 C 2,2 C 82 % 1027,1 hPa 0,0 l/m 9,6 km/h (2 Bft) NO 56 0 min 0,000 mm 0,0 UV-I 33 W/m 0,6 C 0,6 C 12,9 km/h (3 Bft) 95,74 %
05.12.2018 14:48 3,3 C 3,9 C 1,7 C 83 % 1027,1 hPa 0,0 l/m 7,8 km/h (2 Bft) O-NO 76 0 min 0,000 mm 0,0 UV-I 33 W/m 0,7 C 2,0 C 11,3 km/h (2 Bft) 97,87 %
05.12.2018 14:50 3,3 C 3,9 C 1,7 C 83 % 1027,1 hPa 0,0 l/m 8,2 km/h (2 Bft) O-NO 67 0 min 0,000 mm 0,0 UV-I 33 W/m 0,7 C 1,6 C 11,3 km/h (2 Bft) 96,00 %
05.12.2018 14:52 3,2 C 3,9 C 1,7 C 83 % 1027,2 hPa 0,0 l/m 7,3 km/h (2 Bft) O 87 0 min 0,000 mm 0,0 UV-I 33 W/m 0,6 C 2,4 C 11,3 km/h (2 Bft) 95,74 %
05.12.2018 14:54 3,2 C 3,9 C 1,7 C 83 % 1027,1 hPa 0,0 l/m 7,8 km/h (2 Bft) O-NO 63 0 min 0,000 mm 0,0 UV-I 35 W/m 0,6 C 1,9 C 12,9 km/h (3 Bft) 97,87 %
05.12.2018 14:56 3,1 C 3,9 C 1,7 C 83 % 1027,2 hPa 0,0 l/m 7,8 km/h (2 Bft) O-SO 113 0 min 0,000 mm 0,0 UV-I 37 W/m 0,5 C 1,8 C 12,9 km/h (3 Bft) 97,87 %
05.12.2018 14:58 3,1 C 3,9 C 1,7 C 84 % 1027,1 hPa 0,0 l/m 6,2 km/h (2 Bft) O-NO 70 0 min 0,000 mm 0,0 UV-I 37 W/m 0,7 C 3,1 C 8,0 km/h (2 Bft) 94,00 %
05.12.2018 15:00 3,1 C 3,9 C 1,7 C 84 % 1027,2 hPa 0,0 l/m 5,5 km/h (1 Bft) NO 46 0 min 0,051 mm 0,0 UV-I 35 W/m 0,7 C 3,1 C 8,0 km/h (2 Bft) 97,87 %
05.12.2018 15:02 2,9 C 3,9 C 1,1 C 84 % 1027,2 hPa 0,0 l/m 6,3 km/h (2 Bft) O-NO 69 0 min 0,000 mm 0,0 UV-I 33 W/m 0,5 C 2,9 C 9,7 km/h (2 Bft) 97,87 %
05.12.2018 15:04 2,9 C 3,9 C 1,1 C 84 % 1027,1 hPa 0,0 l/m 6,2 km/h (2 Bft) O 88 0 min 0,000 mm 0,0 UV-I 31 W/m 0,5 C 2,9 C 11,3 km/h (2 Bft) 97,87 %
05.12.2018 15:06 2,9 C 3,9 C 1,1 C 84 % 1027,1 hPa 0,0 l/m 5,4 km/h (1 Bft) O-NO 73 0 min 0,000 mm 0,0 UV-I 30 W/m 0,5 C 2,9 C 8,0 km/h (2 Bft) 97,92 %
05.12.2018 15:08 2,9 C 3,9 C 1,1 C 84 % 1027,1 hPa 0,0 l/m 4,6 km/h (1 Bft) O 80 0 min 0,000 mm 0,0 UV-I 28 W/m 0,5 C 2,9 C 6,4 km/h (2 Bft) 94,74 %
05.12.2018 15:10 2,9 C 3,9 C 1,1 C 84 % 1027,1 hPa 0,0 l/m 5,9 km/h (2 Bft) O-NO 57 0 min 0,000 mm 0,0 UV-I 30 W/m 0,5 C 2,9 C 8,0 km/h (2 Bft) 96,00 %
05.12.2018 15:12 2,8 C 3,9 C 1,1 C 85 % 1027,0 hPa 0,0 l/m 5,8 km/h (2 Bft) O-NO 74 0 min 0,000 mm 0,0 UV-I 30 W/m 0,5 C 2,8 C 8,0 km/h (2 Bft) 92,00 %
05.12.2018 15:14 2,8 C 3,9 C 1,1 C 85 % 1026,9 hPa 0,0 l/m 5,5 km/h (1 Bft) O-NO 76 0 min 0,000 mm 0,0 UV-I 30 W/m 0,5 C 2,8 C 8,0 km/h (2 Bft) 96,00 %
05.12.2018 15:16 2,8 C 3,9 C 1,1 C 85 % 1026,9 hPa 0,0 l/m 6,1 km/h (2 Bft) O 80 0 min 0,000 mm 0,0 UV-I 30 W/m 0,5 C 2,8 C 8,0 km/h (2 Bft) 100,00 %
05.12.2018 15:18 2,7 C 3,9 C 1,1 C 85 % 1026,9 hPa 0,0 l/m 5,0 km/h (1 Bft) O-NO 67 0 min 0,000 mm 0,0 UV-I 31 W/m 0,4 C 2,7 C 8,0 km/h (2 Bft) 97,87 %
05.12.2018 15:20 2,7 C 3,9 C 1,1 C 86 % 1027,0 hPa 0,0 l/m 5,3 km/h (1 Bft) O-NO 68 0 min 0,000 mm 0,0 UV-I 33 W/m 0,6 C 2,7 C 8,0 km/h (2 Bft) 100,00 %
05.12.2018 15:22 2,6 C 3,9 C 1,1 C 86 % 1027,0 hPa 0,0 l/m 4,2 km/h (1 Bft) O 92 0 min 0,000 mm 0,0 UV-I 34 W/m 0,5 C 2,6 C 6,4 km/h (2 Bft) 97,87 %
05.12.2018 15:24 2,6 C 3,9 C 1,1 C 86 % 1027,0 hPa 0,0 l/m 4,7 km/h (1 Bft) O-NO 74 0 min 0,000 mm 0,0 UV-I 33 W/m 0,5 C 2,6 C 6,4 km/h (2 Bft) 100,00 %
05.12.2018 15:26 2,5 C 3,9 C 1,1 C 86 % 1027,0 hPa 0,0 l/m 4,5 km/h (1 Bft) O-NO 76 0 min 0,000 mm 0,0 UV-I 32 W/m 0,4 C 2,5 C 6,4 km/h (2 Bft) 100,00 %
05.12.2018 15:28 2,5 C 3,9 C 1,1 C 86 % 1027,0 hPa 0,0 l/m 4,0 km/h (1 Bft) O 80 0 min 0,000 mm 0,0 UV-I 32 W/m 0,4 C 2,5 C 6,4 km/h (2 Bft) 96,00 %
05.12.2018 15:30 2,5 C 3,9 C 1,1 C 86 % 1027,0 hPa 0,0 l/m 4,3 km/h (1 Bft) O-NO 63 0 min 0,000 mm 0,0 UV-I 30 W/m 0,4 C 2,5 C 8,0 km/h (2 Bft) 95,74 %
05.12.2018 15:32 2,4 C 3,9 C 1,1 C 87 % 1027,0 hPa 0,0 l/m 4,6 km/h (1 Bft) O-NO 59 0 min 0,000 mm 0,0 UV-I 27 W/m 0,5 C 2,4 C 8,0 km/h (2 Bft) 96,00 %
05.12.2018 15:34 2,4 C 3,9 C 1,1 C 87 % 1027,1 hPa 0,0 l/m 7,5 km/h (2 Bft) O-NO 60 0 min 0,000 mm 0,0 UV-I 24 W/m 0,5 C 1,3 C 11,3 km/h (2 Bft) 97,87 %
05.12.2018 15:36 2,4 C 3,9 C 1,1 C 87 % 1027,1 hPa 0,0 l/m 6,6 km/h (2 Bft) NO 54 0 min 0,000 mm 0,0 UV-I 22 W/m 0,5 C 2,2 C 9,7 km/h (2 Bft) 98,00 %
05.12.2018 15:38 2,4 C 3,9 C 1,1 C 87 % 1027,1 hPa 0,0 l/m 5,6 km/h (1 Bft) NO 50 0 min 0,000 mm 0,0 UV-I 21 W/m 0,5 C 2,4 C 9,7 km/h (2 Bft) 93,62 %
05.12.2018 15:40 2,4 C 3,9 C 1,1 C 87 % 1027,1 hPa 0,0 l/m 5,9 km/h (2 Bft) O-NO 65 0 min 0,000 mm 0,0 UV-I 19 W/m 0,5 C 2,4 C 9,7 km/h (2 Bft) 97,92 %
05.12.2018 15:42 2,4 C 3,9 C 1,1 C 86 % 1027,1 hPa 0,0 l/m 5,5 km/h (1 Bft) O 83 0 min 0,000 mm 0,0 UV-I 19 W/m 0,3 C 2,4 C 8,0 km/h (2 Bft) 96,00 %
05.12.2018 15:44 2,5 C 3,9 C 1,1 C 86 % 1027,2 hPa 0,0 l/m 4,9 km/h (1 Bft) O-NO 75 0 min 0,000 mm 0,0 UV-I 19 W/m 0,4 C 2,5 C 8,0 km/h (2 Bft) 95,74 %
05.12.2018 15:46 2,6 C 3,9 C 1,1 C 85 % 1027,2 hPa 0,0 l/m 5,5 km/h (1 Bft) O 84 0 min 0,000 mm 0,0 UV-I 18 W/m 0,3 C 2,6 C 8,0 km/h (2 Bft) 95,74 %
05.12.2018 15:48 2,5 C 3,9 C 0,6 C 85 % 1027,1 hPa 0,0 l/m 6,3 km/h (2 Bft) O 81 0 min 0,000 mm 0,0 UV-I 18 W/m 0,2 C 2,5 C 9,7 km/h (2 Bft) 100,00 %
05.12.2018 15:50 2,4 C 3,9 C 0,6 C 85 % 1027,1 hPa 0,0 l/m 7,8 km/h (2 Bft) O-NO 68 0 min 0,000 mm 0,0 UV-I 17 W/m 0,1 C 1,1 C 11,3 km/h (2 Bft) 100,00 %
05.12.2018 15:52 2,4 C 3,9 C 0,6 C 85 % 1027,1 hPa 0,0 l/m 8,4 km/h (2 Bft) O-NO 76 0 min 0,000 mm 0,0 UV-I 16 W/m 0,1 C 0,5 C 12,9 km/h (3 Bft) 100,00 %
05.12.2018 15:54 2,3 C 3,9 C 0,6 C 85 % 1027,1 hPa 0,0 l/m 6,5 km/h (2 Bft) NO 53 2 min 0,000 mm 0,0 UV-I 15 W/m 0,0 C 2,2 C 11,3 km/h (2 Bft) 100,00 %
05.12.2018 15:56 2,3 C 3,9 C 0,6 C 85 % 1027,1 hPa 0,0 l/m 7,2 km/h (2 Bft) O-NO 73 2 min 0,000 mm 0,0 UV-I 14 W/m 0,0 C 1,5 C 11,3 km/h (2 Bft) 95,74 %
05.12.2018 15:58 2,2 C 3,9 C 0,6 C 85 % 1027,0 hPa 0,0 l/m 6,0 km/h (2 Bft) O-NO 59 2 min 0,000 mm 0,0 UV-I 12 W/m -0,1 C 2,2 C 8,0 km/h (2 Bft) 100,00 %
05.12.2018 16:00 2,1 C 3,9 C 0,0 C 85 % 1027,1 hPa 0,0 l/m 6,0 km/h (2 Bft) O-NO 69 0 min 0,000 mm 0,0 UV-I 12 W/m -0,2 C 2,1 C 9,7 km/h (2 Bft) 97,87 %
05.12.2018 16:02 2,1 C 3,9 C 0,0 C 85 % 1027,1 hPa 0,0 l/m 7,1 km/h (2 Bft) NO 54 0 min 0,026 mm 0,0 UV-I 11 W/m -0,2 C 1,4 C 12,9 km/h (3 Bft) 100,00 %
05.12.2018 16:04 2,0 C 3,9 C 0,0 C 86 % 1027,0 hPa 0,0 l/m 6,4 km/h (2 Bft) O-NO 67 0 min 0,000 mm 0,0 UV-I 10 W/m -0,1 C 2,0 C 8,0 km/h (2 Bft) 95,74 %
05.12.2018 16:06 2,1 C 3,9 C 0,0 C 86 % 1027,0 hPa 0,0 l/m 7,0 km/h (2 Bft) O-NO 69 0 min 0,000 mm 0,0 UV-I 9 W/m 0,0 C 1,5 C 11,3 km/h (2 Bft) 97,87 %
05.12.2018 16:08 2,1 C 3,9 C 0,0 C 85 % 1026,9 hPa 0,0 l/m 7,5 km/h (2 Bft) O 80 0 min 0,000 mm 0,0 UV-I 9 W/m -0,2 C 1,0 C 12,9 km/h (3 Bft) 100,00 %
05.12.2018 16:10 2,1 C 3,9 C 0,0 C 85 % 1027,0 hPa 0,0 l/m 7,5 km/h (2 Bft) O-NO 78 0 min 0,000 mm 0,0 UV-I 7 W/m -0,2 C 1,0 C 11,3 km/h (2 Bft) 100,00 %
05.12.2018 16:12 2,1 C 3,9 C 0,0 C 84 % 1026,9 hPa 0,0 l/m 6,7 km/h (2 Bft) O-NO 72 0 min 0,000 mm 0,0 UV-I 7 W/m -0,3 C 1,8 C 9,7 km/h (2 Bft) 100,00 %
05.12.2018 16:14 2,1 C 3,9 C 0,0 C 84 % 1026,9 hPa 0,0 l/m 6,4 km/h (2 Bft) O-NO 57 0 min 0,000 mm 0,0 UV-I 7 W/m -0,3 C 2,1 C 11,3 km/h (2 Bft) 97,87 %
05.12.2018 16:16 2,0 C 3,9 C 0,0 C 84 % 1026,9 hPa 0,0 l/m 6,7 km/h (2 Bft) O-NO 75 0 min 0,000 mm 0,0 UV-I 5 W/m -0,4 C 1,7 C 11,3 km/h (2 Bft) 98,00 %
05.12.2018 16:18 2,0 C 3,9 C 0,0 C 85 % 1026,8 hPa 0,0 l/m 8,6 km/h (2 Bft) O-NO 67 0 min 0,000 mm 0,0 UV-I 5 W/m -0,3 C -0,1 C 12,9 km/h (3 Bft) 100,00 %
05.12.2018 16:20 1,9 C 3,9 C 0,0 C 84 % 1026,8 hPa 0,0 l/m 8,5 km/h (2 Bft) O-NO 76 0 min 0,000 mm 0,0 UV-I 5 W/m -0,5 C -0,1 C 12,9 km/h (3 Bft) 100,00 %
05.12.2018 16:22 1,9 C 3,9 C 0,0 C 85 % 1026,8 hPa 0,0 l/m 8,2 km/h (2 Bft) O-NO 78 0 min 0,000 mm 0,0 UV-I 5 W/m -0,3 C 0,2 C 12,9 km/h (3 Bft) 100,00 %
05.12.2018 16:24 1,9 C 3,9 C 0,0 C 85 % 1026,8 hPa 0,0 l/m 8,0 km/h (2 Bft) O-NO 71 0 min 0,000 mm 0,0 UV-I 0 W/m -0,3 C 0,3 C 12,9 km/h (3 Bft) 97,87 %
05.12.2018 16:26 1,9 C 3,9 C 0,0 C 84 % 1026,7 hPa 0,0 l/m 8,8 km/h (2 Bft) O-NO 73 0 min 0,000 mm 0,0 UV-I 0 W/m -0,5 C -0,4 C 12,9 km/h (3 Bft) 100,00 %
05.12.2018 16:28 1,9 C 3,9 C 0,0 C 84 % 1026,8 hPa 0,0 l/m 7,5 km/h (2 Bft) O-NO 65 0 min 0,000 mm 0,0 UV-I 0 W/m -0,5 C 0,8 C 11,3 km/h (2 Bft) 100,00 %
05.12.2018 16:30 1,8 C 3,9 C -0,6 C 84 % 1026,8 hPa 0,0 l/m 7,4 km/h (2 Bft) O-NO 75 0 min 0,000 mm 0,0 UV-I 0 W/m -0,6 C 0,8 C 11,3 km/h (2 Bft) 98,00 %
05.12.2018 16:32 1,8 C 3,9 C 0,0 C 84 % 1026,8 hPa 0,0 l/m 7,6 km/h (2 Bft) O-NO 76 0 min 0,000 mm 0,0 UV-I 0 W/m -0,6 C 0,6 C 11,3 km/h (2 Bft) 95,74 %
05.12.2018 16:34 1,8 C 3,9 C 0,0 C 84 % 1026,7 hPa 0,0 l/m 6,5 km/h (2 Bft) O 86 0 min 0,000 mm 0,0 UV-I 0 W/m -0,6 C 1,7 C 11,3 km/h (2 Bft) 95,74 %
05.12.2018 16:36 1,8 C 3,9 C -0,6 C 84 % 1026,7 hPa 0,0 l/m 6,4 km/h (2 Bft) O-NO 75 0 min 0,000 mm 0,0 UV-I 0 W/m -0,6 C 1,8 C 8,0 km/h (2 Bft) 97,87 %
05.12.2018 16:38 1,7 C 3,9 C -0,6 C 84 % 1026,7 hPa 0,0 l/m 7,4 km/h (2 Bft) O 86 0 min 0,000 mm 0,0 UV-I 0 W/m -0,7 C 0,7 C 9,7 km/h (2 Bft) 97,87 %
05.12.2018 16:40 1,7 C 3,9 C -0,6 C 84 % 1026,6 hPa 0,0 l/m 7,4 km/h (2 Bft) O-NO 70 0 min 0,000 mm 0,0 UV-I 0 W/m -0,7 C 0,7 C 11,3 km/h (2 Bft) 95,74 %
05.12.2018 16:42 1,7 C 3,9 C -0,6 C 84 % 1026,5 hPa 0,0 l/m 8,5 km/h (2 Bft) O-NO 63 0 min 0,000 mm 0,0 UV-I 0 W/m -0,7 C -0,3 C 12,9 km/h (3 Bft) 95,74 %
05.12.2018 16:44 1,8 C 3,9 C -0,6 C 84 % 1026,5 hPa 0,0 l/m 9,2 km/h (2 Bft) O-NO 73 0 min 0,000 mm 0,0 UV-I 0 W/m -0,6 C -0,8 C 12,9 km/h (3 Bft) 96,00 %
05.12.2018 16:46 1,8 C 3,9 C -0,6 C 84 % 1026,4 hPa 0,0 l/m 9,3 km/h (2 Bft) O-NO 61 0 min 0,000 mm 0,0 UV-I 0 W/m -0,6 C -0,9 C 14,5 km/h (3 Bft) 92,11 %
05.12.2018 16:48 1,8 C 3,9 C -0,6 C 84 % 1026,5 hPa 0,0 l/m 8,8 km/h (2 Bft) O-NO 65 0 min 0,000 mm 0,0 UV-I 0 W/m -0,6 C -0,5 C 14,5 km/h (3 Bft) 93,62 %
05.12.2018 16:50 1,8 C 3,9 C 0,0 C 84 % 1026,4 hPa 0,0 l/m 8,9 km/h (2 Bft) O-NO 78 0 min 0,000 mm 0,0 UV-I 0 W/m -0,6 C -0,6 C 12,9 km/h (3 Bft) 91,67 %
05.12.2018 16:52 1,8 C 3,9 C 0,0 C 84 % 1026,4 hPa 0,0 l/m 7,5 km/h (2 Bft) O-NO 69 0 min 0,000 mm 0,0 UV-I 0 W/m -0,6 C 0,7 C 11,3 km/h (2 Bft) 93,62 %
05.12.2018 16:54 1,7 C 3,9 C -0,6 C 84 % 1026,4 hPa 0,0 l/m 5,9 km/h (2 Bft) O 97 0 min 0,000 mm 0,0 UV-I 0 W/m -0,7 C 1,7 C 9,7 km/h (2 Bft) 94,00 %
05.12.2018 16:56 1,7 C 3,9 C 0,0 C 84 % 1026,3 hPa 0,0 l/m 9,2 km/h (2 Bft) O-NO 71 0 min 0,000 mm 0,0 UV-I 0 W/m -0,7 C -0,9 C 12,9 km/h (3 Bft) 91,49 %
05.12.2018 16:58 1,7 C 3,9 C 0,0 C 84 % 1026,3 hPa 0,0 l/m 8,0 km/h (2 Bft) O 86 0 min 0,000 mm 0,0 UV-I 0 W/m -0,7 C 0,1 C 12,9 km/h (3 Bft) 91,49 %
05.12.2018 17:00 1,7 C 3,9 C 0,0 C 84 % 1026,3 hPa 0,0 l/m 7,1 km/h (2 Bft) NO 53 0 min 0,000 mm 0,0 UV-I 0 W/m -0,7 C 1,0 C 11,3 km/h (2 Bft) 92,45 %
05.12.2018 17:02 1,7 C 3,9 C 0,0 C 84 % 1026,3 hPa 0,0 l/m 9,4 km/h (2 Bft) O-NO 71 0 min 0,000 mm 0,0 UV-I 0 W/m -0,7 C -1,1 C 14,5 km/h (3 Bft) 95,74 %
05.12.2018 17:04 1,8 C 3,9 C 0,0 C 84 % 1026,3 hPa 0,0 l/m 7,1 km/h (2 Bft) O-NO 75 0 min 0,000 mm 0,0 UV-I 0 W/m -0,6 C 1,1 C 9,7 km/h (2 Bft) 93,62 %
05.12.2018 17:06 1,7 C 3,9 C -0,6 C 84 % 1026,3 hPa 0,0 l/m 7,6 km/h (2 Bft) O 89 0 min 0,000 mm 0,0 UV-I 0 W/m -0,7 C 0,5 C 12,9 km/h (3 Bft) 95,74 %
05.12.2018 17:08 1,7 C 3,9 C 0,0 C 84 % 1026,3 hPa 0,0 l/m 8,3 km/h (2 Bft) O-NO 61 0 min 0,000 mm 0,0 UV-I 0 W/m -0,7 C -0,1 C 11,3 km/h (2 Bft) 92,11 %
05.12.2018 17:10 1,7 C 3,9 C 0,0 C 84 % 1026,3 hPa 0,0 l/m 7,4 km/h (2 Bft) O-NO 73 0 min 0,000 mm 0,0 UV-I 0 W/m -0,7 C 0,7 C 12,9 km/h (3 Bft) 96,00 %
05.12.2018 17:12 1,7 C 3,9 C 0,0 C 84 % 1026,2 hPa 0,0 l/m 7,9 km/h (2 Bft) O 92 0 min 0,000 mm 0,0 UV-I 0 W/m -0,7 C 0,2 C 14,5 km/h (3 Bft) 95,74 %
05.12.2018 17:14 1,7 C 3,9 C 0,0 C 84 % 1026,3 hPa 0,0 l/m 9,0 km/h (2 Bft) O 79 0 min 0,000 mm 0,0 UV-I 0 W/m -0,7 C -0,8 C 14,5 km/h (3 Bft) 92,11 %
05.12.2018 17:16 1,7 C 3,9 C 0,0 C 84 % 1026,3 hPa 0,0 l/m 10,5 km/h (2 Bft) O-NO 63 0 min 0,000 mm 0,0 UV-I 0 W/m -0,7 C -2,0 C 16,1 km/h (3 Bft) 96,00 %
05.12.2018 17:18 1,7 C 3,9 C 0,0 C 84 % 1026,3 hPa 0,0 l/m 9,5 km/h (2 Bft) O-NO 67 0 min 0,000 mm 0,0 UV-I 0 W/m -0,7 C -1,2 C 14,5 km/h (3 Bft) 93,62 %
05.12.2018 17:20 1,7 C 3,9 C 0,0 C 84 % 1026,3 hPa 0,0 l/m 9,9 km/h (2 Bft) O 86 0 min 0,000 mm 0,0 UV-I 0 W/m -0,7 C -1,5 C 14,5 km/h (3 Bft) 92,00 %
05.12.2018 17:22 1,8 C 3,9 C 0,0 C 84 % 1026,3 hPa 0,0 l/m 10,9 km/h (2 Bft) O-NO 69 0 min 0,000 mm 0,0 UV-I 0 W/m -0,6 C -2,1 C 16,1 km/h (3 Bft) 95,74 %
05.12.2018 17:24 1,8 C 3,9 C 0,0 C 84 % 1026,3 hPa 0,0 l/m 11,3 km/h (2 Bft) O-NO 72 0 min 0,000 mm 0,0 UV-I 0 W/m -0,6 C -2,4 C 16,1 km/h (3 Bft) 97,87 %
05.12.2018 17:26 1,8 C 3,9 C 0,0 C 84 % 1026,2 hPa 0,0 l/m 11,3 km/h (2 Bft) O-NO 74 0 min 0,000 mm 0,0 UV-I 0 W/m -0,6 C -2,4 C 16,1 km/h (3 Bft) 97,87 %
05.12.2018 17:28 1,8 C 3,9 C 0,0 C 84 % 1026,3 hPa 0,0 l/m 11,9 km/h (2 Bft) O-NO 76 0 min 0,000 mm 0,0 UV-I 0 W/m -0,6 C -2,9 C 16,1 km/h (3 Bft) 97,87 %
05.12.2018 17:30 1,8 C 3,9 C 0,0 C 84 % 1026,3 hPa 0,0 l/m 9,7 km/h (2 Bft) O 80 0 min 0,000 mm 0,0 UV-I 0 W/m -0,6 C -1,2 C 12,9 km/h (3 Bft) 93,62 %
05.12.2018 17:32 1,8 C 3,9 C 0,0 C 84 % 1026,2 hPa 0,0 l/m 9,3 km/h (2 Bft) O-NO 78 0 min 0,000 mm 0,0 UV-I 0 W/m -0,6 C -0,9 C 16,1 km/h (3 Bft) 98,00 %
05.12.2018 17:34 1,8 C 3,9 C 0,0 C 84 % 1026,2 hPa 0,0 l/m 11,3 km/h (2 Bft) O 86 0 min 0,000 mm 0,0 UV-I 0 W/m -0,6 C -2,4 C 19,3 km/h (3 Bft) 98,00 %
05.12.2018 17:36 1,8 C 3,9 C 0,0 C 83 % 1026,2 hPa 0,0 l/m 11,4 km/h (2 Bft) O 79 0 min 0,000 mm 0,0 UV-I 0 W/m -0,8 C -2,5 C 17,7 km/h (3 Bft) 97,22 %
05.12.2018 17:38 1,8 C 3,9 C 0,0 C 84 % 1026,2 hPa 0,0 l/m 12,1 km/h (2 Bft) O-NO 67 0 min 0,000 mm 0,0 UV-I 0 W/m -0,6 C -3,0 C 14,5 km/h (3 Bft) 98,04 %
05.12.2018 17:40 1,8 C 3,9 C 0,0 C 84 % 1026,2 hPa 0,0 l/m 13,3 km/h (3 Bft) O-NO 67 0 min 0,000 mm 0,0 UV-I 0 W/m -0,6 C -3,8 C 17,7 km/h (3 Bft) 100,00 %
05.12.2018 17:42 1,8 C 3,9 C 0,0 C 84 % 1026,3 hPa 0,0 l/m 12,4 km/h (3 Bft) O 86 0 min 0,000 mm 0,0 UV-I 0 W/m -0,6 C -3,2 C 16,1 km/h (3 Bft) 100,00 %
05.12.2018 17:44 1,7 C 3,9 C 0,0 C 84 % 1026,3 hPa 0,0 l/m 11,2 km/h (2 Bft) O 82 0 min 0,000 mm 0,0 UV-I 0 W/m -0,7 C -2,5 C 14,5 km/h (3 Bft) 95,74 %
05.12.2018 17:46 1,8 C 3,9 C 0,0 C 84 % 1026,3 hPa 0,0 l/m 11,0 km/h (2 Bft) O-NO 63 0 min 0,000 mm 0,0 UV-I 0 W/m -0,6 C -2,2 C 14,5 km/h (3 Bft) 100,00 %
05.12.2018 17:48 1,7 C 3,9 C 0,0 C 84 % 1026,3 hPa 0,0 l/m 12,9 km/h (3 Bft) O-NO 76 0 min 0,000 mm 0,0 UV-I 0 W/m -0,7 C -3,6 C 16,1 km/h (3 Bft) 97,87 %
05.12.2018 17:50 1,8 C 3,9 C 0,0 C 84 % 1026,3 hPa 0,0 l/m 12,0 km/h (2 Bft) O-NO 65 0 min 0,000 mm 0,0 UV-I 0 W/m -0,6 C -2,9 C 16,1 km/h (3 Bft) 97,87 %
05.12.2018 17:52 1,7 C 3,9 C 0,0 C 84 % 1026,2 hPa 0,0 l/m 11,4 km/h (2 Bft) O 81 0 min 0,000 mm 0,0 UV-I 0 W/m -0,7 C -2,6 C 16,1 km/h (3 Bft) 97,87 %
05.12.2018 17:54 1,7 C 3,9 C 0,6 C 84 % 1026,2 hPa 0,0 l/m 13,0 km/h (3 Bft) O 81 0 min 0,000 mm 0,0 UV-I 0 W/m -0,7 C -3,7 C 16,1 km/h (3 Bft) 97,87 %
05.12.2018 17:56 1,8 C 3,9 C 0,0 C 84 % 1026,2 hPa 0,0 l/m 13,8 km/h (3 Bft) O-NO 76 0 min 0,000 mm 0,0 UV-I 0 W/m -0,6 C -4,1 C 17,7 km/h (3 Bft) 97,87 %
05.12.2018 17:58 1,8 C 3,9 C 0,0 C 84 % 1026,1 hPa 0,0 l/m 15,1 km/h (3 Bft) O-NO 59 0 min 0,000 mm 0,0 UV-I 0 W/m -0,6 C -4,9 C 20,9 km/h (4 Bft) 97,87 %
05.12.2018 18:00 1,7 C 3,9 C 0,0 C 84 % 1026,1 hPa 0,0 l/m 15,3 km/h (3 Bft) O-NO 69 0 min 0,025 mm 0,0 UV-I 0 W/m -0,7 C -5,1 C 19,3 km/h (3 Bft) 97,87 %
05.12.2018 18:02 1,7 C 3,9 C 0,0 C 84 % 1026,0 hPa 0,0 l/m 15,9 km/h (3 Bft) O-NO 66 0 min 0,000 mm 0,0 UV-I 0 W/m -0,7 C -5,4 C 20,9 km/h (4 Bft) 95,74 %
05.12.2018 18:04 1,7 C 3,9 C 0,0 C 84 % 1026,0 hPa 0,0 l/m 14,0 km/h (3 Bft) O-NO 60 0 min 0,000 mm 0,0 UV-I 0 W/m -0,7 C -4,3 C 19,3 km/h (3 Bft) 95,83 %
05.12.2018 18:06 1,7 C 3,9 C 0,0 C 84 % 1026,0 hPa 0,0 l/m 13,0 km/h (3 Bft) O-NO 58 0 min 0,000 mm 0,0 UV-I 0 W/m -0,7 C -3,7 C 16,1 km/h (3 Bft) 98,39 %
05.12.2018 18:08 1,7 C 3,9 C 0,0 C 84 % 1026,0 hPa 0,0 l/m 13,7 km/h (3 Bft) O-NO 78 0 min 0,000 mm 0,0 UV-I 0 W/m -0,7 C -4,1 C 17,7 km/h (3 Bft) 97,87 %
05.12.2018 18:10 1,7 C 3,9 C 0,0 C 84 % 1026,0 hPa 0,0 l/m 13,1 km/h (3 Bft) O-NO 73 0 min 0,000 mm 0,0 UV-I 0 W/m -0,7 C -3,8 C 17,7 km/h (3 Bft) 95,74 %
05.12.2018 18:12 1,7 C 3,9 C 0,0 C 84 % 1026,0 hPa 0,0 l/m 13,8 km/h (3 Bft) O 92 0 min 0,000 mm 0,0 UV-I 0 W/m -0,7 C -4,2 C 19,3 km/h (3 Bft) 97,87 %
05.12.2018 18:14 1,7 C 3,9 C 0,0 C 84 % 1026,0 hPa 0,0 l/m 15,4 km/h (3 Bft) O-NO 74 0 min 0,000 mm 0,0 UV-I 0 W/m -0,7 C -5,1 C 22,5 km/h (4 Bft) 98,11 %
05.12.2018 18:16 1,7 C 3,9 C 0,0 C 84 % 1026,0 hPa 0,0 l/m 15,5 km/h (3 Bft) O-NO 71 0 min 0,000 mm 0,0 UV-I 0 W/m -0,7 C -5,2 C 20,9 km/h (4 Bft) 97,87 %
05.12.2018 18:18 1,7 C 3,9 C 0,0 C 84 % 1025,9 hPa 0,0 l/m 15,6 km/h (3 Bft) O-NO 71 0 min 0,000 mm 0,0 UV-I 0 W/m -0,7 C -5,3 C 20,9 km/h (4 Bft) 100,00 %
05.12.2018 18:20 1,7 C 3,9 C 0,0 C 84 % 1025,9 hPa 0,0 l/m 15,3 km/h (3 Bft) O 84 0 min 0,000 mm 0,0 UV-I 0 W/m -0,7 C -5,1 C 19,3 km/h (3 Bft) 100,00 %
05.12.2018 18:22 1,7 C 3,9 C 0,0 C 84 % 1025,8 hPa 0,0 l/m 15,5 km/h (3 Bft) O-NO 66 0 min 0,000 mm 0,0 UV-I 0 W/m -0,7 C -5,2 C 19,3 km/h (3 Bft) 97,87 %
05.12.2018 18:24 1,7 C 3,9 C 0,0 C 84 % 1025,8 hPa 0,0 l/m 16,0 km/h (3 Bft) O-NO 76 0 min 0,000 mm 0,0 UV-I 0 W/m -0,7 C -5,5 C 22,5 km/h (4 Bft) 96,00 %
05.12.2018 18:26 1,7 C 3,9 C 0,0 C 84 % 1025,8 hPa 0,0 l/m 13,2 km/h (3 Bft) O-NO 76 0 min 0,000 mm 0,0 UV-I 0 W/m -0,7 C -3,8 C 22,5 km/h (4 Bft) 100,00 %
05.12.2018 18:28 1,7 C 3,9 C 0,0 C 84 % 1025,8 hPa 0,0 l/m 14,4 km/h (3 Bft) O 98 0 min 0,000 mm 0,0 UV-I 0 W/m -0,7 C -4,6 C 20,9 km/h (4 Bft) 98,00 %
05.12.2018 18:30 1,7 C 3,9 C 0,0 C 84 % 1025,8 hPa 0,0 l/m 14,5 km/h (3 Bft) O 94 0 min 0,000 mm 0,0 UV-I 0 W/m -0,7 C -4,6 C 19,3 km/h (3 Bft) 95,74 %
05.12.2018 18:32 1,7 C 3,9 C 0,0 C 84 % 1025,8 hPa 0,0 l/m 13,5 km/h (3 Bft) O 84 0 min 0,000 mm 0,0 UV-I 0 W/m -0,7 C -4,0 C 17,7 km/h (3 Bft) 100,00 %
05.12.2018 18:34 1,7 C 3,9 C 0,6 C 84 % 1025,8 hPa 0,0 l/m 16,8 km/h (3 Bft) O 97 0 min 0,000 mm 0,0 UV-I 0 W/m -0,7 C -5,9 C 22,5 km/h (4 Bft) 100,00 %
05.12.2018 18:36 1,7 C 3,9 C 0,6 C 83 % 1025,7 hPa 0,0 l/m 15,4 km/h (3 Bft) O-NO 71 0 min 0,000 mm 0,0 UV-I 0 W/m -0,9 C -5,1 C 20,9 km/h (4 Bft) 100,00 %
05.12.2018 18:38 1,8 C 3,9 C 0,0 C 83 % 1025,8 hPa 0,0 l/m 14,9 km/h (3 Bft) NO 53 0 min 0,000 mm 0,0 UV-I 0 W/m -0,8 C -4,7 C 20,9 km/h (4 Bft) 100,00 %
05.12.2018 18:40 1,8 C 3,9 C 0,6 C 83 % 1025,8 hPa 0,0 l/m 15,9 km/h (3 Bft) O-SO 109 0 min 0,000 mm 0,0 UV-I 0 W/m -0,8 C -5,3 C 22,5 km/h (4 Bft) 100,00 %
05.12.2018 18:42 1,8 C 3,9 C 0,0 C 83 % 1025,8 hPa 0,0 l/m 13,3 km/h (3 Bft) O-NO 77 0 min 0,000 mm 0,0 UV-I 0 W/m -0,8 C -3,8 C 19,3 km/h (3 Bft) 97,87 %
05.12.2018 18:44 1,8 C 3,9 C 0,6 C 83 % 1025,7 hPa 0,0 l/m 17,0 km/h (3 Bft) O-NO 77 0 min 0,000 mm 0,0 UV-I 0 W/m -0,8 C -5,9 C 24,1 km/h (4 Bft) 100,00 %
05.12.2018 18:46 1,8 C 3,9 C 0,6 C 83 % 1025,7 hPa 0,0 l/m 13,9 km/h (3 Bft) O 83 0 min 0,000 mm 0,0 UV-I 0 W/m -0,8 C -4,2 C 19,3 km/h (3 Bft) 100,00 %
05.12.2018 18:48 1,8 C 3,9 C 0,6 C 83 % 1025,7 hPa 0,0 l/m 16,1 km/h (3 Bft) O 101 0 min 0,000 mm 0,0 UV-I 0 W/m -0,8 C -5,4 C 22,5 km/h (4 Bft) 100,00 %
05.12.2018 18:50 1,8 C 3,9 C 0,6 C 83 % 1025,8 hPa 0,0 l/m 15,3 km/h (3 Bft) O 90 0 min 0,000 mm 0,0 UV-I 0 W/m -0,8 C -5,0 C 20,9 km/h (4 Bft) 100,00 %
05.12.2018 18:52 1,8 C 3,9 C 0,6 C 83 % 1025,7 hPa 0,0 l/m 14,0 km/h (3 Bft) O 79 0 min 0,000 mm 0,0 UV-I 0 W/m -0,8 C -4,2 C 20,9 km/h (4 Bft) 97,87 %
05.12.2018 18:54 1,8 C 3,9 C 0,6 C 83 % 1025,7 hPa 0,0 l/m 16,2 km/h (3 Bft) O 90 0 min 0,000 mm 0,0 UV-I 0 W/m -0,8 C -5,5 C 22,5 km/h (4 Bft) 93,62 %
05.12.2018 18:56 1,7 C 3,9 C 0,6 C 83 % 1025,7 hPa 0,0 l/m 15,5 km/h (3 Bft) O 91 0 min 0,000 mm 0,0 UV-I 0 W/m -0,9 C -5,2 C 22,5 km/h (4 Bft) 96,00 %
05.12.2018 18:59 1,7 C 3,9 C 0,6 C 83 % 1025,8 hPa 0,0 l/m 10,9 km/h (2 Bft) O-NO 77 0 min 0,000 mm 0,0 UV-I 0 W/m -0,9 C -2,3 C 17,7 km/h (3 Bft) 97,26 %
05.12.2018 19:00 1,7 C 3,9 C 0,0 C 83 % 1025,8 hPa 0,0 l/m 14,3 km/h (3 Bft) O 96 0 min 0,025 mm 0,0 UV-I 0 W/m -0,9 C -4,5 C 19,3 km/h (3 Bft) 91,67 %
05.12.2018 19:02 1,7 C 3,9 C 0,0 C 83 % 1025,6 hPa 0,0 l/m 13,2 km/h (3 Bft) O 101 0 min 0,000 mm 0,0 UV-I 0 W/m -0,9 C -3,8 C 17,7 km/h (3 Bft) 96,00 %
05.12.2018 19:04 1,6 C 3,9 C 0,0 C 83 % 1025,7 hPa 0,0 l/m 12,5 km/h (3 Bft) NO 51 0 min 0,000 mm 0,0 UV-I 0 W/m -1,0 C -3,5 C 20,9 km/h (4 Bft) 97,87 %
05.12.2018 19:06 1,7 C 3,9 C 0,0 C 83 % 1025,7 hPa 0,0 l/m 16,0 km/h (3 Bft) O-NO 74 0 min 0,000 mm 0,0 UV-I 0 W/m -0,9 C -5,5 C 20,9 km/h (4 Bft) 95,74 %
05.12.2018 19:08 1,7 C 3,9 C 0,6 C 83 % 1025,7 hPa 0,0 l/m 16,1 km/h (3 Bft) O 94 0 min 0,000 mm 0,0 UV-I 0 W/m -0,9 C -5,5 C 20,9 km/h (4 Bft) 95,74 %
05.12.2018 19:10 1,7 C 3,9 C 0,6 C 83 % 1025,6 hPa 0,0 l/m 16,3 km/h (3 Bft) O-NO 78 0 min 0,000 mm 0,0 UV-I 0 W/m -0,9 C -5,6 C 24,1 km/h (4 Bft) 95,74 %
05.12.2018 19:12 1,7 C 3,9 C 0,6 C 83 % 1025,5 hPa 0,0 l/m 16,1 km/h (3 Bft) O 94 0 min 0,000 mm 0,0 UV-I 0 W/m -0,9 C -5,5 C 20,9 km/h (4 Bft) 93,62 %
05.12.2018 19:14 1,7 C 3,9 C 0,6 C 83 % 1025,6 hPa 0,0 l/m 14,7 km/h (3 Bft) O-NO 71 0 min 0,000 mm 0,0 UV-I 0 W/m -0,9 C -4,7 C 20,9 km/h (4 Bft) 95,74 %
05.12.2018 19:16 1,6 C 3,9 C 0,6 C 83 % 1025,6 hPa 0,0 l/m 15,0 km/h (3 Bft) O 84 0 min 0,000 mm 0,0 UV-I 0 W/m -1,0 C -5,0 C 20,9 km/h (4 Bft) 95,74 %
05.12.2018 19:18 1,5 C 3,9 C 0,6 C 83 % 1025,6 hPa 0,0 l/m 15,7 km/h (3 Bft) O-NO 66 0 min 0,000 mm 0,0 UV-I 0 W/m -1,1 C -5,6 C 20,9 km/h (4 Bft) 95,74 %
05.12.2018 19:20 1,5 C 3,9 C 0,0 C 84 % 1025,5 hPa 0,0 l/m 16,1 km/h (3 Bft) O-NO 69 0 min 0,000 mm 0,0 UV-I 0 W/m -0,9 C -5,8 C 20,9 km/h (4 Bft) 90,00 %
05.12.2018 19:22 1,5 C 3,9 C 0,6 C 84 % 1025,5 hPa 0,0 l/m 18,1 km/h (3 Bft) O-NO 74 0 min 0,000 mm 0,0 UV-I 0 W/m -0,9 C -6,8 C 22,5 km/h (4 Bft) 95,74 %
05.12.2018 19:24 1,4 C 3,9 C 0,6 C 84 % 1025,5 hPa 0,0 l/m 16,3 km/h (3 Bft) O-NO 78 0 min 0,000 mm 0,0 UV-I 0 W/m -1,0 C -6,0 C 25,7 km/h (4 Bft) 91,49 %
05.12.2018 19:26 1,4 C 3,9 C 0,6 C 84 % 1025,4 hPa 0,0 l/m 16,9 km/h (3 Bft) O-NO 74 0 min 0,000 mm 0,0 UV-I 0 W/m -1,0 C -6,3 C 24,1 km/h (4 Bft) 95,74 %
05.12.2018 19:28 1,5 C 3,9 C 0,6 C 84 % 1025,5 hPa 0,0 l/m 15,3 km/h (3 Bft) O 85 0 min 0,000 mm 0,0 UV-I 0 W/m -0,9 C -5,3 C 20,9 km/h (4 Bft) 97,87 %
05.12.2018 19:30 1,5 C 3,9 C 0,6 C 84 % 1025,4 hPa 0,0 l/m 17,5 km/h (3 Bft) O-NO 75 0 min 0,000 mm 0,0 UV-I 0 W/m -0,9 C -6,5 C 22,5 km/h (4 Bft) 95,83 %
05.12.2018 19:32 1,5 C 3,9 C 0,6 C 84 % 1025,3 hPa 0,0 l/m 18,7 km/h (3 Bft) O 84 0 min 0,000 mm 0,0 UV-I 0 W/m -0,9 C -7,1 C 22,5 km/h (4 Bft) 100,00 %
05.12.2018 19:35 1,6 C 3,9 C 0,6 C 84 % 1025,3 hPa 0,0 l/m 16,7 km/h (3 Bft) O-NO 78 0 min 0,000 mm 0,0 UV-I 0 W/m -0,8 C -6,0 C 27,4 km/h (4 Bft) 98,57 %
05.12.2018 19:36 1,5 C 3,9 C 0,6 C 84 % 1025,3 hPa 0,0 l/m 13,9 km/h (3 Bft) O 84 0 min 0,000 mm 0,0 UV-I 0 W/m -0,9 C -4,5 C 19,3 km/h (3 Bft) 100,00 %
05.12.2018 19:38 1,5 C 3,9 C 0,6 C 84 % 1025,4 hPa 0,0 l/m 14,7 km/h (3 Bft) O-SO 106 0 min 0,000 mm 0,0 UV-I 0 W/m -0,9 C -5,0 C 20,9 km/h (4 Bft) 100,00 %
05.12.2018 19:40 1,5 C 3,9 C 0,6 C 84 % 1025,5 hPa 0,0 l/m 12,4 km/h (3 Bft) O 93 0 min 0,000 mm 0,0 UV-I 0 W/m -0,9 C -3,5 C 17,7 km/h (3 Bft) 97,87 %
05.12.2018 19:42 1,5 C 3,9 C 0,0 C 84 % 1025,4 hPa 0,0 l/m 11,8 km/h (2 Bft) O-NO 74 0 min 0,000 mm 0,0 UV-I 0 W/m -0,9 C -3,1 C 16,1 km/h (3 Bft) 100,00 %
05.12.2018 19:44 1,4 C 3,9 C 0,0 C 84 % 1025,3 hPa 0,0 l/m 15,0 km/h (3 Bft) O-NO 74 0 min 0,000 mm 0,0 UV-I 0 W/m -1,0 C -5,3 C 20,9 km/h (4 Bft) 100,00 %
05.12.2018 19:46 1,5 C 3,9 C 0,0 C 84 % 1025,3 hPa 0,0 l/m 14,2 km/h (3 Bft) O-NO 74 0 min 0,000 mm 0,0 UV-I 0 W/m -0,9 C -4,7 C 20,9 km/h (4 Bft) 100,00 %
05.12.2018 19:48 1,4 C 3,9 C 0,0 C 84 % 1025,3 hPa 0,0 l/m 13,8 km/h (3 Bft) O 90 0 min 0,000 mm 0,0 UV-I 0 W/m -1,0 C -4,6 C 17,7 km/h (3 Bft) 100,00 %
05.12.2018 19:50 1,4 C 3,9 C 0,0 C 84 % 1025,3 hPa 0,0 l/m 12,6 km/h (3 Bft) O 99 0 min 0,000 mm 0,0 UV-I 0 W/m -1,0 C -3,8 C 22,5 km/h (4 Bft) 100,00 %
05.12.2018 19:52 1,4 C 3,9 C 0,0 C 84 % 1025,3 hPa 0,0 l/m 12,2 km/h (2 Bft) O-NO 71 0 min 0,000 mm 0,0 UV-I 0 W/m -1,0 C -3,5 C 19,3 km/h (3 Bft) 100,00 %
05.12.2018 19:54 1,3 C 3,9 C 0,0 C 84 % 1025,3 hPa 0,0 l/m 15,1 km/h (3 Bft) O 91 0 min 0,000 mm 0,0 UV-I 0 W/m -1,1 C -5,5 C 20,9 km/h (4 Bft) 100,00 %
05.12.2018 19:56 1,3 C 3,9 C 0,0 C 84 % 1025,3 hPa 0,0 l/m 14,9 km/h (3 Bft) O-NO 74 0 min 0,000 mm 0,0 UV-I 0 W/m -1,1 C -5,3 C 19,3 km/h (3 Bft) 95,74 %
05.12.2018 19:58 1,3 C 3,9 C 0,0 C 85 % 1025,3 hPa 0,0 l/m 13,8 km/h (3 Bft) O 85 0 min 0,000 mm 0,0 UV-I 0 W/m -0,9 C -4,7 C 19,3 km/h (3 Bft) 97,87 %
05.12.2018 20:00 1,3 C 3,9 C 0,0 C 85 % 1025,3 hPa 0,0 l/m 15,8 km/h (3 Bft) O 92 0 min 0,000 mm 0,0 UV-I 0 W/m -0,9 C -5,9 C 22,5 km/h (4 Bft) 100,00 %
05.12.2018 20:02 1,3 C 3,9 C 0,0 C 85 % 1025,2 hPa 0,0 l/m 17,5 km/h (3 Bft) O 101 0 min 0,026 mm 0,0 UV-I 0 W/m -0,9 C -6,8 C 22,5 km/h (4 Bft) 97,87 %
05.12.2018 20:04 1,3 C 3,9 C 0,0 C 85 % 1025,2 hPa 0,0 l/m 13,8 km/h (3 Bft) O-NO 75 0 min 0,000 mm 0,0 UV-I 0 W/m -0,9 C -4,7 C 22,5 km/h (4 Bft) 100,00 %
05.12.2018 20:06 1,3 C 3,9 C 0,0 C 85 % 1025,1 hPa 0,0 l/m 17,3 km/h (3 Bft) O 88 0 min 0,000 mm 0,0 UV-I 0 W/m -0,9 C -6,7 C 24,1 km/h (4 Bft) 100,00 %
05.12.2018 20:08 1,3 C 3,9 C 0,0 C 85 % 1025,1 hPa 0,0 l/m 17,3 km/h (3 Bft) O 86 0 min 0,000 mm 0,0 UV-I 0 W/m -0,9 C -6,7 C 25,7 km/h (4 Bft) 100,00 %
05.12.2018 20:10 1,3 C 3,9 C 0,0 C 85 % 1025,1 hPa 0,0 l/m 16,0 km/h (3 Bft) O 98 0 min 0,000 mm 0,0 UV-I 0 W/m -0,9 C -6,0 C 24,1 km/h (4 Bft) 100,00 %
05.12.2018 20:12 1,3 C 3,9 C 0,0 C 85 % 1025,0 hPa 0,0 l/m 15,4 km/h (3 Bft) O 88 0 min 0,000 mm 0,0 UV-I 0 W/m -0,9 C -5,6 C 24,1 km/h (4 Bft) 100,00 %
05.12.2018 20:14 1,3 C 3,9 C 0,0 C 85 % 1025,0 hPa 0,0 l/m 16,9 km/h (3 Bft) O 81 0 min 0,000 mm 0,0 UV-I 0 W/m -0,9 C -6,5 C 27,4 km/h (4 Bft) 100,00 %
05.12.2018 20:16 1,3 C 3,9 C 0,0 C 85 % 1025,0 hPa 0,0 l/m 15,9 km/h (3 Bft) O 96 0 min 0,000 mm 0,0 UV-I 0 W/m -0,9 C -5,9 C 22,5 km/h (4 Bft) 97,87 %
05.12.2018 20:18 1,3 C 3,9 C 0,0 C 85 % 1024,9 hPa 0,0 l/m 16,1 km/h (3 Bft) O-NO 75 0 min 0,000 mm 0,0 UV-I 0 W/m -0,9 C -6,0 C 22,5 km/h (4 Bft) 97,87 %
05.12.2018 20:20 1,3 C 3,9 C 0,6 C 85 % 1024,9 hPa 0,0 l/m 19,3 km/h (3 Bft) O 80 0 min 0,000 mm 0,0 UV-I 0 W/m -0,9 C -7,6 C 27,4 km/h (4 Bft) 94,00 %
05.12.2018 20:22 1,3 C 3,9 C 0,6 C 85 % 1024,8 hPa 0,0 l/m 17,6 km/h (3 Bft) O 93 0 min 0,000 mm 0,0 UV-I 0 W/m -0,9 C -6,8 C 27,4 km/h (4 Bft) 96,00 %
05.12.2018 20:24 1,3 C 3,9 C 0,6 C 85 % 1024,8 hPa 0,0 l/m 14,5 km/h (3 Bft) O-NO 70 0 min 0,000 mm 0,0 UV-I 0 W/m -0,9 C -5,1 C 20,9 km/h (4 Bft) 97,87 %
05.12.2018 20:26 1,3 C 3,9 C 0,6 C 85 % 1024,9 hPa 0,0 l/m 17,8 km/h (3 Bft) O 89 0 min 0,000 mm 0,0 UV-I 0 W/m -0,9 C -6,9 C 25,7 km/h (4 Bft) 95,74 %
05.12.2018 20:28 1,3 C 3,9 C 0,6 C 85 % 1024,8 hPa 0,0 l/m 15,7 km/h (3 Bft) O-SO 102 0 min 0,000 mm 0,0 UV-I 0 W/m -0,9 C -5,8 C 22,5 km/h (4 Bft) 95,74 %
05.12.2018 20:30 1,3 C 3,9 C 0,6 C 85 % 1024,8 hPa 0,0 l/m 17,4 km/h (3 Bft) O-NO 77 0 min 0,000 mm 0,0 UV-I 0 W/m -0,9 C -6,7 C 22,5 km/h (4 Bft) 97,37 %
05.12.2018 20:32 1,3 C 3,9 C 0,6 C 85 % 1024,8 hPa 0,0 l/m 14,1 km/h (3 Bft) O 100 0 min 0,000 mm 0,0 UV-I 0 W/m -0,9 C -4,9 C 19,3 km/h (3 Bft) 95,74 %
05.12.2018 20:34 1,3 C 3,9 C 0,6 C 85 % 1024,8 hPa 0,0 l/m 15,9 km/h (3 Bft) O 88 0 min 0,000 mm 0,0 UV-I 0 W/m -0,9 C -5,9 C 22,5 km/h (4 Bft) 96,00 %
05.12.2018 20:36 1,3 C 3,9 C 0,6 C 85 % 1024,7 hPa 0,0 l/m 17,6 km/h (3 Bft) O 84 0 min 0,000 mm 0,0 UV-I 0 W/m -0,9 C -6,8 C 27,4 km/h (4 Bft) 98,00 %
05.12.2018 20:39 1,3 C 3,9 C 0,6 C 85 % 1024,8 hPa 0,0 l/m 14,4 km/h (3 Bft) O 84 0 min 0,000 mm 0,0 UV-I 0 W/m -0,9 C -5,1 C 20,9 km/h (4 Bft) 95,95 %
05.12.2018 20:40 1,3 C 3,9 C 0,6 C 85 % 1024,8 hPa 0,0 l/m 16,0 km/h (3 Bft) O-NO 71 0 min 0,000 mm 0,0 UV-I 0 W/m -0,9 C -6,0 C 19,3 km/h (3 Bft) 95,45 %
05.12.2018 20:42 1,3 C 3,9 C 0,6 C 85 % 1024,8 hPa 0,0 l/m 13,5 km/h (3 Bft) O 88 0 min 0,000 mm 0,0 UV-I 0 W/m -0,9 C -4,5 C 19,3 km/h (3 Bft) 100,00 %
05.12.2018 20:44 1,3 C 3,9 C 0,6 C 85 % 1024,7 hPa 0,0 l/m 16,1 km/h (3 Bft) O 89 0 min 0,000 mm 0,0 UV-I 0 W/m -0,9 C -6,0 C 22,5 km/h (4 Bft) 97,87 %
05.12.2018 20:46 1,3 C 3,9 C 0,6 C 85 % 1024,8 hPa 0,0 l/m 16,7 km/h (3 Bft) O 98 0 min 0,000 mm 0,0 UV-I 0 W/m -0,9 C -6,3 C 24,1 km/h (4 Bft) 100,00 %
05.12.2018 20:48 1,3 C 3,9 C 0,6 C 85 % 1024,7 hPa 0,0 l/m 13,8 km/h (3 Bft) O 87 0 min 0,000 mm 0,0 UV-I 0 W/m -0,9 C -4,7 C 17,7 km/h (3 Bft) 97,87 %
05.12.2018 20:50 1,3 C 3,9 C 0,6 C 85 % 1024,7 hPa 0,0 l/m 15,9 km/h (3 Bft) O-NO 65 0 min 0,000 mm 0,0 UV-I 0 W/m -0,9 C -5,9 C 19,3 km/h (3 Bft) 100,00 %
05.12.2018 20:52 1,3 C 3,9 C 0,6 C 85 % 1024,6 hPa 0,0 l/m 12,9 km/h (3 Bft) O 84 0 min 0,000 mm 0,0 UV-I 0 W/m -0,9 C -4,1 C 17,7 km/h (3 Bft) 100,00 %
05.12.2018 20:54 1,3 C 3,9 C 0,6 C 85 % 1024,6 hPa 0,0 l/m 10,6 km/h (2 Bft) O 90 0 min 0,000 mm 0,0 UV-I 0 W/m -0,9 C -2,5 C 17,7 km/h (3 Bft) 97,87 %
05.12.2018 20:56 1,3 C 3,9 C 0,6 C 85 % 1024,6 hPa 0,0 l/m 12,6 km/h (3 Bft) O 82 0 min 0,000 mm 0,0 UV-I 0 W/m -0,9 C -3,9 C 17,7 km/h (3 Bft) 96,00 %
05.12.2018 20:58 1,3 C 3,9 C 0,6 C 86 % 1024,4 hPa 0,0 l/m 13,6 km/h (3 Bft) O 98 0 min 0,000 mm 0,0 UV-I 0 W/m -0,8 C -4,6 C 19,3 km/h (3 Bft) 95,74 %
05.12.2018 21:00 1,3 C 3,9 C 0,6 C 86 % 1024,4 hPa 0,0 l/m 13,4 km/h (3 Bft) O-SO 109 0 min 0,025 mm 0,0 UV-I 0 W/m -0,8 C -4,4 C 17,7 km/h (3 Bft) 93,62 %
05.12.2018 21:02 1,3 C 3,9 C 0,6 C 85 % 1024,4 hPa 0,0 l/m 15,4 km/h (3 Bft) O-NO 78 0 min 0,000 mm 0,0 UV-I 0 W/m -0,9 C -5,6 C 19,3 km/h (3 Bft) 91,49 %
05.12.2018 21:04 1,3 C 3,9 C 0,6 C 85 % 1024,3 hPa 0,0 l/m 12,8 km/h (3 Bft) O 87 0 min 0,000 mm 0,0 UV-I 0 W/m -0,9 C -4,0 C 17,7 km/h (3 Bft) 97,37 %
05.12.2018 21:06 1,3 C 3,9 C 0,6 C 86 % 1024,3 hPa 0,0 l/m 12,6 km/h (3 Bft) O-NO 72 0 min 0,000 mm 0,0 UV-I 0 W/m -0,8 C -3,9 C 17,7 km/h (3 Bft) 93,62 %
05.12.2018 21:08 1,2 C 3,9 C 0,6 C 86 % 1024,3 hPa 0,0 l/m 14,0 km/h (3 Bft) O-NO 71 0 min 0,000 mm 0,0 UV-I 0 W/m -0,9 C -4,9 C 17,7 km/h (3 Bft) 92,00 %
05.12.2018 21:10 1,2 C 3,9 C 0,6 C 86 % 1024,3 hPa 0,0 l/m 16,2 km/h (3 Bft) O-NO 70 0 min 0,000 mm 0,0 UV-I 0 W/m -0,9 C -6,2 C 24,1 km/h (4 Bft) 95,74 %
05.12.2018 21:12 1,2 C 3,9 C 0,6 C 86 % 1024,2 hPa 0,0 l/m 17,1 km/h (3 Bft) O-NO 67 0 min 0,000 mm 0,0 UV-I 0 W/m -0,9 C -6,7 C 22,5 km/h (4 Bft) 95,74 %
05.12.2018 21:14 1,2 C 3,9 C 0,6 C 86 % 1024,2 hPa 0,0 l/m 16,5 km/h (3 Bft) O 86 0 min 0,000 mm 0,0 UV-I 0 W/m -0,9 C -6,4 C 22,5 km/h (4 Bft) 93,62 %
05.12.2018 21:16 1,2 C 3,9 C 0,6 C 86 % 1024,1 hPa 0,0 l/m 13,5 km/h (3 Bft) O-SO 109 0 min 0,000 mm 0,0 UV-I 0 W/m -0,9 C -4,6 C 20,9 km/h (4 Bft) 95,74 %
05.12.2018 21:18 1,2 C 3,9 C 0,6 C 86 % 1024,0 hPa 0,0 l/m 15,0 km/h (3 Bft) O-NO 57 0 min 0,000 mm 0,0 UV-I 0 W/m -0,9 C -5,5 C 24,1 km/h (4 Bft) 96,00 %
05.12.2018 21:20 1,2 C 3,9 C 0,6 C 86 % 1024,0 hPa 0,0 l/m 14,3 km/h (3 Bft) O-NO 67 0 min 0,000 mm 0,0 UV-I 0 W/m -0,9 C -5,1 C 17,7 km/h (3 Bft) 93,62 %
05.12.2018 21:22 1,2 C 3,9 C 0,6 C 86 % 1024,0 hPa 0,0 l/m 14,5 km/h (3 Bft) O-NO 71 0 min 0,000 mm 0,0 UV-I 0 W/m -0,9 C -5,2 C 19,3 km/h (3 Bft) 97,22 %
05.12.2018 21:24 1,2 C 3,9 C 0,6 C 86 % 1024,0 hPa 0,0 l/m 13,0 km/h (3 Bft) O-NO 73 0 min 0,000 mm 0,0 UV-I 0 W/m -0,9 C -4,3 C 17,7 km/h (3 Bft) 92,00 %
05.12.2018 21:26 1,2 C 3,9 C 0,6 C 86 % 1024,1 hPa 0,0 l/m 13,1 km/h (3 Bft) O-NO 67 0 min 0,000 mm 0,0 UV-I 0 W/m -0,9 C -4,4 C 19,3 km/h (3 Bft) 94,00 %
05.12.2018 21:28 1,2 C 3,9 C 0,6 C 86 % 1024,1 hPa 0,0 l/m 12,6 km/h (3 Bft) O-NO 65 0 min 0,000 mm 0,0 UV-I 0 W/m -0,9 C -4,0 C 16,1 km/h (3 Bft) 93,62 %
05.12.2018 21:30 1,2 C 3,9 C 0,6 C 86 % 1024,1 hPa 0,0 l/m 13,6 km/h (3 Bft) O-NO 57 0 min 0,000 mm 0,0 UV-I 0 W/m -0,9 C -4,7 C 16,1 km/h (3 Bft) 95,74 %
05.12.2018 21:32 1,2 C 3,9 C 0,6 C 86 % 1024,1 hPa 0,0 l/m 15,3 km/h (3 Bft) O 80 0 min 0,000 mm 0,0 UV-I 0 W/m -0,9 C -5,7 C 20,9 km/h (4 Bft) 92,00 %
05.12.2018 21:34 1,2 C 3,9 C 0,6 C 86 % 1024,0 hPa 0,0 l/m 12,2 km/h (2 Bft) O-NO 71 0 min 0,000 mm 0,0 UV-I 0 W/m -0,9 C -3,8 C 20,9 km/h (4 Bft) 95,74 %
05.12.2018 21:36 1,2 C 3,9 C 0,0 C 86 % 1024,0 hPa 0,0 l/m 11,4 km/h (2 Bft) O 88 0 min 0,000 mm 0,0 UV-I 0 W/m -0,9 C -3,2 C 16,1 km/h (3 Bft) 96,00 %
05.12.2018 21:38 1,2 C 3,9 C 0,0 C 85 % 1023,9 hPa 0,0 l/m 13,2 km/h (3 Bft) O-SO 109 0 min 0,000 mm 0,0 UV-I 0 W/m -1,0 C -4,4 C 19,3 km/h (3 Bft) 94,29 %
05.12.2018 21:40 1,2 C 3,9 C 0,0 C 85 % 1023,9 hPa 0,0 l/m 13,2 km/h (3 Bft) O-NO 59 0 min 0,000 mm 0,0 UV-I 0 W/m -1,0 C -4,4 C 17,7 km/h (3 Bft) 91,49 %
05.12.2018 21:42 1,1 C 3,9 C 0,0 C 86 % 1023,9 hPa 0,0 l/m 11,6 km/h (2 Bft) O-NO 71 0 min 0,000 mm 0,0 UV-I 0 W/m -1,0 C -3,5 C 16,1 km/h (3 Bft) 96,00 %
05.12.2018 21:44 1,1 C 3,9 C 0,0 C 86 % 1023,9 hPa 0,0 l/m 11,0 km/h (2 Bft) O 99 0 min 0,000 mm 0,0 UV-I 0 W/m -1,0 C -3,0 C 14,5 km/h (3 Bft) 96,00 %
05.12.2018 21:46 1,1 C 3,9 C 0,0 C 86 % 1023,9 hPa 0,0 l/m 12,4 km/h (3 Bft) O-NO 78 0 min 0,000 mm 0,0 UV-I 0 W/m -1,0 C -4,0 C 19,3 km/h (3 Bft) 94,00 %
05.12.2018 21:48 1,0 C 3,9 C 0,0 C 86 % 1023,9 hPa 0,0 l/m 11,4 km/h (2 Bft) O 84 0 min 0,000 mm 0,0 UV-I 0 W/m -1,1 C -3,4 C 19,3 km/h (3 Bft) 93,62 %
05.12.2018 21:50 1,0 C 3,9 C 0,0 C 86 % 1023,9 hPa 0,0 l/m 11,9 km/h (2 Bft) O-NO 78 0 min 0,000 mm 0,0 UV-I 0 W/m -1,1 C -3,8 C 16,1 km/h (3 Bft) 93,62 %
05.12.2018 21:52 1,0 C 3,9 C 0,0 C 86 % 1023,8 hPa 0,0 l/m 11,8 km/h (2 Bft) O 84 0 min 0,000 mm 0,0 UV-I 0 W/m -1,1 C -3,7 C 17,7 km/h (3 Bft) 93,62 %
05.12.2018 21:54 1,0 C 3,9 C 0,0 C 86 % 1023,8 hPa 0,0 l/m 9,7 km/h (2 Bft) O-NO 67 0 min 0,000 mm 0,0 UV-I 0 W/m -1,1 C -2,1 C 14,5 km/h (3 Bft) 93,62 %
05.12.2018 21:56 1,0 C 3,9 C 0,0 C 86 % 1023,8 hPa 0,0 l/m 9,3 km/h (2 Bft) O 84 0 min 0,000 mm 0,0 UV-I 0 W/m -1,1 C -1,8 C 12,9 km/h (3 Bft) 95,74 %
05.12.2018 21:58 1,0 C 3,9 C 0,0 C 86 % 1023,8 hPa 0,0 l/m 10,9 km/h (2 Bft) O-NO 78 0 min 0,000 mm 0,0 UV-I 0 W/m -1,1 C -3,0 C 16,1 km/h (3 Bft) 93,62 %
05.12.2018 22:00 0,9 C 3,9 C 0,0 C 86 % 1023,8 hPa 0,0 l/m 9,1 km/h (2 Bft) O-NO 72 0 min 0,000 mm 0,0 UV-I 0 W/m -1,2 C -1,7 C 12,9 km/h (3 Bft) 100,00 %
05.12.2018 22:02 0,9 C 3,9 C 0,0 C 86 % 1023,8 hPa 0,0 l/m 10,3 km/h (2 Bft) O-NO 66 0 min 0,026 mm 0,0 UV-I 0 W/m -1,2 C -2,7 C 14,5 km/h (3 Bft) 94,12 %
05.12.2018 22:04 0,9 C 3,9 C 0,0 C 86 % 1023,8 hPa 0,0 l/m 12,6 km/h (3 Bft) O-NO 69 0 min 0,000 mm 0,0 UV-I 0 W/m -1,2 C -4,4 C 17,7 km/h (3 Bft) 96,00 %
05.12.2018 22:06 0,9 C 3,9 C 0,0 C 86 % 1023,8 hPa 0,0 l/m 8,3 km/h (2 Bft) O-NO 71 0 min 0,000 mm 0,0 UV-I 0 W/m -1,2 C -1,0 C 12,9 km/h (3 Bft) 95,74 %
05.12.2018 22:08 0,9 C 3,9 C 0,0 C 86 % 1023,8 hPa 0,0 l/m 9,1 km/h (2 Bft) O-NO 60 0 min 0,000 mm 0,0 UV-I 0 W/m -1,2 C -1,7 C 12,9 km/h (3 Bft) 100,00 %
05.12.2018 22:10 0,9 C 3,9 C 0,0 C 86 % 1023,7 hPa 0,0 l/m 9,1 km/h (2 Bft) O-NO 78 0 min 0,000 mm 0,0 UV-I 0 W/m -1,2 C -1,7 C 12,9 km/h (3 Bft) 100,00 %
05.12.2018 22:12 0,9 C 3,9 C 0,0 C 87 % 1023,8 hPa 0,0 l/m 10,1 km/h (2 Bft) O-NO 75 0 min 0,000 mm 0,0 UV-I 0 W/m -1,0 C -2,5 C 12,9 km/h (3 Bft) 100,00 %
05.12.2018 22:14 0,8 C 3,9 C 0,0 C 87 % 1023,7 hPa 0,0 l/m 8,4 km/h (2 Bft) O-NO 67 0 min 0,000 mm 0,0 UV-I 0 W/m -1,1 C -1,2 C 12,9 km/h (3 Bft) 100,00 %
05.12.2018 22:16 0,8 C 3,9 C 0,0 C 87 % 1023,7 hPa 0,0 l/m 12,2 km/h (2 Bft) O-NO 60 0 min 0,000 mm 0,0 UV-I 0 W/m -1,1 C -4,2 C 16,1 km/h (3 Bft) 100,00 %
05.12.2018 22:18 0,8 C 3,9 C 0,0 C 87 % 1023,6 hPa 0,0 l/m 11,4 km/h (2 Bft) O-NO 76 0 min 0,000 mm 0,0 UV-I 0 W/m -1,1 C -3,6 C 14,5 km/h (3 Bft) 98,00 %
05.12.2018 22:20 0,8 C 3,9 C 0,0 C 87 % 1023,6 hPa 0,0 l/m 9,4 km/h (2 Bft) O-NO 67 0 min 0,000 mm 0,0 UV-I 0 W/m -1,1 C -2,1 C 12,9 km/h (3 Bft) 100,00 %
05.12.2018 22:22 0,8 C 3,9 C 0,0 C 87 % 1023,6 hPa 0,0 l/m 9,8 km/h (2 Bft) O-NO 64 0 min 0,000 mm 0,0 UV-I 0 W/m -1,1 C -2,4 C 14,5 km/h (3 Bft) 100,00 %
05.12.2018 22:24 0,8 C 3,9 C 0,0 C 87 % 1023,7 hPa 0,0 l/m 7,6 km/h (2 Bft) O-NO 72 0 min 0,000 mm 0,0 UV-I 0 W/m -1,1 C -0,4 C 12,9 km/h (3 Bft) 100,00 %
05.12.2018 22:26 0,8 C 3,9 C 0,0 C 87 % 1023,7 hPa 0,0 l/m 7,9 km/h (2 Bft) O-NO 70 0 min 0,000 mm 0,0 UV-I 0 W/m -1,1 C -0,7 C 14,5 km/h (3 Bft) 97,87 %
05.12.2018 22:28 0,8 C 3,9 C 0,0 C 87 % 1023,7 hPa 0,0 l/m 8,3 km/h (2 Bft) O 80 0 min 0,000 mm 0,0 UV-I 0 W/m -1,1 C -1,1 C 12,9 km/h (3 Bft) 97,87 %
05.12.2018 22:30 0,8 C 3,9 C 0,0 C 87 % 1023,6 hPa 0,0 l/m 7,9 km/h (2 Bft) O-NO 59 0 min 0,000 mm 0,0 UV-I 0 W/m -1,1 C -0,7 C 11,3 km/h (2 Bft) 100,00 %
05.12.2018 22:32 0,8 C 3,9 C 0,0 C 87 % 1023,6 hPa 0,0 l/m 8,6 km/h (2 Bft) O-NO 63 0 min 0,000 mm 0,0 UV-I 0 W/m -1,1 C -1,4 C 12,9 km/h (3 Bft) 97,87 %
05.12.2018 22:34 0,8 C 3,9 C 0,6 C 87 % 1023,6 hPa 0,0 l/m 9,9 km/h (2 Bft) O-NO 63 0 min 0,000 mm 0,0 UV-I 0 W/m -1,1 C -2,5 C 14,5 km/h (3 Bft) 100,00 %
05.12.2018 22:36 0,8 C 3,9 C 0,6 C 87 % 1023,6 hPa 0,0 l/m 9,6 km/h (2 Bft) O-NO 69 0 min 0,000 mm 0,0 UV-I 0 W/m -1,1 C -2,2 C 16,1 km/h (3 Bft) 95,74 %
05.12.2018 22:39 0,8 C 3,9 C 0,6 C 87 % 1023,5 hPa 0,0 l/m 11,3 km/h (2 Bft) O-NO 71 0 min 0,000 mm 0,0 UV-I 0 W/m -1,1 C -3,6 C 16,1 km/h (3 Bft) 100,00 %
05.12.2018 22:40 0,9 C 3,9 C 0,6 C 87 % 1023,5 hPa 0,0 l/m 9,1 km/h (2 Bft) O 88 0 min 0,000 mm 0,0 UV-I 0 W/m -1,0 C -1,7 C 12,9 km/h (3 Bft) 100,00 %
05.12.2018 22:42 0,9 C 3,9 C 0,6 C 87 % 1023,5 hPa 0,0 l/m 9,4 km/h (2 Bft) O 86 0 min 0,000 mm 0,0 UV-I 0 W/m -1,0 C -2,0 C 14,5 km/h (3 Bft) 100,00 %
05.12.2018 22:44 0,9 C 3,9 C 0,6 C 87 % 1023,4 hPa 0,0 l/m 10,2 km/h (2 Bft) O 86 0 min 0,000 mm 0,0 UV-I 0 W/m -1,0 C -2,6 C 14,5 km/h (3 Bft) 97,87 %
05.12.2018 22:46 0,9 C 3,9 C 0,6 C 86 % 1023,3 hPa 0,0 l/m 10,4 km/h (2 Bft) O 90 0 min 0,000 mm 0,0 UV-I 0 W/m -1,2 C -2,8 C 14,5 km/h (3 Bft) 100,00 %
05.12.2018 22:48 0,9 C 3,9 C 0,6 C 86 % 1023,3 hPa 0,0 l/m 10,4 km/h (2 Bft) O 84 0 min 0,000 mm 0,0 UV-I 0 W/m -1,2 C -2,8 C 14,5 km/h (3 Bft) 98,00 %
05.12.2018 22:50 0,9 C 3,9 C 0,6 C 86 % 1023,3 hPa 0,0 l/m 9,8 km/h (2 Bft) O-NO 78 0 min 0,000 mm 0,0 UV-I 0 W/m -1,2 C -2,3 C 14,5 km/h (3 Bft) 95,74 %
05.12.2018 22:52 0,9 C 3,9 C 0,6 C 86 % 1023,2 hPa 0,0 l/m 10,9 km/h (2 Bft) O 82 0 min 0,000 mm 0,0 UV-I 0 W/m -1,2 C -3,2 C 16,1 km/h (3 Bft) 95,74 %
05.12.2018 22:54 0,9 C 3,9 C 0,6 C 86 % 1023,2 hPa 0,0 l/m 12,2 km/h (2 Bft) O-NO 67 0 min 0,000 mm 0,0 UV-I 0 W/m -1,2 C -4,1 C 14,5 km/h (3 Bft) 94,74 %
05.12.2018 22:56 0,9 C 3,9 C 0,6 C 86 % 1023,2 hPa 0,0 l/m 11,5 km/h (2 Bft) O 92 0 min 0,000 mm 0,0 UV-I 0 W/m -1,2 C -3,6 C 17,7 km/h (3 Bft) 95,74 %
05.12.2018 22:58 0,9 C 3,9 C 0,6 C 86 % 1023,2 hPa 0,0 l/m 10,2 km/h (2 Bft) O 95 0 min 0,000 mm 0,0 UV-I 0 W/m -1,2 C -2,6 C 14,5 km/h (3 Bft) 97,87 %
05.12.2018 23:00 0,9 C 3,9 C 0,6 C 86 % 1023,3 hPa 0,0 l/m 7,8 km/h (2 Bft) O-NO 69 0 min 0,000 mm 0,0 UV-I 0 W/m -1,2 C -0,5 C 12,9 km/h (3 Bft) 95,74 %
05.12.2018 23:02 0,9 C 3,9 C 0,6 C 86 % 1023,3 hPa 0,0 l/m 10,0 km/h (2 Bft) O-NO 78 0 min 0,000 mm 0,0 UV-I 0 W/m -1,2 C -2,5 C 14,5 km/h (3 Bft) 98,00 %
05.12.2018 23:04 0,9 C 3,9 C 0,6 C 86 % 1023,3 hPa 0,0 l/m 11,9 km/h (2 Bft) O-NO 71 0 min 0,000 mm 0,0 UV-I 0 W/m -1,2 C -3,9 C 16,1 km/h (3 Bft) 95,74 %
05.12.2018 23:06 0,9 C 3,9 C 0,6 C 86 % 1023,3 hPa 0,0 l/m 9,2 km/h (2 Bft) O-NO 61 0 min 0,000 mm 0,0 UV-I 0 W/m -1,2 C -1,8 C 14,5 km/h (3 Bft) 93,88 %
05.12.2018 23:08 0,9 C 3,9 C 0,6 C 86 % 1023,2 hPa 0,0 l/m 9,8 km/h (2 Bft) O-NO 74 0 min 0,000 mm 0,0 UV-I 0 W/m -1,2 C -2,3 C 12,9 km/h (3 Bft) 92,00 %
05.12.2018 23:10 0,9 C 3,9 C 0,6 C 86 % 1023,2 hPa 0,0 l/m 11,0 km/h (2 Bft) O 86 0 min 0,000 mm 0,0 UV-I 0 W/m -1,2 C -3,2 C 16,1 km/h (3 Bft) 97,37 %
05.12.2018 23:12 0,9 C 3,9 C 0,6 C 86 % 1023,1 hPa 0,0 l/m 10,5 km/h (2 Bft) O-NO 74 0 min 0,000 mm 0,0 UV-I 0 W/m -1,2 C -2,9 C 14,5 km/h (3 Bft) 95,83 %
05.12.2018 23:14 0,9 C 3,9 C 0,6 C 86 % 1023,1 hPa 0,0 l/m 9,4 km/h (2 Bft) O 81 0 min 0,000 mm 0,0 UV-I 0 W/m -1,2 C -2,0 C 12,9 km/h (3 Bft) 97,87 %
05.12.2018 23:16 0,9 C 3,9 C 0,6 C 86 % 1023,1 hPa 0,0 l/m 10,0 km/h (2 Bft) O-NO 73 0 min 0,000 mm 0,0 UV-I 0 W/m -1,2 C -2,5 C 14,5 km/h (3 Bft) 95,74 %
05.12.2018 23:19 0,9 C 3,9 C 0,6 C 86 % 1023,1 hPa 0,0 l/m 8,3 km/h (2 Bft) O 80 0 min 0,000 mm 0,0 UV-I 0 W/m -1,2 C -1,0 C 12,9 km/h (3 Bft) 97,14 %
05.12.2018 23:20 0,9 C 3,9 C 0,6 C 86 % 1023,1 hPa 0,0 l/m 8,9 km/h (2 Bft) O-NO 67 0 min 0,000 mm 0,0 UV-I 0 W/m -1,2 C -1,5 C 11,3 km/h (2 Bft) 100,00 %
05.12.2018 23:22 0,9 C 3,9 C 0,6 C 86 % 1023,1 hPa 0,0 l/m 8,5 km/h (2 Bft) NO 49 0 min 0,000 mm 0,0 UV-I 0 W/m -1,2 C -1,2 C 12,9 km/h (3 Bft) 95,74 %
05.12.2018 23:24 0,9 C 3,9 C 0,6 C 87 % 1023,1 hPa 0,0 l/m 9,2 km/h (2 Bft) O 94 0 min 0,000 mm 0,0 UV-I 0 W/m -1,0 C -1,8 C 12,9 km/h (3 Bft) 94,00 %
05.12.2018 23:26 0,9 C 3,9 C 0,6 C 86 % 1023,0 hPa 0,0 l/m 10,7 km/h (2 Bft) O-NO 73 0 min 0,000 mm 0,0 UV-I 0 W/m -1,2 C -3,0 C 16,1 km/h (3 Bft) 95,12 %
05.12.2018 23:28 0,9 C 3,9 C 0,6 C 86 % 1022,9 hPa 0,0 l/m 8,5 km/h (2 Bft) O-NO 68 0 min 0,000 mm 0,0 UV-I 0 W/m -1,2 C -1,2 C 12,9 km/h (3 Bft) 95,74 %
05.12.2018 23:30 0,9 C 3,9 C 0,6 C 86 % 1023,0 hPa 0,0 l/m 10,5 km/h (2 Bft) O 94 0 min 0,000 mm 0,0 UV-I 0 W/m -1,2 C -2,9 C 14,5 km/h (3 Bft) 97,87 %
05.12.2018 23:32 0,9 C 3,9 C 0,6 C 86 % 1022,9 hPa 0,0 l/m 9,8 km/h (2 Bft) O 90 0 min 0,000 mm 0,0 UV-I 0 W/m -1,2 C -2,3 C 14,5 km/h (3 Bft) 100,00 %
05.12.2018 23:34 0,9 C 3,9 C 0,6 C 86 % 1022,9 hPa 0,0 l/m 10,1 km/h (2 Bft) O-NO 67 0 min 0,000 mm 0,0 UV-I 0 W/m -1,2 C -2,5 C 16,1 km/h (3 Bft) 97,87 %
05.12.2018 23:36 0,9 C 3,9 C 0,6 C 85 % 1022,9 hPa 0,0 l/m 12,5 km/h (3 Bft) O 93 0 min 0,000 mm 0,0 UV-I 0 W/m -1,3 C -4,3 C 14,5 km/h (3 Bft) 98,00 %
05.12.2018 23:39 0,9 C 3,9 C 0,6 C 85 % 1022,8 hPa 0,0 l/m 13,7 km/h (3 Bft) O 81 0 min 0,000 mm 0,0 UV-I 0 W/m -1,3 C -5,1 C 17,7 km/h (3 Bft) 98,65 %
05.12.2018 23:40 0,9 C 3,9 C 0,6 C 85 % 1022,8 hPa 0,0 l/m 12,8 km/h (3 Bft) O 80 0 min 0,000 mm 0,0 UV-I 0 W/m -1,3 C -4,5 C 16,1 km/h (3 Bft) 100,00 %
05.12.2018 23:42 0,9 C 3,9 C 0,6 C 85 % 1022,8 hPa 0,0 l/m 11,6 km/h (2 Bft) O-NO 73 0 min 0,000 mm 0,0 UV-I 0 W/m -1,3 C -3,7 C 16,1 km/h (3 Bft) 100,00 %
05.12.2018 23:44 0,9 C 3,9 C 0,6 C 85 % 1022,8 hPa 0,0 l/m 10,8 km/h (2 Bft) O-NO 74 0 min 0,000 mm 0,0 UV-I 0 W/m -1,3 C -3,1 C 14,5 km/h (3 Bft) 100,00 %
05.12.2018 23:46 0,9 C 3,9 C 0,6 C 85 % 1022,8 hPa 0,0 l/m 12,3 km/h (3 Bft) O 80 0 min 0,000 mm 0,0 UV-I 0 W/m -1,3 C -4,2 C 14,5 km/h (3 Bft) 100,00 %
05.12.2018 23:48 1,0 C 3,9 C 0,6 C 85 % 1022,8 hPa 0,0 l/m 11,4 km/h (2 Bft) O-NO 69 0 min 0,000 mm 0,0 UV-I 0 W/m -1,2 C -3,4 C 16,1 km/h (3 Bft) 98,00 %
05.12.2018 23:50 1,0 C 3,9 C 0,6 C 85 % 1022,7 hPa 0,0 l/m 9,9 km/h (2 Bft) O 87 0 min 0,000 mm 0,0 UV-I 0 W/m -1,2 C -2,3 C 14,5 km/h (3 Bft) 97,87 %
05.12.2018 23:52 1,0 C 3,9 C 0,6 C 85 % 1022,7 hPa 0,0 l/m 10,0 km/h (2 Bft) O-NO 77 0 min 0,000 mm 0,0 UV-I 0 W/m -1,2 C -2,3 C 16,1 km/h (3 Bft) 100,00 %
05.12.2018 23:54 0,9 C 3,9 C 0,6 C 85 % 1022,7 hPa 0,0 l/m 8,8 km/h (2 Bft) O 83 0 min 0,000 mm 0,0 UV-I 0 W/m -1,3 C -1,4 C 12,9 km/h (3 Bft) 100,00 %
05.12.2018 23:56 0,9 C 3,9 C 0,6 C 85 % 1022,7 hPa 0,0 l/m 9,4 km/h (2 Bft) O-NO 75 0 min 0,000 mm 0,0 UV-I 0 W/m -1,3 C -2,0 C 12,9 km/h (3 Bft) 100,00 %
05.12.2018 23:58 0,9 C 3,9 C 0,6 C 85 % 1022,6 hPa 0,0 l/m 10,7 km/h (2 Bft) O-NO 73 0 min 0,000 mm 0,0 UV-I 0 W/m -1,3 C -3,0 C 14,5 km/h (3 Bft) 100,00 %
_ Min-Zeit 08:14 00:00 03:50 14:18 23:58 - 00:54 - - - - - - 23:36 20:20 00:54 02:34
Minimum _ -0,7 C 3,9 C -4,4 C 81 % 1022,6 hPa - 0,0 km/h (0 Bft) - - - - - - -1,3 C -7,6 C 0,0 km/h (0 Bft) 89,36 %
_ Max-Zeit 13:56 00:00 12:00 04:30 10:22 12:12 20:20 - - 07:50 14:00 11:40 12:58 00:38 00:38 19:35 00:40
Maximum _ 4,3 C 3,9 C 5,0 C 98 % 1029,5 hPa 0,2 l/m 19,3 km/h
O (3 Bft)
- - 2 min 0,076 mm 0,5 UV-I 262 W/m 2,6 C 3,2 C 27,4 km/h
O-NO (4 Bft)
100,00 %
Durchschnitt _ 1,4 C 3,9 C 0,4 C 91 % 1026,9 hPa #0,2 l/m 7,4 km/h (2 Bft) O-NO - #1:58 h #0,483 mm 0,4 UV-I 97 W/m 0,1 C -0,7 C 10,7 km/h (2 Bft) 97,10 %